GFSGL_sfc_temp_000.txt.gz
Temp
40 39 37 35 34 33 33 31 30 30 29 28 28 27 27 26 26 25 25 25 22 23 24 24 24 25 24 24 24 24 24 24 20 24 28 30 29 31 33 34 35 35 37
39 37 36 34 33 32 31 30 29 28 27 26 26 25 25 25 24 23 22 21 20 20 22 22 22 24 20 21 21 20 20 21 20 16 21 23 24 27 28 29 31 35 33
37 36 34 33 32 31 30 29 28 26 25 25 24 23 23 23 22 22 22 21 21 20 21 20 20 20 18 18 19 19 19 21 20 17 16 21 22 24 24 26 27 28 33
37 35 33 31 31 30 29 27 26 25 23 23 22 22 21 21 21 21 22 21 20 20 21 21 20 20 19 18 18 17 18 16 16 16 16 18 20 23 24 22 23 27 28
36 33 31 30 29 28 25 23 22 21 22 22 20 20 20 19 20 19 21 18 18 19 21 22 22 22 24 24 22 20 19 18 17 16 16 17 18 20 21 24 23 25 27
34 31 31 27 25 23 20 20 19 18 18 18 17 16 16 19 23 25 24 20 20 20 19 21 22 21 23 25 26 27 26 20 18 17 19 18 20 22 24 23 23 22 21
30 27 26 24 22 20 19 18 17 17 18 17 17 17 17 18 22 24 24 23 20 19 20 20 21 24 23 23 24 26 26 27 27 24 20 20 21 24 26 24 24 24 24
28 26 23 22 20 18 17 17 17 17 16 15 16 16 16 17 22 23 23 22 19 20 21 22 22 23 24 24 23 21 22 23 24 24 23 24 25 26 26 26 25 25 27
25 23 21 21 18 17 15 15 15 15 14 14 15 13 13 13 18 21 23 18 19 19 22 24 23 23 24 27 22 19 19 21 27 28 29 30 30 30 30 27 22 21 20
24 23 21 20 17 15 15 14 14 14 14 15 14 14 13 11 17 21 24 17 14 18 20 24 24 24 25 26 22 19 16 19 21 20 22 25 28 28 31 28 26 22 24
23 21 18 17 15 15 13 13 12 12 13 12 12 13 13 14 14 22 24 21 19 19 18 18 20 23 26 25 26 19 18 22 21 19 22 23 24 25 26 27 28 27 24
20 16 15 14 13 13 12 10 9 10 9 9 10 13 16 19 20 21 24 25 26 18 17 19 20 25 23 23 21 23 23 22 15 15 17 19 22 24 26 28 29 30 30
15 13 10 10 9 9 8 7 8 8 10 11 12 13 15 17 17 20 22 24 24 21 20 22 23 21 20 18 19 21 18 14 13 12 13 16 20 24 27 28 31 32 29
12 10 8 7 6 7 10 10 10 9 11 12 13 12 12 14 14 15 16 14 20 19 20 13 16 16 17 17 14 16 16 14 14 13 13 16 19 20 21 24 27 29 27
11 9 8 8 7 7 10 11 12 13 13 12 11 11 10 8 11 20 20 17 17 18 10 5 6 7 8 10 10 11 13 13 13 14 13 13 15 17 19 22 24 28 27
12 9 8 7 8 9 9 11 17 16 19 19 19 14 10 17 20 22 22 22 20 20 -2 -3 3 5 5 7 7 8 11 11 13 14 13 13 13 14 15 16 19 20 27
13 11 9 9 9 9 8 8 8 14 18 18 17 17 17 17 19 20 20 18 16 10 -11 -2 1 3 4 6 7 8 8 11 13 13 13 12 14 13 12 12 14 17 20
14 12 10 10 9 9 9 8 8 6 6 8 14 15 14 16 17 18 17 8 -8 -1 -10 -2 -1 1 3 5 6 7 9 9 12 12 12 13 11 10 9 10 11 13 16
12 10 11 10 10 10 10 10 9 8 6 4 4 11 7 13 15 13 11 -7 -13 -14 -10 -3 -1 0 2 4 5 7 8 8 12 12 13 11 10 9 8 8 10 11 13
12 11 10 8 7 6 7 6 6 6 4 4 3 3 -1 -2 -9 -13 -13 -16 -17 -16 -10 -5 -2 -1 1 3 4 6 7 8 12 13 12 11 10 9 8 8 9 9 11
10 8 8 6 5 5 5 5 5 4 3 1 0 1 7 -6 -11 -14 -17 -16 -17 -16 -9 -6 -4 -3 0 2 4 5 6 8 12 14 12 11 10 8 9 10 10 10 11
6 4 5 4 4 4 4 4 3 2 1 0 -1 2 8 -2 -8 -12 -14 -17 -17 -15 -11 -10 -6 -3 -1 1 3 4 7 8 12 14 12 10 10 10 9 9 9 10 11
5 4 3 3 3 2 1 1 0 -0 -1 -3 -4 -2 -4 -12 -13 -15 -17 -20 -16 -10 -8 -10 -7 -4 -0 2 3 5 7 8 13 14 11 10 9 9 9 8 8 9 12
4 3 2 0 1 -0 -1 -2 -1 -2 -4 -7 -8 -12 -8 -15 -20 -17 -17 -19 -15 -15 -11 -11 -7 -7 -3 -1 2 6 9 10 17 15 12 10 9 9 9 8 8 9 10
2 1 0 -0 -1 -2 -3 -4 -4 -6 -7 -7 -11 -10 -14 -14 -15 -21 -21 -19 -16 -14 -12 -10 -7 -7 -6 -4 0 5 8 11 18 16 13 11 9 9 9 8 8 8 10
1 1 -0 -1 -2 -3 -3 -4 -6 -6 -8 -10 -11 -14 -13 -16 -17 -20 -20 -18 -15 -13 -13 -10 -9 -10 -7 -2 3 6 10 17 19 16 14 12 9 8 9 8 7 7 7

GFSGL_sfc_temp_003.txt.gz
Temp
40 40 39 38 38 36 36 35 33 33 31 30 29 28 28 27 27 26 26 25 23 23 25 25 25 25 24 23 24 23 23 23 18 22 27 27 26 25 27 29 30 30 32
40 37 38 35 35 35 35 32 31 31 30 29 28 27 26 26 25 24 22 22 21 22 23 23 22 24 20 21 20 20 20 21 19 15 20 21 22 24 24 24 27 30 29
36 35 35 34 33 33 31 30 30 29 27 27 26 25 24 24 23 23 23 23 22 22 22 21 20 20 18 18 18 18 19 20 20 17 16 20 21 22 21 23 24 26 30
36 35 34 34 33 32 30 29 29 28 26 24 24 22 22 22 22 22 23 22 21 21 21 21 20 20 18 17 17 16 17 16 16 16 16 17 19 22 22 19 20 24 25
36 35 34 34 33 30 28 27 24 24 24 23 21 21 21 21 21 21 22 20 19 20 21 21 21 22 23 23 21 19 19 17 17 16 17 18 20 21 21 23 21 23 25
36 34 34 30 27 26 25 23 23 22 20 21 19 19 18 21 25 26 23 20 20 20 20 21 22 21 22 25 26 27 26 21 19 18 20 19 20 23 24 23 23 22 19
33 31 28 27 25 25 24 23 22 20 20 20 18 18 18 20 26 27 27 24 22 21 21 21 21 24 23 23 25 26 27 27 28 24 20 21 21 24 24 22 22 22 22
31 29 26 26 25 23 22 21 20 19 17 17 17 17 18 19 25 26 26 23 22 21 21 21 21 22 24 24 23 21 22 23 24 24 23 23 24 25 24 24 23 22 24
29 28 25 25 23 21 20 19 19 17 16 16 16 15 16 17 25 26 25 21 21 21 22 23 23 23 25 27 24 21 20 22 27 28 29 30 31 31 31 27 22 19 18
29 28 25 24 21 19 20 18 17 16 15 16 14 13 14 11 22 24 25 21 13 17 20 23 24 25 26 27 23 21 16 18 19 20 22 22 24 24 27 26 25 20 20
26 24 22 22 20 20 18 17 14 14 15 14 13 13 12 12 14 24 26 20 16 15 18 18 21 24 26 28 28 20 17 22 20 14 14 16 18 20 22 25 26 24 21
23 20 20 20 19 17 15 13 13 13 12 11 11 12 14 15 18 24 25 26 24 15 13 20 20 25 25 25 23 22 24 22 13 12 11 13 15 16 19 22 24 26 26
19 18 17 15 14 13 12 11 11 11 11 10 12 12 14 17 17 23 24 24 25 20 20 21 22 22 21 18 19 20 18 12 12 10 10 13 17 18 20 19 21 23 25
15 15 13 12 11 11 13 12 12 11 12 13 13 13 13 14 14 14 14 14 21 19 17 11 15 15 16 16 13 14 14 12 12 11 12 14 17 17 16 18 17 19 18
17 13 12 12 11 10 12 13 13 15 17 14 15 14 12 12 13 17 16 14 15 16 1 -2 -1 6 7 8 8 10 11 11 11 12 11 11 14 15 15 17 16 16 14
15 12 12 11 11 11 11 12 20 19 22 23 21 16 15 19 22 24 24 22 21 17 -2 -8 -3 2 3 4 5 6 8 9 10 11 11 12 13 13 13 15 14 13 11
16 13 12 11 11 11 12 13 11 19 23 22 22 21 20 22 23 23 22 18 17 7 -9 -12 -8 -3 -0 3 4 5 5 8 10 10 10 11 13 14 12 11 11 11 10
17 14 11 11 12 11 13 14 14 14 13 14 21 21 22 23 23 22 18 10 -2 -4 -16 -17 -15 -10 -3 -1 1 3 4 6 7 8 8 11 14 13 10 9 9 8 8
16 13 12 12 14 13 13 14 14 13 12 11 13 17 19 21 21 19 11 -0 -7 -12 -16 -19 -16 -10 -4 -3 -1 1 2 3 5 6 8 10 14 12 10 9 9 9 9
16 14 13 12 12 11 11 10 9 9 8 7 9 5 5 5 0 -2 -3 -6 -11 -15 -14 -19 -14 -13 -10 -6 -4 -1 1 2 4 6 8 12 13 11 9 9 9 8 8
13 12 11 11 10 11 10 9 8 7 6 6 5 5 7 3 -1 -4 -7 -11 -14 -16 -18 -19 -15 -16 -11 -8 -5 -2 -1 2 4 7 7 12 12 9 10 10 9 9 9
11 11 10 9 8 8 8 8 7 6 5 4 4 8 13 1 -3 -5 -7 -11 -15 -16 -19 -18 -18 -17 -11 -8 -5 -3 -1 1 5 7 8 13 11 10 10 9 8 9 8
9 8 7 7 7 6 6 5 4 4 3 3 3 2 -1 -4 -7 -8 -11 -16 -14 -16 -19 -19 -17 -15 -11 -8 -4 -3 -2 1 5 8 11 11 10 10 9 8 8 7 7
7 6 6 5 5 4 3 2 2 1 0 -1 -2 -3 -3 -8 -11 -11 -13 -15 -16 -24 -21 -19 -16 -17 -12 -9 -7 -4 -1 2 7 11 13 11 10 10 9 8 8 7 7
5 4 4 2 2 1 0 -0 -1 -2 -3 -3 -5 -5 -7 -8 -10 -16 -17 -17 -21 -22 -18 -17 -16 -15 -13 -11 -10 -7 -2 3 8 16 13 12 10 10 8 7 8 7 7
3 2 1 1 -0 -1 -1 -2 -3 -3 -4 -5 -6 -7 -8 -9 -11 -15 -17 -20 -19 -18 -18 -17 -18 -16 -14 -9 -7 -1 3 9 15 17 13 11 10 9 9 7 7 7 7

GFSGL_sfc_temp_006.txt.gz
Temp
40 41 40 38 38 36 35 34 33 33 33 32 32 30 29 28 28 26 26 26 25 24 25 25 25 25 24 24 24 23 23 22 16 23 27 26 24 24 26 26 27 27 27
41 40 38 38 36 35 35 34 33 33 32 32 31 30 28 28 26 26 24 24 22 22 23 23 22 25 22 23 22 21 21 21 18 15 21 22 22 23 24 23 26 29 27
39 38 36 35 36 37 35 32 32 32 31 31 30 29 28 26 25 25 24 23 22 22 23 23 22 21 20 20 20 19 19 21 19 17 16 21 21 23 22 23 24 25 28
38 37 37 35 36 36 35 33 33 32 30 30 29 28 26 24 24 24 23 22 21 21 22 22 22 21 20 19 18 18 18 15 16 16 16 17 20 23 23 21 22 26 26
38 36 37 37 36 35 31 31 31 30 29 29 26 24 24 23 23 23 23 20 20 21 22 22 22 22 24 22 19 17 17 15 15 15 17 19 20 22 23 25 22 23 24
37 36 37 34 32 30 29 29 28 28 26 26 24 23 21 24 28 29 24 20 21 21 20 21 23 21 23 26 27 28 26 20 18 18 20 20 21 22 24 24 23 21 17
35 35 32 31 29 28 28 27 26 25 25 24 22 21 20 22 30 30 28 22 20 21 22 22 22 24 22 23 25 27 27 28 29 25 21 21 22 24 24 22 22 21 20
34 32 30 29 27 26 26 25 26 25 23 23 21 21 21 21 31 31 29 23 21 22 22 22 22 22 23 23 23 21 22 23 25 25 24 24 24 25 26 25 23 22 24
31 31 30 29 27 25 24 25 25 24 23 22 21 20 19 20 31 32 29 21 21 21 22 23 22 22 24 26 23 20 21 23 28 29 29 30 30 29 28 23 17 16 15
29 29 28 28 26 25 25 24 24 23 22 22 19 19 19 18 30 31 28 21 17 19 20 23 24 23 26 28 22 21 19 21 20 20 22 20 22 20 23 21 17 13 14
24 22 22 23 23 23 23 22 21 21 19 19 17 16 17 17 24 30 30 20 17 16 17 18 22 25 26 27 29 21 19 22 21 14 14 15 16 17 18 20 21 18 15
21 20 20 20 21 21 18 18 18 18 16 15 14 13 16 16 19 28 29 25 24 15 16 20 21 24 26 27 25 24 24 23 10 9 9 10 12 14 17 19 21 20 21
21 21 20 16 18 19 18 16 15 16 16 13 14 14 14 15 17 26 29 29 27 19 19 21 24 22 22 20 19 21 18 11 9 7 8 11 15 17 18 17 20 20 20
21 20 18 17 16 16 17 16 16 16 16 15 15 14 14 14 16 21 23 25 26 23 21 12 16 16 17 16 13 14 13 12 10 9 10 13 15 14 14 16 15 16 14
21 19 17 17 15 16 17 16 17 18 20 17 17 16 15 14 16 21 19 15 15 16 1 -0 2 7 8 9 8 9 10 10 9 10 10 10 11 12 12 15 16 15 12
20 18 16 16 15 15 15 14 22 21 23 26 25 21 20 22 24 24 24 24 24 21 -3 -6 -1 3 4 5 4 5 7 8 9 9 9 9 9 9 10 12 15 14 11
22 20 17 16 14 14 13 12 12 20 24 27 26 24 23 23 25 26 27 26 23 13 -5 -7 -5 -0 0 2 3 3 3 5 8 7 7 7 8 8 9 11 13 13 10
22 22 17 15 14 13 13 13 15 14 16 18 24 23 25 26 26 27 25 21 8 2 -8 -10 -9 -7 -4 -2 -0 0 1 2 3 4 5 5 6 8 8 11 12 10 9
21 20 16 14 14 14 14 14 15 16 17 17 17 22 24 26 26 24 19 4 1 -3 -8 -8 -9 -7 -5 -5 -5 -6 -5 -2 -0 1 2 4 6 7 9 11 11 11 10
22 20 15 13 12 12 13 14 15 15 16 16 16 17 19 19 11 4 1 -1 -2 -5 -4 -8 -9 -12 -11 -12 -12 -11 -7 -4 -2 1 2 5 7 7 10 10 10 9 9
19 16 13 13 12 12 13 13 14 14 13 15 13 13 16 10 4 1 -3 -2 -4 -5 -6 -9 -12 -13 -14 -15 -16 -15 -10 -5 -3 0 3 5 6 9 10 11 10 10 9
15 12 12 11 11 11 12 13 11 11 11 8 9 15 17 6 2 -1 -1 -3 -6 -7 -9 -13 -14 -14 -13 -16 -17 -13 -8 -6 -4 0 2 4 6 10 9 9 9 9 8
12 11 10 10 11 11 11 10 9 9 8 7 10 11 3 2 0 -1 -3 -7 -7 -7 -9 -13 -13 -12 -12 -15 -14 -9 -9 -7 -4 -0 1 4 9 9 9 7 8 8 8
9 9 8 8 9 9 8 7 7 7 7 7 5 2 1 -1 -2 -4 -6 -8 -8 -12 -14 -14 -13 -14 -13 -14 -15 -12 -9 -6 -3 0 3 8 9 9 8 7 8 8 7
6 6 6 6 5 5 4 4 4 5 4 2 0 -1 -3 -4 -5 -6 -8 -8 -10 -12 -12 -13 -14 -14 -14 -15 -13 -13 -9 -4 -2 4 10 10 10 8 7 7 7 7 7
4 4 3 3 3 3 2 1 0 1 -0 -1 -2 -3 -3 -4 -6 -8 -9 -10 -11 -11 -14 -14 -16 -15 -15 -13 -11 -7 -1 5 8 14 11 11 10 7 7 6 6 6 7

GFSGL_sfc_temp_009.txt.gz
Temp
39 40 41 40 39 39 37 37 36 35 34 33 33 32 31 30 30 29 28 27 27 26 26 26 26 26 24 23 24 24 23 22 17 22 27 26 25 25 26 27 27 27 28
41 40 40 39 37 38 37 36 36 34 33 33 33 33 32 31 30 29 27 26 25 25 25 25 24 25 22 22 21 21 21 21 19 16 22 23 22 24 24 24 27 29 29
39 38 37 37 35 37 37 35 34 34 33 33 32 32 31 31 29 29 28 26 25 25 25 24 23 22 19 19 19 19 19 22 20 17 17 22 22 23 24 25 26 27 30
36 36 37 37 37 38 38 34 34 34 32 31 32 32 31 30 29 28 27 25 24 23 24 23 22 22 20 18 18 18 18 16 16 17 17 19 21 24 25 24 23 26 27
37 37 38 38 38 37 36 33 33 32 33 32 30 30 30 29 28 26 26 23 22 21 22 23 22 22 25 22 18 16 16 13 14 14 16 19 21 23 22 24 23 23 24
38 38 39 37 34 35 34 32 31 31 30 30 29 28 27 29 33 32 27 23 22 22 20 21 22 22 25 27 27 26 20 13 11 13 19 20 21 23 24 23 22 20 18
36 39 35 31 31 32 31 30 30 29 29 29 28 28 27 28 34 34 30 24 22 22 22 22 22 24 22 23 27 29 29 30 30 25 21 22 22 23 24 22 22 22 21
36 36 30 32 32 30 28 28 28 29 28 28 28 27 27 27 34 34 31 24 23 23 23 23 23 23 23 23 23 21 22 23 24 25 24 24 24 26 26 26 23 20 20
32 30 29 28 30 27 27 27 28 28 27 27 27 25 25 25 35 35 30 22 22 22 23 24 23 23 25 27 22 17 19 22 28 30 31 31 31 31 29 22 14 12 11
29 29 26 25 25 26 27 26 27 28 26 27 24 25 25 23 34 34 29 22 19 20 22 23 24 24 26 28 22 15 12 20 22 16 21 23 23 22 25 21 15 10 11
25 22 19 20 21 22 25 25 24 24 24 23 22 22 22 23 30 35 32 22 20 19 19 20 22 27 27 29 29 21 20 21 17 11 13 15 16 17 18 19 19 16 13
24 21 20 17 19 19 19 17 21 22 21 20 19 18 19 22 29 34 34 27 26 18 19 20 22 27 28 28 27 26 27 24 4 2 5 8 11 13 17 19 20 20 20
31 27 23 22 20 21 20 19 19 19 18 17 17 17 16 19 24 33 34 29 27 19 21 22 25 27 27 25 22 22 18 9 4 0 5 9 14 16 18 17 18 18 18
26 28 23 20 19 19 20 19 19 17 18 17 17 17 17 16 18 26 28 29 27 23 24 24 23 20 19 18 15 16 14 12 10 8 9 12 14 13 12 15 13 14 12
22 26 23 20 19 18 19 18 19 20 21 18 19 19 16 15 17 23 25 25 24 21 12 11 9 11 11 11 10 10 10 10 9 9 8 8 9 10 11 13 12 11 9
16 20 23 20 19 18 18 17 24 24 24 26 25 22 20 24 24 26 28 28 25 23 11 7 8 9 9 9 7 6 8 8 8 8 7 7 7 8 8 9 10 10 8
13 16 21 20 19 17 16 16 15 21 26 26 27 26 25 25 25 27 28 28 27 21 9 8 8 7 6 6 5 4 4 6 7 6 5 5 6 6 5 6 8 9 9
12 14 17 22 19 17 17 16 16 16 18 18 26 25 26 25 26 27 28 27 21 12 7 5 3 2 2 2 3 2 2 2 2 3 2 1 1 2 3 4 7 6 9
12 13 17 21 20 18 17 15 15 16 17 18 20 25 24 26 27 27 28 18 9 4 4 2 1 0 0 -1 -2 -5 -7 -7 -4 -4 -7 -3 0 1 3 5 6 8 9
11 13 16 19 17 15 15 14 14 15 16 18 19 19 20 22 22 22 14 10 6 4 2 1 -2 -3 -5 -6 -9 -12 -14 -13 -8 -8 -7 -2 0 2 4 5 7 8 7
8 13 17 20 14 14 14 14 15 15 16 17 18 20 24 22 19 8 6 6 5 2 0 -1 -4 -7 -10 -12 -14 -17 -15 -9 -7 -10 -6 -2 0 1 4 5 8 8 7
12 14 16 13 13 13 13 14 15 16 16 16 17 20 25 11 9 6 4 2 1 0 -1 -3 -7 -9 -10 -11 -12 -12 -13 -11 -10 -11 -6 -2 -1 1 4 7 8 7 6
12 11 11 11 12 12 13 14 14 15 14 13 16 16 9 6 5 3 1 -2 -3 -4 -6 -8 -9 -10 -10 -12 -11 -10 -11 -10 -10 -12 -6 -4 -2 1 5 7 7 5 5
8 9 9 10 10 10 10 10 11 9 11 13 9 6 5 3 2 -0 -2 -3 -4 -6 -7 -8 -9 -10 -13 -14 -14 -14 -13 -11 -12 -10 -7 -4 -1 4 8 7 6 5 5
6 7 7 7 7 7 7 7 7 8 8 4 3 2 1 0 -1 -3 -4 -4 -5 -7 -8 -8 -8 -9 -11 -11 -12 -12 -12 -7 -8 -6 -4 1 7 5 7 5 4 4 4
3 4 4 4 4 4 5 5 4 4 2 2 1 -0 -1 -2 -3 -4 -5 -6 -6 -6 -7 -7 -8 -10 -10 -10 -10 -8 -6 1 3 8 11 12 3 6 7 3 2 3 3

GFSGL_sfc_temp_012.txt.gz
Temp
36 37 37 36 36 37 36 37 37 36 35 33 35 34 33 33 32 32 31 29 30 28 28 28 27 27 26 25 25 24 23 23 19 22 26 25 25 25 26 27 27 28 29
37 36 35 36 35 35 35 36 36 35 34 35 35 34 34 34 32 32 30 29 28 27 27 27 26 26 24 23 23 22 22 22 20 17 22 22 22 23 24 24 26 30 29
39 35 35 35 34 36 37 37 35 36 34 35 34 34 33 33 32 32 32 30 29 29 27 26 25 24 21 21 21 20 21 23 20 18 17 21 21 23 23 24 25 27 30
37 35 35 35 36 38 38 36 35 35 34 34 34 34 33 33 32 32 31 29 28 27 26 26 25 24 22 20 20 19 19 18 18 17 18 18 20 23 24 23 23 26 26
37 38 38 36 35 36 36 35 33 34 34 34 32 32 32 32 32 31 31 28 27 25 25 26 25 25 27 24 21 18 18 15 14 14 17 18 21 22 22 24 22 23 24
35 35 37 35 33 32 34 33 31 32 32 31 31 31 30 32 36 36 33 29 27 26 24 24 24 24 28 29 29 26 21 13 6 10 19 19 21 22 23 22 22 21 19
34 34 34 34 33 32 30 30 30 30 31 31 31 31 30 31 36 37 36 29 28 27 26 24 23 25 24 26 29 28 27 27 22 20 19 21 21 23 23 22 23 22 21
32 32 32 31 31 31 28 29 29 29 30 30 30 30 30 30 36 37 36 29 28 27 26 25 25 23 23 24 25 25 25 25 26 26 24 23 23 25 24 26 22 18 19
32 31 31 30 29 28 28 28 29 28 29 30 31 29 29 30 36 37 35 26 27 25 26 26 26 24 26 28 22 19 21 22 28 29 30 30 31 31 29 18 8 5 10
30 30 29 28 26 26 26 25 28 28 29 29 29 29 29 29 34 37 34 24 23 23 24 25 27 26 29 30 20 18 15 19 21 18 22 24 24 22 25 21 12 2 8
25 25 29 28 26 25 24 20 22 25 26 25 24 26 26 26 28 36 35 25 24 22 21 21 23 29 30 31 27 20 19 22 21 14 14 15 17 18 18 19 20 16 11
23 24 24 26 27 25 21 20 17 21 22 20 17 17 20 23 28 36 36 28 28 22 21 22 23 30 30 31 29 27 28 20 9 8 4 8 12 14 16 18 20 20 20
19 19 20 23 26 23 23 21 20 20 19 19 19 17 18 20 25 34 35 30 30 24 24 25 26 30 30 30 31 30 22 13 8 7 5 10 14 16 18 17 18 17 17
14 14 16 17 20 25 22 23 21 20 19 19 18 18 17 18 21 27 31 30 28 23 24 24 25 27 29 21 23 24 17 14 12 8 9 13 15 13 12 14 12 12 10
10 11 12 14 16 22 22 22 21 23 23 21 20 20 18 16 20 26 30 27 24 21 21 21 22 18 16 14 13 13 13 13 11 10 10 9 10 10 10 12 11 9 6
7 8 10 12 14 17 21 21 26 27 27 28 27 23 22 24 24 27 31 31 28 27 19 18 15 14 13 11 10 10 11 11 11 10 9 8 7 7 7 9 9 6 5
4 5 7 10 11 14 18 18 18 22 28 29 28 28 27 24 26 27 29 31 29 26 17 15 14 12 12 11 10 10 9 10 10 9 8 7 7 5 4 4 6 6 5
4 6 7 9 11 13 15 18 18 18 17 21 27 27 29 27 27 27 29 31 26 22 15 13 11 11 10 9 8 7 7 6 6 6 5 3 0 -1 -1 1 3 3 4
4 5 7 8 9 12 14 17 18 17 17 19 20 25 27 28 27 28 29 26 22 11 12 12 10 9 7 7 6 4 3 1 -0 -1 -3 -5 -5 -6 -3 -0 3 4 5
4 5 6 6 8 10 13 16 16 15 16 18 18 20 23 23 21 22 24 24 14 14 11 8 7 6 4 3 1 -1 -3 -5 -5 -6 -6 -6 -5 -5 -1 -0 2 3 3
3 4 5 6 7 11 14 15 15 14 15 16 18 21 24 20 21 22 23 14 12 9 8 6 3 2 0 -1 -4 -4 -5 -4 -5 -8 -8 -10 -9 -5 -2 1 1 3 5
5 6 7 9 11 14 15 14 14 13 14 16 17 20 26 20 17 11 12 10 8 6 5 3 1 -1 -3 -4 -4 -6 -6 -6 -9 -11 -14 -12 -6 -4 -3 -1 2 4 7
7 8 10 10 11 12 13 13 13 14 14 16 17 18 14 10 9 6 2 2 1 0 0 0 -2 -5 -5 -5 -6 -4 -5 -6 -9 -12 -12 -11 -7 -6 -4 -1 2 5 5
6 6 7 9 9 8 8 10 10 12 13 12 7 6 6 5 2 1 1 0 -1 -3 -3 -3 -3 -4 -6 -9 -9 -11 -13 -13 -13 -12 -14 -11 -7 -5 -3 1 5 5 4
4 4 5 6 7 7 7 8 8 5 6 5 3 3 2 2 0 -1 -1 -2 -3 -4 -5 -4 -4 -5 -6 -7 -9 -11 -11 -4 -6 -9 -11 -7 -7 -5 0 3 5 4 1
2 3 3 3 4 5 5 4 3 3 2 2 2 2 1 0 -1 -2 -2 -3 -3 -3 -4 -5 -5 -6 -7 -7 -9 -8 -6 -1 -4 -5 -6 -2 3 7 1 2 3 1 -0

GFSGL_sfc_temp_015.txt.gz
Temp
42 40 39 39 39 38 37 38 39 38 38 37 37 38 38 37 37 37 38 36 36 35 36 35 34 34 34 34 34 34 34 34 34 30 34 33 32 32 33 33 33 34 35
40 40 39 39 37 37 38 38 38 37 37 37 37 37 37 37 36 36 36 35 35 33 34 34 33 32 32 32 32 31 32 31 31 29 28 30 30 31 31 30 31 33 34
38 38 39 39 38 37 37 38 36 38 37 37 36 36 36 36 36 36 37 35 35 35 34 33 33 31 29 29 30 29 29 29 29 27 27 28 28 29 29 30 30 32 33
37 37 37 37 37 38 38 38 36 36 37 36 36 36 36 36 36 35 36 35 35 35 34 34 33 31 30 28 27 27 26 26 26 26 25 25 26 28 28 27 28 30 30
35 35 36 36 36 36 35 36 36 34 36 36 35 35 36 35 35 34 35 34 34 34 33 33 33 32 33 30 28 26 25 24 23 23 23 23 24 24 25 28 26 28 29
34 33 34 34 34 34 34 34 34 33 34 34 33 34 34 34 38 38 36 34 33 33 31 31 32 30 32 33 33 31 27 22 20 21 23 22 24 26 27 26 26 24 25
31 33 32 31 31 31 32 32 31 32 33 32 33 33 33 34 38 39 38 34 33 33 32 30 29 29 30 31 33 32 31 30 27 25 24 26 26 27 27 25 25 25 25
28 28 30 29 28 29 29 30 31 31 31 31 32 33 32 34 37 39 37 34 33 33 33 31 30 29 29 29 30 28 28 28 28 27 28 29 29 29 28 28 25 22 23
27 26 26 25 25 28 27 28 29 29 29 30 31 31 31 32 37 38 38 34 31 31 32 31 31 29 30 32 28 25 24 25 30 31 30 31 31 30 30 24 19 17 16
25 25 24 23 25 24 26 26 28 28 28 29 29 30 30 30 35 37 37 34 29 29 29 30 30 30 31 32 26 25 23 24 25 27 28 30 32 28 27 26 20 15 15
24 22 21 21 21 22 23 26 26 26 27 26 26 28 28 29 30 36 37 34 29 27 26 26 28 32 31 32 28 24 24 25 25 23 24 23 22 22 22 23 23 20 15
19 18 17 17 18 19 19 21 24 24 23 25 25 25 26 27 29 33 36 38 31 26 24 27 27 32 32 32 29 26 27 25 22 19 18 18 18 18 21 21 22 23 23
15 14 14 14 14 15 16 18 21 24 22 23 23 22 24 24 26 31 33 36 32 26 26 28 28 33 32 31 30 27 26 21 19 15 15 17 19 20 21 20 20 19 19
10 11 12 11 11 12 15 17 19 22 22 22 22 22 23 22 22 25 28 31 31 29 28 27 27 30 30 29 28 29 22 20 19 17 16 18 18 17 16 17 15 15 13
8 9 9 9 9 10 13 15 17 22 24 22 23 23 22 20 22 24 25 28 28 27 24 23 23 25 24 23 23 18 17 16 15 15 14 13 14 14 14 15 14 13 10
5 5 6 6 7 8 9 11 19 23 27 30 29 28 24 27 29 27 28 30 31 28 22 20 21 23 19 20 17 15 15 14 14 13 13 12 12 12 12 12 12 10 9
2 3 4 4 5 5 7 8 8 15 23 28 30 31 30 29 28 28 29 30 32 28 20 20 21 21 18 18 16 14 13 13 14 13 12 11 11 10 9 9 9 9 8
2 2 2 3 3 5 6 7 9 10 12 18 25 28 30 31 30 28 29 29 28 26 21 21 19 19 15 14 14 13 12 12 12 12 10 9 7 7 5 6 6 6 6
1 1 2 3 4 5 6 7 7 9 11 15 20 23 26 30 30 29 29 26 26 23 19 18 17 16 15 15 13 12 10 9 9 8 6 4 3 3 2 4 5 4 5
2 3 4 4 4 5 5 5 7 9 11 15 17 18 22 24 24 23 25 25 26 23 17 17 16 15 13 12 10 8 7 5 4 3 2 2 2 2 3 2 3 4 4
3 3 4 4 3 4 4 5 8 11 14 15 16 19 23 22 23 22 23 23 17 16 16 13 11 10 9 7 5 4 4 3 2 1 1 0 -0 -1 1 3 3 2 3
3 4 5 5 7 7 8 10 11 14 15 15 15 17 24 23 22 21 15 13 13 12 10 8 6 5 5 5 4 3 2 1 1 1 1 -1 -1 -1 -1 0 0 2 3
4 4 5 7 9 11 12 13 14 14 14 15 16 16 15 10 7 6 5 5 5 5 5 4 3 1 2 2 4 4 3 1 1 0 -1 -2 -3 -2 -3 -2 -1 0 3
3 4 4 6 8 8 9 9 10 10 8 7 7 7 5 5 3 2 2 2 2 2 3 3 2 0 -1 -2 -1 -0 1 -0 -1 -2 -2 -4 -4 -4 -4 -3 -1 1 5
2 2 3 3 4 5 5 5 4 4 4 4 3 3 3 2 2 1 1 1 1 1 -0 0 0 -1 -2 -3 -4 -5 -4 0 -6 -6 -7 -7 -6 -5 -4 -3 1 4 5
0 0 0 1 1 2 2 2 2 2 2 2 2 2 1 1 1 0 0 0 -1 -1 -2 -1 -2 -2 -2 -2 -3 -3 -3 -1 -3 -3 -6 -6 -4 -4 -2 2 3 4 4

GFSGL_sfc_temp_018.txt.gz
Temp
45 46 46 46 46 46 46 46 46 47 47 46 46 45 46 45 46 45 46 46 44 44 45 45 45 47 46 46 46 46 45 47 45 41 45 42 40 40 38 38 39 40 41
44 44 44 45 44 44 44 45 45 44 45 45 45 43 43 44 44 43 43 43 42 42 43 43 44 42 44 45 44 43 43 44 45 35 38 37 37 38 38 37 36 37 39
42 41 42 42 41 41 41 42 43 43 43 44 42 42 42 43 42 42 42 44 42 42 42 41 42 39 38 40 41 41 41 38 41 41 35 37 36 36 34 35 36 37 37
40 40 39 39 39 40 40 39 39 40 41 41 41 41 41 41 41 40 40 41 42 41 42 41 40 38 38 37 36 37 37 36 36 36 36 33 34 34 34 34 32 36 37
38 38 37 38 38 37 36 36 36 37 38 39 39 39 39 38 38 38 39 38 38 38 39 39 39 39 39 39 36 35 34 34 33 33 33 32 32 30 29 33 33 35 36
34 34 35 35 34 33 33 33 33 34 35 37 35 36 36 37 39 40 39 37 37 37 37 39 38 36 37 39 39 39 36 32 31 31 32 30 32 32 33 32 31 30 32
31 31 31 31 30 30 31 33 32 33 34 33 34 35 35 37 38 39 39 37 36 37 37 37 35 36 35 36 37 38 36 37 37 35 33 33 32 33 33 31 30 30 31
30 30 30 30 28 28 29 30 31 33 32 32 33 34 34 35 37 38 38 37 36 37 38 38 36 36 34 35 34 33 32 33 34 34 36 36 36 35 34 33 31 30 31
30 30 30 28 24 25 23 26 28 29 30 31 32 32 32 33 36 37 37 35 35 35 37 38 37 36 35 36 33 31 30 30 35 34 34 36 35 35 33 31 25 23 22
30 30 29 27 23 22 24 23 25 26 27 30 30 32 32 32 35 36 36 35 33 34 34 35 35 36 36 35 33 31 28 28 28 28 29 31 32 31 32 30 28 22 23
29 27 26 25 22 22 22 22 22 22 24 25 27 29 31 32 32 35 36 34 34 34 33 33 34 36 37 35 36 32 30 30 29 26 27 28 28 29 29 29 29 25 22
25 23 22 21 20 20 18 18 19 19 20 21 24 27 30 32 32 33 35 35 36 33 33 33 33 34 35 35 35 33 33 29 26 26 26 25 24 24 26 26 27 26 27
19 16 17 17 17 17 15 15 16 18 18 20 24 26 28 31 32 32 33 34 33 33 34 33 34 33 34 35 36 32 30 26 26 24 24 23 24 24 25 24 24 24 24
13 13 14 13 13 14 15 16 15 15 17 19 21 24 26 28 29 30 29 29 30 31 32 31 31 31 33 31 30 31 28 24 25 23 23 23 22 20 20 21 19 18 17
8 9 9 10 9 10 11 12 13 15 17 16 18 20 22 23 27 31 28 26 28 29 30 28 26 25 25 27 28 27 26 23 22 23 21 18 18 18 18 19 18 17 14
4 5 6 6 7 7 8 8 14 16 18 21 23 23 23 27 30 31 31 30 30 30 26 24 24 24 25 26 27 24 23 21 22 20 19 17 16 16 15 15 15 14 13
3 4 5 5 5 5 5 5 4 10 16 18 21 23 25 26 29 31 31 31 31 30 26 24 25 24 25 26 25 21 20 22 20 18 17 16 16 16 15 14 14 14 12
3 4 4 4 4 4 5 5 5 5 5 9 16 18 22 25 29 30 32 30 26 27 27 24 24 25 25 24 22 19 18 16 17 16 15 15 14 13 12 12 13 11 11
4 5 5 5 5 5 5 5 6 6 6 8 10 15 19 24 27 28 30 27 26 26 26 24 24 25 23 22 20 18 16 16 15 14 13 12 11 11 10 11 11 10 10
5 6 6 6 6 6 6 6 6 7 7 8 10 13 17 21 21 23 28 27 27 26 26 24 23 20 20 19 18 16 14 13 12 11 9 9 8 9 8 8 9 9 9
5 6 6 6 6 6 7 7 7 7 8 9 12 16 22 20 21 22 26 27 26 27 22 20 19 18 17 15 14 13 12 10 9 8 7 7 7 6 9 9 9 8 8
6 6 6 6 7 8 9 11 12 11 11 11 14 19 22 20 21 22 21 19 19 20 19 18 15 13 12 12 11 11 9 7 7 7 7 6 6 7 7 7 7 8 8
5 5 6 7 8 9 11 12 12 13 15 15 15 14 14 13 12 11 11 11 12 11 11 10 9 8 9 10 11 11 9 7 7 7 6 5 5 6 6 6 6 5 6
4 4 5 5 6 6 7 7 7 8 8 7 7 7 6 6 6 6 7 7 8 8 9 8 7 6 6 7 8 8 8 7 7 7 7 6 5 5 5 5 5 5 6
2 2 3 3 3 3 4 5 5 6 5 5 5 5 5 4 4 4 4 5 5 6 5 6 6 5 5 5 4 4 7 5 4 4 3 4 4 4 3 4 5 6 7
0 1 1 2 2 2 2 2 2 3 3 3 3 3 3 3 3 3 4 3 3 3 3 3 4 3 3 3 2 1 3 3 -0 1 1 2 2 3 3 3 3 5 7

GFSGL_sfc_temp_021.txt.gz
Temp
45 45 45 45 45 45 44 45 44 44 45 45 45 44 45 45 46 45 45 45 44 44 46 46 46 47 46 46 44 44 42 43 41 39 43 42 40 39 37 37 38 37 38
43 43 43 43 43 42 42 42 41 42 43 43 43 42 42 43 44 43 43 42 42 42 43 43 44 44 44 45 44 42 41 42 40 34 38 37 37 38 36 34 34 37 37
42 42 42 40 39 38 39 40 39 39 39 40 40 41 41 41 42 42 42 42 42 43 43 43 43 43 41 43 43 42 41 37 40 36 33 35 35 37 35 35 35 34 36
41 40 39 38 38 38 37 36 37 38 38 38 38 38 39 40 40 40 40 41 41 42 43 43 43 43 42 41 40 40 39 37 38 36 33 34 33 34 34 32 30 33 33
39 37 37 37 37 35 34 33 35 35 36 36 36 36 37 37 37 38 38 38 38 39 41 41 42 42 42 42 40 39 37 37 36 35 33 32 32 29 29 32 31 32 33
36 33 34 33 32 32 31 31 33 33 34 34 34 34 34 35 38 39 39 37 37 37 37 39 39 38 39 41 42 43 40 37 35 35 35 33 32 32 32 31 31 30 27
33 31 31 31 30 30 30 30 30 31 32 32 33 34 34 35 38 38 38 36 36 36 36 37 37 38 37 38 40 41 42 43 43 39 37 36 34 34 32 32 31 31 31
32 31 31 31 30 30 28 27 28 29 29 29 31 32 32 34 37 38 37 36 35 36 37 36 36 37 37 36 36 36 37 36 40 41 40 40 39 37 36 35 33 32 31
32 32 32 31 28 27 24 24 26 26 26 26 27 28 28 30 35 36 36 34 34 34 36 37 37 37 39 39 34 34 32 35 38 41 41 41 40 39 37 31 27 26 24
30 30 30 29 26 25 25 23 24 24 24 26 25 26 26 27 33 35 35 33 32 33 34 35 35 36 38 39 34 33 31 32 32 33 34 37 37 37 37 34 30 26 24
27 26 26 26 24 24 23 23 21 20 21 20 21 22 24 26 29 34 35 33 32 32 33 33 35 37 38 39 38 33 33 34 33 31 30 31 30 31 31 30 30 30 25
21 20 20 19 19 20 18 18 18 17 16 16 17 19 23 26 30 33 34 36 35 32 32 34 35 37 37 37 37 35 36 36 31 29 26 27 26 26 27 28 29 28 29
14 12 12 13 13 14 13 13 13 14 14 14 15 16 19 25 28 33 35 35 36 32 33 34 36 37 35 36 37 37 34 33 27 26 24 26 27 28 28 26 26 25 25
7 7 8 8 8 9 11 11 10 10 10 11 12 13 16 19 23 28 29 30 31 31 32 33 33 33 33 32 32 34 31 30 27 26 25 28 28 24 21 22 19 20 18
5 6 6 7 6 7 8 8 8 10 10 8 9 11 11 12 17 23 25 27 27 28 28 28 29 29 29 27 28 28 30 29 26 27 26 25 22 21 19 20 19 17 15
3 4 5 5 6 6 6 6 12 14 16 17 18 17 15 19 22 24 25 27 29 31 27 25 26 27 26 25 26 26 27 28 26 26 24 21 19 19 17 18 17 16 14
2 3 4 4 5 5 5 4 3 8 14 15 16 17 19 19 21 23 24 26 27 29 26 26 26 26 25 26 26 26 26 24 25 23 21 19 18 18 16 15 15 15 14
3 3 3 4 5 5 5 5 5 4 3 5 12 14 16 18 20 21 23 24 23 26 27 26 26 25 25 25 26 26 24 22 21 20 19 18 17 16 15 14 14 13 13
3 3 4 5 6 7 7 6 6 6 6 6 8 12 14 16 19 21 23 20 22 24 26 26 27 26 25 26 24 22 22 20 20 18 17 16 16 15 14 14 13 13 12
4 4 5 5 6 7 7 7 7 7 7 7 7 9 11 12 13 16 20 21 21 23 26 26 26 26 26 23 21 20 18 18 17 16 15 15 14 14 12 12 11 10 10
4 5 6 6 6 6 7 7 9 10 10 10 10 12 17 16 17 19 20 21 23 26 26 25 24 23 22 21 18 18 17 15 14 13 11 11 12 10 11 12 11 10 9
4 4 5 4 6 7 8 9 9 9 9 10 12 14 18 15 15 16 17 17 21 22 22 21 21 20 19 17 16 15 13 11 11 10 10 9 10 10 10 10 9 8 8
3 3 4 5 6 6 7 7 7 7 7 8 8 7 8 8 8 8 9 10 11 11 13 14 13 12 14 14 15 13 11 10 10 10 9 8 8 8 8 7 8 7 7
2 2 2 3 4 4 5 5 5 5 5 5 5 5 5 5 5 6 6 7 8 8 9 9 9 10 10 11 12 12 11 11 11 10 9 8 7 7 7 7 7 7 7
1 1 1 1 1 2 3 3 4 3 3 4 4 4 4 4 4 4 5 5 5 6 6 6 7 7 6 7 6 8 10 10 9 9 9 8 7 6 6 6 6 6 6
1 1 -0 0 0 0 1 1 2 3 2 3 3 3 3 3 3 3 4 4 4 3 3 4 4 4 4 4 4 6 7 8 5 6 6 6 5 4 4 5 4 4 4

GFSGL_sfc_temp_027.txt.gz
Temp
36 36 36 35 35 34 35 34 33 32 34 34 33 32 33 33 33 33 33 33 33 33 34 34 35 36 39 40 34 37 37 34 42 41 32 31 35 37 35 37 35 36 37
37 36 36 36 35 34 32 34 32 32 32 33 33 32 31 31 31 31 32 33 32 32 34 33 34 37 34 37 36 38 38 35 40 40 29 29 31 36 36 33 34 37 34
34 34 34 33 31 31 32 32 32 30 29 30 30 30 31 31 31 31 31 32 33 33 34 34 34 34 34 36 37 37 39 40 36 40 36 27 30 32 29 30 32 32 33
33 32 30 29 30 30 30 29 29 29 28 28 30 30 31 30 31 31 32 31 30 32 33 34 34 34 34 35 35 35 37 36 35 34 37 27 28 29 33 30 28 30 32
32 31 30 29 29 28 27 27 28 27 28 28 29 29 29 30 31 30 31 30 30 31 32 32 33 35 36 37 36 36 35 35 36 35 36 27 27 27 30 31 31 31 31
30 28 29 28 30 29 29 30 29 28 27 27 27 27 26 30 34 35 35 32 32 32 31 32 33 31 34 38 40 41 40 35 34 35 36 35 35 35 33 32 32 28 25
23 24 26 27 27 27 27 27 27 27 28 27 26 26 26 26 32 33 33 31 31 31 31 32 32 34 32 33 36 39 40 41 42 38 36 37 37 36 33 33 32 33 34
24 22 22 24 23 24 24 24 24 25 25 25 25 25 25 26 30 31 31 29 28 29 30 31 31 32 33 32 32 32 34 36 37 38 40 40 42 37 37 37 34 35 32
24 23 21 20 18 19 17 18 19 19 20 20 22 21 21 22 27 28 28 24 24 25 28 29 29 31 34 36 33 30 31 33 38 39 41 42 44 44 38 35 32 29 28
21 20 20 18 14 13 14 13 14 14 15 17 16 17 17 16 22 24 24 21 19 21 23 26 28 30 33 35 32 31 29 31 32 32 34 38 39 37 40 37 35 30 32
16 16 14 13 10 10 9 10 9 9 10 9 10 11 12 14 15 20 22 20 19 18 19 21 25 30 32 34 36 32 31 34 33 32 32 33 34 33 34 35 37 36 34
11 10 8 7 7 8 5 6 5 5 4 5 5 6 10 12 16 18 20 21 22 17 16 20 23 28 31 33 34 36 37 37 34 32 30 31 31 31 33 33 34 37 39
2 1 3 4 5 5 3 3 3 4 4 4 5 5 6 10 11 16 18 19 20 17 18 20 23 25 26 28 31 35 35 34 33 31 29 30 31 33 34 33 32 33 31
-6 1 4 4 4 4 5 5 3 3 3 3 4 4 6 8 10 12 12 11 15 16 18 16 18 22 24 24 26 30 32 32 31 31 31 31 33 31 30 30 29 27 26
1 3 3 4 2 3 4 3 4 7 8 7 9 10 10 10 13 19 19 18 17 18 16 13 13 16 17 19 23 25 25 28 29 31 31 30 29 28 27 27 27 24 24
0 3 3 3 3 3 3 3 10 13 15 17 18 17 15 19 21 22 23 23 24 24 18 15 15 15 16 17 19 21 24 25 28 30 30 29 27 26 26 26 26 24 23
-1 2 2 3 2 1 1 1 0 6 14 15 17 18 19 19 21 22 23 24 24 24 16 14 14 14 16 18 18 21 22 26 28 29 29 29 27 26 25 24 24 23 22
-2 2 1 1 2 1 2 2 3 2 2 4 12 15 18 19 20 21 23 23 16 18 16 14 13 14 15 16 18 20 23 26 26 27 28 28 26 26 24 22 22 21 21
-0 1 1 1 2 2 2 2 3 4 4 4 7 11 11 15 18 18 17 11 10 11 13 15 15 14 15 17 18 20 23 24 25 25 27 26 25 23 22 22 21 21 20
-1 1 2 0 0 0 1 1 2 3 3 4 3 4 6 10 4 5 7 7 7 8 9 9 11 17 17 20 19 21 24 24 24 25 25 23 23 23 21 20 19 18 18
-1 -1 -2 -2 -3 -2 -1 -0 1 2 2 2 2 5 14 5 3 3 4 5 5 6 7 9 14 18 19 22 25 24 23 23 23 23 21 20 20 19 20 19 18 18 16
-5 -5 -4 -6 -3 -3 -3 -1 -0 1 1 1 2 4 11 4 3 3 3 3 4 6 7 7 10 12 13 15 18 19 20 19 18 18 18 18 18 16 16 16 15 14 14
-6 -7 -7 -7 -5 -4 -4 -4 -2 -0 1 1 2 2 2 2 2 2 2 3 3 4 5 5 6 7 10 12 13 14 13 13 14 16 15 14 14 14 14 13 12 12 12
-11 -11 -11 -11 -9 -6 -7 -5 -4 -2 -2 -1 -0 -0 1 1 1 2 3 3 3 4 4 5 6 6 7 9 11 11 12 13 13 14 14 13 12 13 12 11 11 11 11
-16 -15 -15 -15 -14 -10 -9 -9 -6 -5 -4 -2 -2 -2 -1 -1 -0 1 2 3 3 3 4 5 5 7 7 8 9 10 12 12 12 13 12 12 11 11 10 10 9 10 10
-14 -14 -16 -17 -16 -15 -14 -11 -9 -8 -8 -6 -5 -5 -4 -4 -2 -1 0 2 2 3 3 4 5 5 8 10 11 12 12 13 11 11 11 10 9 9 9 9 9 8 8

GFSGL_sfc_temp_030.txt.gz
Temp
34 34 34 33 33 33 32 32 30 30 30 30 30 30 31 32 31 32 33 32 31 31 32 31 32 34 36 34 32 35 38 39 36 41 34 33 32 35 36 37 38 37 40
35 34 34 33 31 30 30 30 31 30 31 29 30 30 30 30 30 30 30 31 31 31 32 31 31 35 32 33 34 34 33 35 37 36 40 30 31 32 36 34 35 37 37
33 32 31 31 30 29 30 30 30 29 29 28 28 28 29 30 30 30 30 30 30 30 30 31 31 31 32 33 33 34 34 36 34 34 35 31 29 29 29 30 32 32 35
32 31 29 29 29 29 29 28 27 27 28 27 27 28 29 29 30 30 30 29 30 31 31 31 32 31 31 31 32 33 34 33 34 33 34 35 28 29 31 32 28 30 32
31 30 30 29 28 27 26 25 26 26 27 27 27 27 27 28 29 29 30 29 29 30 31 32 32 32 34 35 33 32 32 32 33 32 32 33 29 26 29 30 33 32 31
28 26 28 26 26 26 25 26 26 27 26 26 26 26 26 28 31 32 32 29 29 29 28 30 31 31 33 35 37 39 37 32 31 32 33 33 34 32 34 33 31 30 29
22 20 21 22 22 22 22 23 23 22 23 22 23 23 23 25 29 30 31 29 27 26 27 28 29 31 31 32 34 36 37 39 40 35 32 33 34 36 35 32 32 34 35
20 18 18 20 18 19 19 18 18 18 18 18 18 19 19 21 25 26 26 25 24 25 25 25 25 26 28 29 30 30 31 32 33 35 36 37 38 38 37 36 35 33 36
21 20 18 16 13 15 12 13 14 13 13 12 14 14 13 14 20 21 22 19 20 20 23 23 23 23 27 29 27 25 27 30 36 38 39 40 41 41 41 36 31 30 29
18 18 17 14 7 9 10 9 10 9 11 12 11 11 11 9 16 18 20 17 15 16 18 22 23 24 27 28 25 24 23 26 30 31 32 35 38 38 40 39 33 30 30
14 13 11 11 8 8 7 8 7 6 8 5 6 7 8 9 10 17 20 18 16 15 15 17 20 23 25 26 27 24 24 28 30 31 31 31 31 32 33 37 35 32 31
9 7 6 3 4 7 3 4 4 3 2 3 3 5 8 10 13 16 19 21 21 16 14 17 17 22 23 25 25 26 28 29 27 28 29 29 30 30 32 35 36 34 36
0 -3 -2 1 4 4 1 2 2 2 2 2 4 4 5 9 10 16 19 20 21 17 17 19 23 25 26 25 25 25 24 20 23 23 27 29 30 33 33 32 34 35 33
-10 -3 1 0 2 2 4 5 2 1 1 3 3 4 6 10 12 15 15 15 18 18 18 17 18 21 23 23 21 22 21 20 19 21 26 30 32 30 31 33 31 32 30
-4 0 1 1 -2 2 3 3 4 6 7 7 10 11 10 10 13 19 20 18 19 20 21 20 18 13 10 11 13 16 19 20 17 23 25 29 30 29 29 31 30 30 27
-2 1 1 2 2 3 2 2 10 13 15 17 19 17 15 19 21 22 23 23 24 25 20 18 17 17 16 16 15 15 17 18 20 24 25 25 25 28 28 28 29 28 25
-9 -2 0 2 1 1 1 0 -1 5 13 14 16 17 18 19 20 20 21 22 22 21 14 13 13 15 16 16 15 15 15 19 21 22 23 24 25 27 27 27 25 26 24
-10 -3 -2 -1 -1 0 -0 0 1 -1 -0 2 10 13 15 16 18 19 18 15 5 8 8 9 10 11 13 15 15 15 16 18 20 21 23 23 26 28 26 26 25 24 24
-8 -5 -6 -2 0 1 -0 -0 0 1 1 1 3 7 8 13 16 14 13 4 3 3 5 6 7 8 9 10 15 15 14 15 17 18 21 23 25 27 26 26 26 24 23
-12 -4 -2 -7 -2 -3 -2 -2 -1 -1 -1 -0 0 2 3 8 1 2 2 2 2 3 4 4 6 7 10 13 16 17 17 17 17 19 21 24 25 25 25 24 23 22 22
-12 -9 -5 -7 -6 -6 -5 -4 -3 -3 -2 -1 -0 3 14 3 1 1 2 2 2 1 2 3 4 6 8 10 12 16 20 19 20 21 23 25 23 23 25 23 22 22 21
-14 -15 -14 -10 -7 -7 -8 -5 -5 -5 -3 -3 -1 1 9 1 1 1 2 2 3 4 4 3 4 6 7 8 9 10 12 14 16 18 19 19 19 19 20 19 19 18 17
-13 -14 -10 -7 -9 -9 -10 -12 -11 -8 -6 -5 -4 -2 -2 -2 -1 -0 0 2 3 4 5 5 5 6 8 9 10 11 10 10 12 15 14 15 15 15 16 15 15 14 14
-15 -12 -7 -6 -12 -13 -13 -13 -12 -9 -9 -8 -10 -7 -5 -4 -4 -3 -1 1 3 4 4 5 5 6 7 9 10 10 12 13 13 13 14 13 12 13 13 13 13 13 13
-12 -7 -6 -8 -18 -16 -16 -17 -14 -16 -15 -12 -10 -10 -8 -7 -6 -5 -4 -2 0 2 3 4 5 6 7 10 11 10 11 11 11 13 13 12 11 11 11 11 11 11 11
-5 -6 -7 -12 -13 -17 -20 -20 -18 -16 -15 -12 -11 -11 -10 -8 -7 -6 -5 -4 -2 -1 2 3 4 4 6 10 12 16 15 14 11 11 11 11 10 10 10 10 9 9 9

GFSGL_sfc_temp_033.txt.gz
Temp
32 31 31 30 30 30 29 29 29 30 29 29 29 28 28 28 28 27 28 29 30 30 31 30 31 33 34 34 32 32 33 32 32 36 36 36 34 34 36 35 37 37 39
32 32 32 31 30 30 29 29 28 28 28 28 28 29 28 28 27 27 27 27 26 28 29 29 30 33 30 32 33 32 33 33 32 31 36 36 32 34 34 35 35 37 37
32 31 31 31 29 29 29 29 28 28 27 27 27 27 27 28 27 28 27 28 27 27 28 28 29 29 29 30 31 31 32 34 32 31 32 35 33 30 31 33 35 33 34
31 30 29 28 28 28 28 27 26 26 25 26 26 27 27 27 28 28 29 27 27 28 29 29 29 28 28 29 30 30 31 31 31 30 31 32 33 32 31 31 30 31 33
29 29 28 28 28 26 25 23 24 24 25 26 25 25 25 26 28 28 29 27 27 27 28 29 29 29 32 33 31 30 30 29 29 29 30 30 31 27 29 32 32 35 32
28 26 27 23 23 22 21 22 22 22 21 21 21 21 21 25 27 28 28 26 27 27 26 27 28 27 29 32 34 35 34 29 28 29 29 29 31 31 32 33 32 31 29
21 18 18 20 19 19 19 19 18 18 18 17 18 18 17 18 23 25 26 24 23 22 23 24 26 28 27 27 29 31 31 33 34 32 30 31 31 33 32 32 33 33 33
19 17 17 18 15 16 15 14 15 15 14 14 14 14 14 16 20 21 22 21 20 20 21 21 22 22 24 24 24 23 25 26 28 30 30 31 33 35 34 35 34 34 35
20 18 17 14 11 12 8 10 11 11 10 9 12 10 9 10 16 19 19 17 17 17 19 20 20 20 23 25 23 19 20 23 29 31 33 35 37 38 38 34 31 29 29
19 18 16 13 6 6 9 8 9 7 10 10 9 9 8 7 13 17 19 16 13 15 17 19 21 22 24 26 22 19 17 20 23 23 25 29 32 33 37 36 34 31 31
15 13 11 10 5 5 5 6 5 4 7 4 5 6 6 8 9 16 19 17 15 14 14 16 19 22 24 25 26 21 19 22 22 22 23 24 27 29 31 33 35 34 33
10 8 5 0 2 5 -4 0 -1 0 0 1 2 3 7 9 13 16 19 21 22 17 15 17 18 22 24 25 25 25 27 26 22 19 18 20 22 25 30 32 32 34 36
4 0 -5 -1 2 2 -4 0 -0 -1 -1 1 2 3 5 9 10 16 19 21 22 20 20 21 25 26 27 27 26 26 24 20 17 15 15 17 20 25 27 31 32 32 33
0 -1 -0 -2 -2 -2 3 4 -0 -1 -0 2 2 3 6 10 13 15 15 15 18 19 20 19 20 23 25 25 21 22 21 20 18 17 17 19 21 21 23 26 29 29 29
-1 2 1 -1 -4 -1 1 2 3 5 7 7 10 11 11 10 13 20 21 19 19 21 21 19 17 18 18 18 14 14 15 15 14 15 16 17 18 18 20 24 28 29 27
0 2 -0 -0 -0 2 1 1 9 13 16 17 19 17 15 19 21 22 22 23 23 22 14 8 8 9 11 12 13 14 17 17 16 16 16 17 17 18 19 23 28 28 27
-5 -2 -2 0 -1 -2 -2 -2 -3 4 12 13 15 16 17 18 19 21 21 20 16 14 1 3 4 6 7 9 9 10 11 16 18 16 17 17 19 19 24 26 27 26 25
-5 -3 -6 -4 -5 -6 -5 -3 -3 -3 -3 -0 8 11 15 16 18 18 17 10 0 3 1 1 2 4 5 6 7 9 11 13 16 16 16 18 19 19 22 22 22 23 25
-7 -7 -6 -7 -6 -4 -5 -3 -3 -3 -3 -2 0 5 6 11 15 13 12 -3 -1 -1 0 0 2 2 3 5 7 9 11 14 16 15 14 16 17 19 20 23 25 25 25
-12 -6 -5 -9 -10 -10 -6 -7 -5 -4 -4 -4 -3 -2 1 5 -1 -1 -0 0 0 0 1 1 2 2 3 5 6 8 9 12 15 16 15 15 17 19 21 22 24 25 24
-11 -12 -6 -6 -9 -15 -12 -10 -6 -7 -6 -6 -4 -0 12 -0 -3 -3 -2 -1 0 1 2 3 3 4 4 6 7 8 9 10 12 14 18 18 19 20 23 24 23 23 23
-9 -8 -15 -16 -14 -12 -13 -9 -7 -9 -9 -8 -5 -3 7 -4 -5 -4 -3 -2 -0 1 3 3 4 5 6 7 8 8 8 9 11 12 13 14 16 18 20 21 21 21 21
-10 -14 -17 -17 -15 -12 -13 -9 -9 -13 -13 -12 -9 -7 -7 -7 -7 -7 -6 -5 -3 -1 2 4 4 5 6 8 11 10 9 9 11 11 12 12 12 10 9 12 14 15 15
-16 -15 -14 -15 -15 -13 -9 -8 -10 -11 -12 -12 -16 -14 -10 -9 -10 -9 -7 -6 -5 -3 -1 2 4 4 4 6 10 13 12 12 11 11 11 11 11 12 12 12 12 12 13
-21 -18 -15 -14 -15 -10 -9 -10 -11 -18 -17 -16 -15 -17 -14 -12 -10 -9 -8 -7 -6 -6 -4 -2 2 3 3 4 8 12 15 12 11 11 11 10 10 10 10 10 11 11 12
-10 -11 -12 -13 -10 -8 -10 -12 -14 -16 -17 -16 -16 -16 -15 -13 -11 -10 -10 -9 -8 -8 -7 -4 -2 -1 1 4 6 14 15 18 11 11 10 10 9 9 9 9 9 9 9

GFSGL_sfc_temp_039.txt.gz
Temp
33 33 33 32 32 33 32 32 32 32 31 31 31 31 30 30 30 30 29 30 29 29 30 30 30 31 32 33 33 33 33 33 30 34 39 40 39 40 41 42 41 42 44
33 33 33 33 33 32 31 31 31 30 30 30 29 29 29 29 28 28 28 28 28 28 29 29 29 31 29 31 31 30 31 32 30 27 33 35 36 39 39 39 40 41 40
33 32 32 32 31 31 30 30 29 28 28 28 27 26 26 26 26 27 28 28 27 27 27 27 27 28 27 29 29 29 30 31 31 29 28 33 34 36 36 38 38 39 40
32 32 32 31 31 30 29 27 27 26 25 25 25 24 24 24 26 27 26 26 26 26 26 26 26 26 26 26 27 27 28 27 28 28 28 29 32 34 35 33 34 38 37
31 31 31 30 29 27 25 24 24 23 23 23 22 21 22 23 25 25 26 25 23 23 24 24 25 25 25 26 26 26 26 25 26 25 26 28 29 29 30 33 33 35 37
30 30 30 27 24 23 22 22 21 21 20 20 19 18 18 21 23 26 26 23 22 21 21 22 23 22 24 25 25 26 27 23 21 22 24 24 25 27 29 29 30 29 28
26 23 23 22 22 20 20 19 19 17 17 16 16 16 16 17 22 24 24 22 21 20 20 20 20 22 21 22 23 24 25 25 27 25 22 23 23 26 27 26 27 27 27
24 22 20 20 18 17 16 16 16 15 14 14 14 14 15 16 20 22 23 21 20 20 20 20 19 20 21 22 22 21 22 24 25 26 24 25 26 27 27 27 26 26 29
24 22 20 18 15 15 12 13 13 12 12 11 14 11 10 11 17 21 21 19 18 18 20 20 20 20 22 24 22 20 21 22 27 28 29 30 31 31 31 28 23 22 20
23 23 19 16 11 10 12 10 11 9 12 12 10 10 9 8 14 18 20 19 16 18 19 20 22 24 26 27 23 20 18 20 22 22 24 26 27 27 29 28 25 20 20
19 17 15 14 10 10 8 9 7 6 8 4 6 7 7 9 10 17 21 20 19 18 19 20 22 25 26 28 28 24 22 25 24 23 23 23 24 24 25 26 27 25 21
16 14 11 7 11 8 2 4 3 2 1 1 2 4 8 10 14 18 21 24 25 20 19 21 22 25 26 27 26 26 27 27 23 22 21 21 22 23 25 26 26 27 27
11 8 5 5 6 4 1 4 4 2 1 2 5 5 7 11 12 17 21 22 24 22 23 24 24 23 22 20 20 22 20 18 17 16 17 20 22 24 25 24 25 25 25
6 5 4 3 5 3 7 7 4 4 3 3 3 4 6 9 13 16 16 18 21 22 20 15 16 15 15 15 13 15 14 15 14 14 15 18 20 19 19 21 19 20 19
5 6 6 5 4 6 7 7 7 8 5 -1 1 4 6 11 13 21 23 21 20 19 10 7 5 5 6 7 8 9 10 11 10 11 12 12 14 16 16 19 18 18 15
5 6 5 5 5 6 5 5 11 15 17 19 21 20 15 19 21 23 24 24 22 19 4 -1 0 2 3 4 4 5 7 8 9 10 10 11 12 13 14 17 18 16 15
5 5 5 6 5 4 3 2 0 6 11 14 17 19 19 19 21 21 22 21 15 11 -1 -1 -1 0 1 3 4 5 5 7 9 9 10 10 12 13 14 15 16 16 15
-4 3 2 3 3 2 1 -0 -1 -2 -4 -1 6 11 13 17 17 19 18 10 -2 -1 -4 -3 -2 -0 1 2 4 4 5 6 8 9 9 10 11 12 13 15 16 15 16
-4 -2 0 1 0 -0 0 -1 -2 -3 -3 -5 -3 2 5 10 13 13 11 -3 -7 -4 -3 -2 -1 0 1 3 4 5 5 6 7 8 9 9 11 12 12 15 16 15 15
-6 -1 -1 -2 -2 -3 -2 -3 -2 -4 -5 -6 -5 -4 -4 -4 -5 -6 -6 -8 -8 -6 -4 -3 -2 -1 1 2 3 4 5 6 7 9 10 10 11 11 12 13 15 16 16
-10 -9 -4 -8 -9 -8 -6 -5 -4 -6 -7 -7 -6 -2 7 5 -3 -4 -8 -8 -8 -7 -6 -5 -4 -2 -1 1 2 3 4 5 7 9 11 10 10 9 12 13 14 16 18
-14 -13 -15 -13 -9 -9 -9 -7 -7 -7 -7 -8 -5 -4 7 -1 -3 -5 -7 -8 -8 -8 -7 -6 -6 -4 -3 -1 1 2 2 3 6 8 11 9 9 10 11 12 13 14 15
-16 -16 -14 -15 -13 -13 -12 -11 -10 -10 -9 -10 -8 -6 -5 -5 -6 -9 -9 -9 -9 -9 -7 -8 -7 -6 -4 -3 -1 0 1 3 6 8 9 9 8 9 10 11 12 12 14
-12 -11 -10 -11 -14 -14 -14 -13 -13 -11 -11 -9 -10 -9 -6 -6 -10 -11 -11 -10 -10 -10 -9 -9 -8 -8 -7 -5 -3 -2 -0 2 6 11 10 8 8 9 9 9 10 11 12
-20 -14 -10 -9 -12 -13 -14 -14 -12 -10 -10 -9 -7 -6 -7 -9 -12 -13 -13 -13 -13 -11 -10 -10 -9 -8 -8 -8 -7 -6 -3 2 9 11 8 7 7 6 7 8 8 9 10
-15 -14 -11 -8 -9 -10 -10 -9 -7 -6 -6 -5 -6 -7 -9 -12 -12 -13 -14 -15 -13 -12 -12 -10 -10 -11 -10 -7 -5 -2 3 10 15 9 7 6 5 6 7 6 6 7 7

GFSGL_sfc_temp_045.txt.gz
Temp
46 45 45 45 45 45 44 43 42 42 41 40 40 39 38 37 37 37 36 36 34 34 36 35 34 36 35 35 35 35 34 33 28 31 35 37 36 36 38 39 40 39 40
45 44 44 44 43 43 42 42 41 40 40 39 38 37 36 36 35 34 34 34 33 33 33 33 32 34 31 32 32 31 31 31 28 25 29 30 32 34 35 34 37 41 39
45 43 43 42 42 42 41 41 40 39 38 36 36 35 34 33 33 34 33 33 33 33 32 31 31 30 28 29 29 28 28 29 28 26 25 29 29 31 31 33 34 35 39
44 43 42 41 42 42 41 40 38 38 36 35 34 33 32 32 32 32 31 31 32 32 32 31 30 29 28 26 25 25 26 24 24 23 23 24 26 28 29 27 28 31 31
43 42 42 42 42 41 38 36 35 34 35 34 32 31 31 30 31 29 30 30 29 29 30 30 30 29 28 27 26 24 24 22 21 20 21 22 23 23 24 26 25 26 28
42 40 42 40 38 35 33 32 31 31 30 29 28 28 28 30 30 27 28 27 28 28 27 28 28 28 28 28 28 28 27 22 20 19 20 20 22 24 25 24 24 22 20
37 36 36 36 33 32 31 30 29 29 29 28 27 27 26 27 28 27 27 26 26 27 26 26 26 28 26 26 27 28 28 28 29 26 22 23 23 25 25 24 24 23 22
35 34 34 33 31 30 29 28 28 29 27 26 26 26 25 26 27 26 26 25 26 26 26 25 25 25 26 26 25 24 25 26 27 27 26 26 26 27 26 26 24 23 25
34 34 32 32 30 29 26 26 27 26 25 24 24 21 21 21 25 24 24 24 24 24 26 26 26 25 27 29 26 23 23 25 30 30 31 32 32 32 31 27 23 21 19
34 34 34 32 30 27 27 25 26 25 24 24 22 22 19 18 22 24 24 23 21 23 24 27 28 28 29 30 25 22 19 20 22 22 23 25 27 28 30 28 25 19 19
33 32 31 31 28 28 26 25 23 21 22 19 19 19 19 18 18 23 24 22 22 22 23 24 26 28 28 28 27 21 19 23 21 18 18 20 21 23 25 26 28 25 21
30 28 27 25 26 24 22 21 20 19 17 16 16 17 20 19 20 22 24 25 25 22 21 24 25 27 26 26 23 23 24 21 15 14 14 15 17 19 21 23 23 24 25
25 24 22 21 22 21 18 18 17 16 17 18 18 18 20 22 20 23 24 25 25 23 24 25 27 24 24 21 21 21 18 15 13 11 11 13 17 18 20 19 20 21 22
23 21 19 18 19 17 19 20 18 19 17 18 19 19 20 20 20 21 20 21 23 23 25 20 20 21 20 19 16 17 16 15 13 12 13 14 16 14 14 17 15 17 16
22 20 20 19 17 17 18 19 19 21 22 19 19 19 17 17 20 23 22 20 22 23 20 15 13 13 12 13 13 13 14 13 12 13 11 10 12 13 13 15 15 14 12
21 20 21 21 18 19 19 18 23 24 24 24 24 19 17 21 23 24 26 26 27 22 14 11 10 10 10 10 10 10 11 11 12 11 10 11 10 10 11 12 13 12 12
22 21 21 19 20 18 18 17 17 21 23 24 24 25 25 25 25 26 26 25 25 16 9 9 8 8 8 9 9 9 8 10 10 10 10 9 10 10 10 10 11 12 11
17 14 19 18 19 18 17 17 16 14 13 15 20 19 20 21 22 24 24 24 14 12 7 5 6 6 6 7 7 7 7 8 8 8 7 8 8 9 9 10 11 10 10
15 15 15 16 15 13 14 14 13 12 11 10 11 13 14 17 19 21 22 16 11 7 6 5 5 5 5 5 5 5 5 5 6 5 7 7 8 8 9 10 10 10 10
9 6 7 11 11 10 10 10 9 9 9 8 8 8 10 4 3 6 9 8 6 5 5 4 3 3 3 2 2 3 3 3 4 5 5 6 7 8 8 9 9 9 9
9 8 3 7 7 8 7 7 7 7 6 6 7 9 13 5 4 6 7 7 6 4 3 3 2 2 1 1 -0 1 1 2 3 3 4 6 7 5 8 10 10 10 10
5 5 4 3 4 4 4 5 5 4 4 3 4 6 12 8 8 9 8 7 6 4 1 -1 -0 1 -0 -1 -2 -1 -1 -1 1 2 3 4 4 5 9 9 9 9 9
3 3 3 3 2 1 1 1 1 1 1 2 2 2 3 3 4 5 5 5 4 3 -0 -2 -1 -2 -1 -3 -1 -1 -2 -2 -0 2 1 1 2 5 8 7 7 7 7
3 2 2 2 2 1 0 0 1 -0 -0 -1 -1 0 1 2 3 3 3 3 2 1 -1 -3 -3 -5 -4 -6 -3 -2 -1 -0 0 0 1 1 2 8 7 6 6 6 7
2 2 1 1 -0 -0 -0 -0 -0 -0 -1 -1 -1 -1 1 1 1 2 2 2 -0 -2 -2 -3 -4 -5 -6 -7 -7 -7 -5 -1 -3 -1 -0 2 7 7 3 4 2 5 4
3 2 1 1 -0 -0 -1 -1 -0 -0 -1 0 1 1 2 2 2 2 1 -0 -2 -3 -4 -5 -5 -7 -7 -6 -6 -4 -3 2 2 4 8 11 8 -1 -2 -2 -1 0 1

GFSGL_sfc_temp_048.txt.gz
Temp
39 38 38 37 38 37 35 35 34 34 34 33 32 32 31 31 30 29 29 29 28 27 28 27 27 28 26 26 26 26 25 24 21 25 28 29 28 28 30 32 33 33 35
38 37 37 37 36 35 34 34 33 32 32 32 31 31 30 30 29 29 28 28 27 27 27 27 26 30 24 25 24 23 23 23 21 20 24 25 24 26 27 27 31 34 32
37 36 35 34 34 33 33 32 32 31 30 30 30 29 29 29 28 28 28 27 26 26 26 26 25 25 24 23 22 21 21 25 21 21 20 23 24 25 25 26 27 28 32
36 35 33 33 33 33 32 31 31 31 29 28 29 29 28 28 28 29 28 26 26 27 27 26 25 25 24 22 23 22 23 21 21 20 20 21 22 25 24 23 23 26 26
37 35 34 33 33 32 31 30 30 29 29 29 28 27 27 27 29 27 28 26 25 25 26 27 27 26 29 28 26 22 22 18 19 19 19 20 21 22 22 24 23 24 25
36 34 33 33 32 31 29 28 28 28 27 27 26 25 24 28 32 30 28 25 26 26 25 25 26 25 27 29 29 30 28 22 18 17 20 20 22 23 24 24 23 21 18
33 31 32 32 33 29 28 27 26 25 25 24 24 24 23 24 31 30 29 26 25 24 25 26 26 27 24 25 27 28 28 28 30 27 22 22 22 23 24 23 23 22 21
33 32 31 32 30 27 26 26 24 24 23 22 22 22 22 24 30 30 29 25 23 24 24 24 24 24 24 25 24 23 25 25 26 27 26 25 26 28 27 26 24 24 25
33 32 32 31 29 27 26 24 25 23 21 20 20 18 18 18 29 29 28 22 22 22 25 25 24 24 26 29 26 18 21 22 27 28 28 29 29 29 28 23 18 18 17
33 33 32 31 29 27 26 23 22 19 22 22 20 17 17 14 25 28 27 21 14 20 21 25 27 27 29 30 25 17 16 18 20 20 18 20 22 22 25 24 21 17 17
30 29 28 28 28 27 24 20 20 18 20 16 17 16 15 16 16 26 27 23 19 17 18 20 23 28 29 30 29 21 17 23 14 11 13 14 16 17 19 21 23 19 15
27 27 26 27 26 24 22 15 16 17 14 12 12 12 16 17 20 23 26 28 26 19 16 21 21 27 29 27 26 25 26 22 8 8 9 10 12 14 17 18 19 20 21
25 24 21 20 20 20 18 15 13 13 14 13 14 13 14 18 17 25 26 27 28 24 22 23 27 28 26 22 22 23 18 8 5 1 7 10 14 15 17 16 17 18 18
21 19 17 17 15 13 16 16 15 13 13 14 14 14 11 14 15 16 17 18 22 23 24 20 20 23 24 20 14 16 14 11 10 9 10 13 13 12 12 14 12 13 12
18 16 15 13 14 11 13 15 16 13 16 9 11 10 8 11 14 20 17 11 11 17 18 11 6 6 5 6 6 6 8 8 7 8 8 8 9 11 10 12 12 11 9
15 15 14 13 11 12 11 9 23 24 25 27 28 17 9 21 24 26 27 27 27 27 18 1 0 2 5 5 4 5 5 6 7 8 7 7 8 8 8 9 11 9 9
13 14 13 13 11 10 8 8 6 15 26 27 27 27 27 26 26 27 27 27 28 27 6 -2 0 2 4 5 4 3 5 7 7 7 6 6 6 6 7 7 8 10 8
7 10 10 7 7 6 6 7 6 5 6 8 17 21 22 23 24 25 25 25 19 18 -3 -2 3 1 2 2 1 0 1 5 4 4 4 3 4 5 5 6 7 7 7
7 5 6 6 5 5 6 6 6 6 1 -2 -1 9 12 18 20 21 22 17 15 14 6 1 1 1 1 -1 -4 -6 -5 1 -2 -1 0 1 3 4 4 6 6 7 8
1 4 3 1 -0 2 3 0 -0 -1 -2 -3 -1 1 2 -2 -6 -7 -1 3 2 2 -1 1 -1 -2 -3 -2 -8 -10 -4 -6 -6 -8 -6 -1 2 4 4 4 4 7 7
-0 -3 -0 -4 -5 -4 -5 -4 -3 -4 -4 -4 -1 3 13 9 6 -2 -4 -3 0 -5 -3 -1 -2 -4 -2 -4 -11 -11 -6 -6 -9 -10 -9 -1 1 1 1 3 6 7 6
-0 -4 -7 -10 -5 -6 -7 -4 -5 -6 -6 -7 -5 -3 10 3 -1 1 4 6 5 1 2 2 -2 -3 -2 -3 -8 -7 -9 -10 -10 -13 -8 -2 -2 -2 -0 2 6 5 5
-1 -6 -8 -9 -6 -4 -7 -9 -10 -11 -9 -10 -9 -6 -10 -9 -8 -7 -1 1 0 -0 1 0 -2 -2 -1 -3 -7 -6 -8 -7 -9 -15 -7 -4 -4 -3 -2 2 4 3 4
-5 -8 -6 -6 -6 -7 -10 -12 -10 -8 -12 -12 -15 -12 -8 -8 -11 -7 -2 -1 -2 -2 -0 -0 -1 -2 -1 -5 -8 -11 -11 -7 -14 -9 -7 -3 -3 -2 -1 4 -0 0 1
-6 -5 -4 -5 -8 -11 -13 -14 -12 -16 -16 -12 -10 -10 -10 -9 -8 -10 -6 0 1 -0 -1 -1 -1 -2 -3 -5 -9 -13 -12 -3 -6 -9 -11 -5 -4 -4 -0 -1 -7 -5 -5
-3 -2 -5 -7 -8 -13 -15 -14 -14 -13 -13 -10 -9 -9 -9 -5 -3 -1 -3 -2 -1 -1 -2 -2 -3 -4 -4 -7 -10 -9 -8 -2 -4 -5 -5 -4 -1 5 1 -7 -8 -9 -7

GFSGL_sfc_temp_051.txt.gz
Temp
39 37 37 36 37 36 35 34 33 32 32 31 31 30 30 29 29 28 27 27 27 27 26 26 27 27 25 24 24 25 24 23 19 23 24 26 25 24 26 27 28 28 29
38 37 36 36 35 34 34 33 31 31 31 30 30 30 29 29 28 28 28 27 26 27 27 26 25 29 24 24 23 22 22 22 20 19 23 23 22 24 24 24 28 30 28
37 36 35 34 33 33 32 31 31 30 29 29 29 29 28 28 28 28 27 27 26 26 26 26 25 25 24 23 21 20 21 24 20 20 19 23 23 24 24 25 26 26 30
36 35 34 33 33 32 32 31 30 29 28 28 28 28 28 28 28 28 28 26 26 26 26 26 25 24 23 22 22 22 23 21 21 20 20 21 22 25 24 23 23 26 26
37 35 34 33 32 32 31 30 29 29 28 28 27 27 27 27 28 27 28 26 25 25 25 27 26 26 29 28 25 22 21 19 19 19 19 20 21 23 22 24 23 24 25
37 35 34 33 33 31 30 30 29 28 27 26 26 25 24 28 32 34 29 25 26 26 24 25 26 24 27 30 31 31 29 19 11 9 20 21 22 22 23 23 22 20 19
35 33 32 33 32 31 31 29 28 27 25 25 24 24 23 25 33 34 32 27 25 24 24 25 26 27 24 24 27 29 29 29 30 27 21 21 21 22 23 21 22 20 19
33 32 32 32 32 30 29 29 26 25 25 24 23 24 23 24 32 34 33 26 24 23 23 24 24 24 24 23 23 22 23 24 25 26 24 23 24 25 23 22 20 19 20
34 33 33 33 31 29 28 27 27 25 23 23 22 20 20 20 32 33 31 23 23 22 24 24 24 23 26 29 25 20 19 21 27 28 28 28 27 26 25 20 14 13 13
35 34 34 34 31 29 30 27 26 25 25 23 22 20 20 18 29 32 31 22 14 20 20 24 26 25 27 29 25 17 14 17 20 16 15 18 20 20 22 20 16 11 11
33 30 30 30 31 31 29 25 21 23 21 20 19 18 17 18 18 30 31 24 20 17 17 18 22 27 29 30 31 23 16 24 10 7 10 12 14 14 16 19 19 16 11
27 28 29 29 29 26 25 20 20 20 18 17 16 14 17 17 20 26 29 30 28 17 15 20 21 26 28 29 29 26 28 23 3 3 5 9 11 13 15 16 17 17 18
25 26 24 23 24 24 23 18 15 17 19 17 16 17 16 16 17 26 28 28 30 26 23 23 26 28 29 27 24 25 21 9 2 -1 5 9 12 15 15 14 15 16 16
20 18 16 19 14 12 16 18 18 16 16 16 14 15 9 12 15 16 18 19 25 26 26 21 23 25 24 22 15 18 14 10 9 8 9 12 13 11 10 12 10 11 9
15 15 15 13 13 12 13 13 14 12 17 11 8 9 7 10 16 20 17 13 13 18 16 4 6 11 10 11 8 7 8 8 5 5 7 7 8 9 9 10 9 9 7
16 15 14 13 11 11 11 9 23 23 25 26 26 17 10 21 25 26 27 28 28 26 19 15 11 13 12 11 7 6 6 7 8 5 1 4 5 6 6 7 8 7 5
14 12 11 13 12 10 8 9 7 13 27 28 28 28 29 27 26 27 27 28 29 28 23 22 13 11 10 10 8 6 5 7 8 3 2 3 4 4 3 4 5 6 5
10 13 12 10 9 8 6 4 4 3 3 5 17 20 21 23 24 25 25 25 18 18 18 7 10 8 7 7 6 5 4 2 3 0 -3 -5 -6 1 1 2 3 3 4
8 7 6 4 4 5 5 4 2 2 2 3 6 11 9 17 18 19 20 2 1 4 7 5 3 4 5 5 4 1 -1 -2 -1 -9 -13 -12 -8 -1 -0 1 3 3 3
2 5 3 2 1 1 2 1 2 3 -1 -5 -4 -1 -5 -6 -9 -7 -8 -9 -5 -1 0 2 3 3 3 3 0 -2 -4 -4 -6 -10 -14 -14 -10 -3 -0 0 1 1 2
-2 -1 0 -2 -3 -0 1 1 -3 -7 -6 -7 -4 -1 12 1 -3 -7 -8 -8 -6 -5 -1 -1 -5 -1 0 -0 -2 -2 -4 -3 -4 -12 -15 -17 -14 -5 -2 -0 -1 -0 4
-4 -5 -4 -2 -1 -0 -3 -5 -8 -8 -9 -9 -6 -5 9 -7 -10 -8 -9 -10 -8 -2 -1 -1 -1 -3 -2 0 -1 -2 -3 -4 -6 -18 -15 -15 -14 -11 -5 -3 -3 0 2
0 -1 -3 -5 -5 -5 -6 -12 -12 -13 -13 -14 -12 -10 -13 -14 -12 -11 -10 -9 -9 -5 -8 -5 -2 -2 -1 0 0 -1 -3 -3 -5 -16 -16 -17 -16 -14 -11 -5 -4 -0 -2
-3 -3 -3 -7 -7 -6 -8 -10 -10 -7 -9 -12 -17 -15 -11 -12 -13 -11 -11 -9 -9 -9 -12 -6 -2 -1 -0 -0 -2 -3 -5 -6 -16 -16 -15 -13 -9 -11 -9 -5 -4 -2 -5
-7 -6 -6 -8 -9 -10 -12 -15 -12 -17 -17 -14 -13 -15 -12 -12 -12 -12 -11 -10 -9 -9 -8 -10 -6 -1 -2 -2 -3 -5 -7 -4 -10 -14 -18 -17 -12 -11 -8 -5 -4 -2 -9
-5 -5 -6 -8 -12 -15 -17 -16 -16 -15 -14 -12 -12 -12 -12 -11 -10 -10 -9 -9 -8 -9 -10 -11 -8 -5 -3 -2 -4 -4 -6 -3 -7 -9 -12 -14 -11 -8 -6 -2 -1 -2 -5

GFSGL_sfc_temp_054.txt.gz
Temp
39 38 37 36 36 36 34 33 33 33 32 31 31 30 30 29 29 28 27 27 27 27 26 26 26 27 25 24 24 24 24 22 18 22 24 25 24 24 26 26 27 26 28
38 37 37 36 35 34 33 33 32 32 31 31 30 30 29 29 28 28 27 27 26 26 27 26 26 29 24 24 23 23 22 22 20 18 23 22 22 24 24 23 27 30 28
36 35 34 34 34 34 33 33 32 31 30 29 29 29 29 28 28 28 28 27 26 26 26 26 25 25 23 23 22 21 21 24 21 20 19 23 23 24 24 25 26 27 30
36 35 34 34 35 34 33 32 32 31 30 29 29 29 28 28 28 28 28 26 25 26 26 26 25 24 24 23 22 21 22 20 20 19 19 21 22 25 25 23 23 25 25
37 35 35 35 34 33 32 32 31 30 30 30 28 28 27 27 29 27 28 26 25 25 25 26 26 25 29 27 24 21 20 18 18 18 19 20 21 22 21 23 21 23 24
37 35 35 33 33 32 31 30 29 30 28 29 28 27 25 29 33 35 30 26 26 26 24 25 25 24 27 31 32 32 29 15 4 10 20 20 21 21 22 21 20 18 15
35 34 33 33 32 31 31 30 29 29 29 28 27 26 26 26 35 36 35 26 25 25 25 25 25 27 23 24 27 30 29 30 30 27 22 21 20 21 22 20 19 17 16
35 34 32 33 32 31 30 30 29 29 28 28 26 27 26 26 34 36 35 27 25 24 23 24 24 24 24 23 22 21 22 23 24 26 25 23 23 25 23 21 18 15 16
34 34 33 33 32 30 29 29 30 28 26 25 27 24 24 24 34 35 34 25 25 23 24 23 23 22 26 29 24 18 20 22 28 30 30 29 28 27 25 19 10 9 9
35 35 33 32 33 30 31 30 29 28 28 27 26 24 23 23 31 34 33 23 18 21 21 24 26 25 27 29 24 20 18 19 20 15 16 18 20 19 22 19 15 8 9
34 33 32 33 33 33 32 30 29 27 26 23 22 21 20 20 20 33 34 24 22 18 19 19 22 27 29 30 31 23 21 22 17 9 8 11 13 14 15 17 18 15 10
33 32 31 32 32 31 30 29 25 24 22 20 18 16 18 19 21 28 33 33 30 18 17 20 20 26 28 30 30 30 31 29 3 -0 1 8 10 12 14 16 17 16 17
28 28 28 28 28 27 27 22 17 19 20 20 18 20 20 17 18 28 28 31 32 28 25 23 26 27 28 29 31 30 23 10 3 -2 3 8 12 14 15 14 14 14 14
25 22 20 22 18 17 20 20 20 19 19 19 16 17 10 12 15 16 18 21 26 28 28 24 26 29 28 25 18 23 19 14 12 9 9 11 12 10 9 11 9 9 7
18 17 16 17 17 14 15 17 19 13 19 12 13 12 10 9 13 20 18 13 13 19 19 5 6 12 16 15 11 11 13 12 10 9 5 4 7 7 7 9 7 6 3
17 16 15 15 13 14 13 9 23 22 26 27 25 15 8 21 26 27 28 29 29 27 20 16 13 12 13 14 15 15 13 10 10 7 3 3 4 4 4 5 5 3 2
16 14 12 13 11 10 8 11 10 13 27 27 28 29 28 22 26 27 27 28 28 27 21 19 19 16 13 15 15 13 10 9 10 8 7 5 4 3 1 0 2 3 1
6 10 9 8 8 7 6 5 5 4 5 4 16 20 22 22 22 23 25 23 6 7 4 1 4 6 8 10 11 10 9 7 5 5 2 0 -4 -3 -3 -2 -1 -1 0
8 6 5 4 3 5 4 3 2 1 -1 -3 0 11 9 16 17 17 17 -4 -8 -7 -8 -7 -6 -5 3 5 6 5 5 2 -0 -2 -5 -5 -7 -8 -6 -5 -1 -0 -0
2 5 3 2 2 2 3 2 1 0 -1 1 1 -1 -4 -4 -8 -8 -9 -12 -11 -13 -13 -15 -11 -11 -4 -1 -0 -1 -2 -6 -6 -3 -4 -6 -6 -8 -4 -4 -4 -3 -3
-1 -1 1 -1 -2 -3 -3 -2 -1 -5 -5 -10 -8 -3 11 -4 -7 -9 -12 -15 -16 -15 -11 -14 -11 -9 -3 -2 -6 -6 -5 -2 -1 -2 -4 -8 -9 -12 -9 -2 -3 -4 -4
-4 -6 -6 -6 -4 -3 -1 -4 -5 -6 -9 -9 -7 -4 8 -7 -12 -15 -16 -17 -15 -14 -12 -10 -3 -10 -6 -5 -4 -3 -2 -3 -2 -2 -7 -8 -10 -17 -11 -5 -6 -6 -6
-4 -4 -4 -4 -2 -3 -5 -10 -9 -10 -11 -13 -12 -10 -15 -16 -18 -18 -16 -16 -15 -13 -11 -16 -9 -8 -12 -10 -2 -1 -2 -2 -1 -3 -8 -9 -14 -22 -15 -9 -8 -9 -7
-5 -5 -5 -7 -7 -8 -9 -12 -12 -11 -12 -14 -19 -19 -15 -17 -19 -17 -15 -15 -15 -14 -13 -14 -11 -9 -12 -12 -10 -3 -2 -2 -4 -8 -9 -11 -17 -19 -18 -12 -9 -8 -5
-7 -6 -5 -6 -9 -10 -12 -13 -11 -16 -17 -15 -16 -18 -18 -17 -16 -16 -15 -14 -13 -13 -11 -10 -11 -10 -9 -9 -8 -5 -3 -0 -2 -7 -13 -21 -18 -20 -22 -18 -11 -7 -6
-9 -9 -9 -10 -12 -14 -15 -14 -15 -16 -17 -16 -15 -17 -16 -15 -14 -14 -13 -14 -11 -10 -11 -12 -12 -11 -10 -9 -9 -5 -4 1 -2 -6 -15 -17 -17 -17 -18 -14 -12 -5 -3

GFSGL_sfc_temp_057.txt.gz
Temp
41 40 39 38 35 36 36 34 33 34 33 32 32 31 30 30 29 28 27 27 27 27 26 27 27 27 24 23 24 24 23 22 18 22 23 24 23 23 26 26 27 26 28
41 39 38 36 35 35 34 33 33 33 33 32 32 31 30 30 28 29 28 28 27 27 26 26 26 28 24 23 23 23 22 22 20 18 21 21 21 24 24 23 27 30 28
38 37 35 34 34 35 33 33 33 32 31 31 31 31 30 30 30 29 29 28 27 27 26 26 25 24 23 22 21 21 21 24 21 19 19 22 22 24 24 25 26 26 29
36 36 34 34 35 36 35 33 32 32 31 31 31 31 30 30 30 30 29 27 26 26 26 26 25 24 23 22 22 21 22 20 20 19 19 20 21 24 23 22 21 24 24
37 36 35 35 37 35 33 33 32 32 32 32 30 29 29 30 31 30 29 26 26 25 25 27 26 25 29 26 23 21 20 19 18 17 18 19 20 21 20 22 20 22 22
37 36 36 35 33 32 31 31 31 31 29 30 29 29 28 31 35 36 31 27 27 26 25 25 25 24 28 32 33 33 28 17 9 7 19 19 21 21 21 20 20 18 15
35 33 32 33 32 32 31 31 30 29 30 29 29 28 28 29 36 37 36 28 26 26 26 26 26 27 24 24 29 32 32 33 32 25 22 23 20 22 22 20 19 17 16
35 32 33 33 32 31 30 30 30 29 29 29 28 29 29 28 36 37 36 27 26 25 25 25 25 25 24 23 22 21 22 23 24 26 25 24 23 24 24 23 19 14 16
34 33 33 33 32 31 30 29 29 28 27 27 29 27 27 28 35 37 36 27 26 25 25 24 24 23 26 30 25 18 20 21 28 31 32 31 30 30 28 20 8 -1 8
35 35 34 34 33 30 30 29 29 29 28 28 26 26 26 27 33 36 36 27 23 24 23 25 26 25 28 30 25 18 17 20 21 19 19 22 23 20 24 20 14 6 8
35 33 32 32 32 32 31 29 29 28 27 26 25 26 25 25 25 35 36 27 26 22 21 22 23 29 31 32 32 24 22 24 21 22 14 14 14 14 15 17 18 15 10
32 31 31 31 31 31 31 30 29 28 27 26 25 24 23 23 25 31 35 36 31 22 22 23 21 28 29 30 30 31 32 31 19 9 8 8 11 12 14 15 17 16 16
32 32 32 32 32 31 30 30 28 27 27 25 23 24 24 19 20 30 30 33 34 31 24 24 28 28 29 29 31 32 29 20 13 8 9 12 13 14 15 14 14 14 13
30 28 27 29 26 28 30 27 25 24 24 24 21 22 16 15 16 17 19 20 26 28 29 25 26 29 30 27 22 23 23 19 16 14 12 12 12 9 8 10 8 8 6
23 20 20 21 22 19 19 21 23 20 25 21 20 17 13 12 15 20 16 10 7 17 17 5 6 12 18 19 20 19 18 17 15 14 12 8 7 7 7 6 6 2 0
18 17 18 19 18 18 18 15 25 24 28 28 25 18 9 22 25 27 28 29 29 28 16 14 14 14 15 15 14 15 14 12 13 14 10 8 6 5 3 2 4 -1 -1
19 16 15 15 14 14 12 14 12 18 27 28 29 28 26 22 27 27 27 27 25 20 12 9 5 6 7 10 12 13 13 14 13 11 10 7 4 2 -1 -3 1 1 -1
11 11 10 9 10 9 9 8 9 11 11 6 20 22 24 23 23 23 24 13 2 4 -2 -6 -8 -7 -4 -3 -0 4 7 5 6 7 5 1 0 -1 -8 -5 -0 -4 -3
9 7 6 4 4 5 5 4 3 3 2 -2 -0 8 7 18 19 17 13 -7 -12 -13 -15 -14 -14 -13 -11 -10 -6 -5 -2 1 1 1 -3 -4 -3 -6 -12 -4 -2 -1 -1
3 5 4 3 2 3 3 3 2 1 -1 -1 -3 -3 -5 -3 -9 -11 -14 -16 -17 -17 -18 -18 -17 -19 -18 -15 -9 -10 -12 -12 -10 -6 -4 -4 -4 -4 -4 -6 -4 -3 -7
-1 -0 1 -1 -1 -2 -3 -1 -1 -2 -3 -9 -7 -0 8 -5 -10 -12 -14 -16 -17 -19 -19 -20 -19 -19 -19 -16 -14 -15 -17 -13 -12 -4 -3 -5 -5 -9 -6 -4 -3 -6 -5
-4 -6 -5 -6 -5 -3 -6 -3 -5 -5 -6 -5 -7 -4 9 -6 -12 -14 -17 -19 -19 -20 -19 -21 -19 -18 -16 -15 -14 -14 -12 -11 -14 -3 -3 -5 -6 -7 -8 -8 -7 -7 -5
-5 -5 -6 -9 -7 -6 -9 -12 -11 -10 -11 -12 -10 -8 -12 -13 -12 -14 -17 -20 -21 -19 -20 -22 -21 -16 -15 -17 -15 -9 -7 -10 -10 -7 -6 -6 -7 -7 -11 -12 -17 -11 -9
-7 -7 -7 -10 -10 -11 -12 -13 -11 -9 -11 -13 -14 -14 -10 -15 -20 -18 -18 -19 -20 -21 -22 -21 -19 -16 -14 -14 -16 -14 -10 -8 -11 -10 -6 -6 -7 -9 -13 -23 -19 -12 -7
-12 -11 -11 -12 -13 -13 -12 -13 -12 -15 -15 -13 -16 -17 -18 -19 -19 -20 -20 -20 -20 -20 -15 -14 -14 -14 -12 -11 -12 -14 -13 -3 -5 -9 -12 -10 -10 -14 -24 -22 -21 -18 -10
-12 -12 -13 -13 -15 -16 -15 -13 -14 -15 -16 -15 -14 -14 -14 -16 -16 -16 -17 -19 -16 -14 -14 -14 -14 -13 -13 -11 -12 -9 -8 -1 -4 -5 -10 -10 -14 -20 -22 -22 -22 -17 -12

GFSGL_sfc_temp_060.txt.gz
Temp
42 41 42 41 40 39 38 38 37 34 32 32 32 32 31 31 30 30 30 29 29 28 28 28 28 27 25 25 25 25 23 23 19 22 23 23 23 23 26 25 26 26 27
41 40 40 39 38 38 38 36 35 32 33 32 32 32 32 31 31 31 30 30 29 28 28 28 26 28 24 23 23 23 22 22 21 18 21 21 21 23 23 22 27 30 27
38 39 38 37 37 37 36 35 33 32 32 32 32 32 32 31 30 31 31 30 30 29 28 27 26 25 23 22 21 21 21 25 20 19 18 21 21 23 24 24 25 25 28
38 39 37 37 37 37 35 34 33 33 32 32 32 32 32 31 31 31 31 29 29 29 28 27 26 25 24 22 22 21 22 19 19 18 18 19 20 23 22 21 21 24 24
37 37 37 36 37 36 34 33 33 32 33 32 31 31 30 31 32 31 31 29 29 28 27 28 26 26 30 27 24 21 20 18 18 17 17 18 19 20 20 21 20 21 23
36 35 37 35 35 34 32 32 32 32 31 31 30 30 29 31 36 36 32 29 29 28 27 26 26 26 29 33 33 32 26 18 9 9 19 19 20 20 21 20 19 18 16
34 32 32 34 33 33 32 31 31 30 31 30 30 29 29 30 37 38 36 30 29 28 28 27 26 27 24 25 30 34 34 35 32 23 21 21 21 21 22 20 20 19 17
34 32 32 33 33 32 31 31 31 31 30 30 29 30 30 30 37 37 36 29 28 28 27 27 26 26 25 24 23 22 24 24 26 27 25 24 22 24 24 23 20 13 17
33 32 32 33 32 31 30 30 31 30 29 29 28 27 28 27 36 36 35 30 28 27 27 27 26 26 28 32 24 20 21 22 28 31 32 32 32 32 30 18 4 -0 9
33 32 33 34 32 31 31 30 29 28 28 27 27 27 27 28 32 33 36 30 27 27 26 26 28 27 30 32 27 22 19 21 20 18 22 25 28 22 26 21 16 3 7
31 31 32 33 32 32 30 29 27 27 27 26 26 26 27 27 27 34 35 30 29 27 26 24 25 31 33 33 33 25 22 24 21 23 19 18 17 17 17 18 19 16 10
29 29 30 31 31 30 30 28 28 27 27 26 26 25 26 26 27 30 34 34 34 28 25 26 25 29 31 32 31 32 33 32 28 17 12 13 14 15 15 16 17 17 17
29 29 30 31 30 30 30 28 28 28 28 27 26 26 26 22 24 30 31 35 37 33 27 27 28 29 31 31 32 32 30 27 23 15 13 14 15 17 16 15 15 14 13
31 30 30 30 30 31 31 31 31 29 28 28 26 26 27 19 20 21 25 28 31 31 29 21 26 29 29 27 21 22 21 21 20 18 17 17 15 12 11 12 8 7 2
27 25 27 28 29 27 24 27 27 23 29 27 26 26 20 18 19 23 21 15 15 18 10 3 6 9 11 13 14 17 17 18 17 16 16 15 11 11 10 9 8 3 -3
21 21 22 21 20 21 20 17 27 27 30 30 28 22 13 23 27 28 29 28 26 26 6 2 5 9 12 13 11 10 9 8 9 9 9 8 9 9 7 6 5 -1 -6
19 17 17 17 17 16 16 17 17 24 30 30 28 27 25 23 28 28 29 29 25 21 7 1 1 2 3 6 6 5 4 6 5 5 8 9 9 6 5 3 2 -1 -5
14 14 14 13 13 12 13 13 15 18 17 13 26 26 28 28 27 26 25 16 0 0 -3 1 0 -6 -6 -6 -5 -4 -3 -2 -1 0 3 0 -1 1 -1 -2 -2 -6 -3
12 10 9 8 8 9 8 9 9 9 8 4 6 11 10 23 22 19 13 -3 -7 -10 -13 -14 -15 -15 -13 -14 -14 -14 -13 -10 -9 -12 -12 -9 -6 -5 -8 -5 -2 -0 -0
5 8 4 5 3 3 4 3 2 2 1 1 -0 -3 -7 -5 -9 -13 -15 -17 -18 -17 -18 -17 -19 -21 -21 -21 -20 -18 -17 -18 -18 -18 -16 -15 -13 -11 -9 -11 -4 -3 -2
-1 -0 1 -0 -1 -3 -3 -0 -0 -1 -2 -6 -6 -3 6 -9 -13 -15 -16 -17 -17 -18 -18 -20 -21 -23 -24 -23 -22 -22 -23 -17 -20 -19 -18 -17 -15 -16 -14 -4 -3 -3 -3
-4 -6 -5 -7 -5 -3 -6 -4 -5 -5 -7 -5 -5 -3 11 -7 -12 -13 -15 -17 -18 -19 -23 -23 -23 -23 -20 -20 -19 -19 -19 -17 -20 -21 -17 -15 -16 -16 -12 -6 -6 -4 -5
-4 -4 -6 -9 -7 -7 -9 -13 -10 -9 -10 -11 -10 -8 -12 -14 -14 -14 -14 -19 -22 -22 -24 -26 -22 -19 -19 -19 -18 -14 -13 -13 -13 -17 -14 -17 -17 -15 -10 -8 -7 -10 -14
-7 -7 -7 -11 -11 -12 -12 -15 -13 -11 -12 -14 -15 -15 -12 -16 -19 -18 -20 -21 -22 -23 -24 -23 -20 -18 -17 -17 -20 -21 -18 -14 -20 -14 -11 -13 -15 -10 -8 -10 -10 -18 -18
-12 -10 -11 -13 -16 -15 -15 -15 -14 -16 -15 -14 -15 -14 -15 -17 -16 -18 -20 -21 -21 -22 -17 -17 -17 -16 -15 -14 -15 -18 -17 -6 -12 -12 -15 -12 -14 -13 -12 -17 -24 -24 -20
-14 -13 -16 -16 -17 -18 -17 -15 -16 -14 -13 -13 -14 -16 -17 -16 -16 -18 -18 -19 -17 -15 -15 -15 -15 -15 -14 -13 -13 -11 -10 -3 -8 -9 -13 -14 -16 -16 -22 -22 -25 -24 -21

GFSGL_sfc_temp_063.txt.gz
Temp
44 44 43 42 42 43 42 41 39 38 37 37 36 36 36 35 35 36 35 34 34 34 33 34 33 33 33 33 33 33 32 33 33 33 32 33 32 32 33 33 32 33 34
43 43 42 40 41 40 40 39 38 38 37 36 35 36 35 35 35 35 34 34 33 33 33 32 31 32 31 31 31 31 31 31 31 27 29 30 29 31 31 30 31 33 33
42 41 41 40 40 40 38 37 37 36 36 35 35 35 35 34 34 35 35 34 34 33 32 32 31 31 29 29 29 29 30 29 29 27 27 28 29 30 30 31 30 31 32
40 41 40 39 39 39 38 36 36 36 35 34 35 35 35 34 33 33 33 32 32 32 32 32 31 30 30 29 28 28 28 27 26 25 25 26 27 29 28 27 28 31 29
39 40 40 39 39 38 36 35 35 35 35 35 34 33 33 33 33 33 33 32 31 31 30 31 31 31 32 30 29 27 26 25 25 24 24 25 25 25 25 27 25 27 29
38 38 39 37 36 35 34 34 34 33 33 32 32 32 32 33 36 37 33 31 31 31 29 29 30 29 31 34 34 32 29 24 22 23 25 24 25 26 26 25 25 23 22
37 36 35 35 34 34 34 33 32 32 32 32 32 31 31 32 38 37 36 32 31 30 30 30 29 30 28 29 34 35 34 33 31 26 25 26 26 27 26 25 25 23 22
35 35 35 34 33 33 33 32 33 32 31 32 31 31 31 31 36 37 36 31 30 30 30 30 30 29 28 27 27 27 28 28 30 32 31 29 29 29 28 28 25 22 21
34 33 33 33 32 32 31 31 32 31 31 31 31 30 30 30 37 38 35 29 28 28 28 30 30 29 31 34 27 23 25 26 30 33 34 34 34 34 34 27 19 17 19
33 33 32 32 31 30 32 31 31 31 30 30 27 28 29 28 36 36 35 31 29 29 27 27 29 30 32 34 30 26 23 26 25 24 25 27 30 29 30 26 23 18 16
31 30 30 31 30 31 31 31 30 28 27 26 26 26 27 28 31 35 36 31 30 30 28 28 28 32 34 34 34 29 27 28 26 26 24 23 24 24 23 23 22 20 17
29 28 28 28 30 30 28 28 28 28 26 26 26 25 26 27 29 34 35 34 33 30 30 30 29 31 33 34 34 34 34 33 31 28 24 22 20 20 21 21 20 20 20
27 26 27 28 29 30 29 28 27 28 27 26 26 26 26 26 27 32 33 34 35 33 31 31 31 32 33 33 34 34 31 29 27 25 23 21 20 22 21 19 19 18 18
28 28 29 29 29 30 30 30 29 28 28 27 27 28 29 27 26 26 28 30 32 32 32 30 31 31 30 29 25 26 24 24 22 22 21 21 19 17 16 17 15 14 11
30 29 30 30 30 29 29 30 30 31 32 30 30 31 29 24 25 27 26 25 25 27 16 17 18 19 20 20 19 19 19 19 18 18 17 16 16 15 14 15 12 11 7
26 26 27 27 26 26 25 23 30 31 33 33 32 29 21 28 30 31 31 30 28 28 15 14 14 15 16 15 14 14 15 14 14 13 13 12 11 11 11 12 10 7 5
23 21 21 21 22 22 21 21 21 26 32 29 29 29 27 27 30 30 31 30 30 29 14 11 12 11 10 11 11 10 9 10 8 9 8 8 9 8 7 7 7 6 4
17 17 18 17 17 17 17 17 20 23 23 21 28 27 28 29 30 30 30 20 11 9 7 6 6 6 6 5 5 5 4 4 5 5 4 3 2 3 3 3 3 2 1
17 14 13 13 13 14 14 14 14 15 14 10 12 17 14 28 25 18 14 6 6 3 -1 1 -0 -0 -0 -1 -1 -2 -3 -1 -1 -1 -1 -2 -1 -1 -2 -1 1 -0 1
9 10 8 8 7 7 8 8 8 8 8 7 7 5 4 9 3 -1 -4 -3 -1 -1 -3 -2 -6 -7 -6 -5 -6 -6 -5 -5 -4 -4 -4 -4 -3 -4 -2 -4 -3 -2 -1
4 5 4 3 2 2 3 4 5 5 5 4 3 3 8 3 0 -2 -2 -3 -3 -5 -6 -6 -8 -8 -9 -9 -9 -8 -8 -5 -7 -8 -7 -6 -7 -5 -5 -3 -3 -3 -3
3 1 1 0 1 1 -1 1 1 1 -1 -0 -0 1 15 1 -2 -4 -5 -7 -8 -9 -9 -8 -8 -9 -9 -9 -8 -8 -8 -7 -8 -9 -8 -9 -8 -7 -7 -5 -5 -4 -4
-1 -2 -3 -6 -5 -5 -6 -7 -5 -5 -5 -5 -3 -2 -3 -4 -4 -5 -5 -8 -10 -9 -12 -14 -11 -11 -12 -14 -11 -8 -7 -7 -6 -8 -8 -8 -8 -7 -7 -6 -7 -8 -7
-5 -5 -6 -10 -9 -9 -8 -9 -8 -9 -8 -9 -10 -8 -5 -8 -9 -7 -8 -10 -12 -13 -16 -15 -15 -13 -12 -13 -13 -13 -12 -10 -11 -10 -10 -8 -8 -9 -7 -8 -8 -8 -9
-10 -9 -10 -11 -14 -13 -13 -14 -11 -15 -14 -10 -11 -11 -11 -11 -11 -13 -13 -14 -15 -14 -13 -14 -14 -13 -12 -12 -11 -12 -14 -7 -7 -11 -12 -10 -10 -11 -10 -9 -10 -12 -13
-12 -12 -15 -16 -16 -18 -17 -14 -15 -13 -13 -11 -12 -13 -12 -12 -12 -13 -14 -16 -15 -14 -13 -12 -12 -13 -12 -10 -10 -8 -10 -5 -8 -10 -10 -10 -11 -12 -13 -13 -15 -15 -14

GFSGL_sfc_temp_066.txt.gz
Temp
53 55 53 52 52 50 46 46 45 44 40 40 39 40 40 41 46 46 45 44 43 41 43 41 40 39 38 36 37 39 40 43 40 38 39 40 39 39 40 41 39 39 40
53 53 52 51 51 49 46 46 45 42 41 39 38 38 38 39 43 44 41 42 41 40 40 39 37 36 35 35 36 37 39 39 39 35 37 37 37 39 39 37 37 37 38
52 51 50 50 49 49 47 46 45 43 40 37 37 37 37 38 39 43 42 42 42 41 40 39 37 34 31 33 36 37 37 34 36 34 34 35 36 38 36 37 37 37 37
50 49 49 49 48 47 44 42 43 42 39 37 37 37 37 37 37 40 41 41 41 40 40 38 35 32 31 33 34 35 34 33 32 31 32 33 35 36 34 32 32 38 37
48 48 48 47 47 45 41 40 40 39 38 37 36 36 36 36 36 36 39 38 39 38 37 35 33 32 33 35 34 34 33 32 31 30 31 33 33 32 30 34 31 33 35
47 46 46 44 42 40 38 37 36 36 35 35 34 34 34 35 39 39 39 37 36 36 34 33 32 30 33 35 35 36 34 30 29 31 32 30 31 32 33 31 30 28 27
42 41 41 40 39 38 36 35 34 34 35 33 34 33 33 34 38 39 37 37 36 36 34 32 31 32 32 34 36 36 35 35 35 33 29 31 31 33 33 30 29 29 29
39 38 38 38 37 37 35 35 34 34 33 33 33 33 33 33 39 38 36 35 36 35 32 31 30 33 32 31 31 31 33 34 34 34 33 32 34 35 33 31 29 29 29
38 38 37 37 35 35 34 34 34 33 32 33 32 31 31 31 38 37 35 33 32 32 31 30 29 31 33 34 30 28 29 30 34 35 36 36 36 36 35 32 28 25 23
38 38 37 36 34 34 35 34 34 33 31 31 30 31 31 30 35 35 33 32 29 29 29 30 29 29 32 35 32 30 26 29 30 29 29 31 33 32 33 32 28 24 24
36 35 35 35 34 35 34 34 32 31 29 28 28 28 28 29 32 35 35 32 32 31 32 30 29 32 32 32 35 32 31 33 31 30 28 28 28 28 29 29 27 25 23
33 33 32 33 33 33 32 32 31 29 28 27 26 26 28 28 32 35 36 35 35 33 33 32 31 32 33 34 33 34 35 34 32 30 30 29 28 27 26 26 26 25 25
30 29 30 32 32 32 31 30 31 30 29 27 27 27 27 27 29 34 36 36 36 33 34 33 32 32 33 32 34 35 33 32 30 29 28 27 26 26 25 24 23 22 21
29 29 30 30 31 31 32 32 31 30 29 28 27 27 27 27 28 30 32 34 34 34 33 33 33 32 32 32 30 32 30 29 27 26 25 25 25 23 21 22 19 19 17
31 30 31 31 31 31 31 31 31 32 31 29 29 30 28 28 29 32 32 31 32 32 28 26 27 28 27 26 25 25 25 24 23 23 21 20 20 20 18 19 17 15 12
29 29 30 31 31 30 29 29 33 33 33 34 35 34 31 33 33 33 32 32 32 32 24 25 25 26 25 25 23 22 21 18 19 18 17 17 15 15 15 15 14 12 10
30 28 27 28 28 27 27 28 26 30 31 31 31 31 30 30 32 33 33 33 32 30 24 23 25 24 23 21 20 19 17 16 13 14 14 13 13 12 10 11 11 10 8
25 26 28 28 28 28 27 27 29 28 26 26 29 29 29 30 30 31 32 28 22 20 21 20 20 19 18 17 15 14 13 12 12 12 11 10 9 8 8 8 8 6 6
23 22 23 24 25 25 25 26 27 27 25 23 23 23 23 27 24 23 23 22 21 17 15 15 16 15 13 12 11 10 9 9 9 8 8 6 6 6 6 6 5 3 3
17 16 19 20 21 21 21 22 22 22 21 21 23 22 18 20 20 16 12 13 14 14 12 12 9 8 8 8 7 6 5 4 5 5 5 5 5 5 4 3 3 3 4
15 14 14 17 18 18 19 19 19 19 19 18 18 14 13 18 15 14 11 10 10 10 8 8 6 5 5 4 4 4 4 6 5 4 3 3 3 2 3 3 3 2 1
12 11 12 12 13 12 12 13 13 14 14 13 11 12 17 13 11 11 9 8 6 6 6 6 5 4 3 3 3 4 3 3 3 2 2 0 0 1 0 1 1 1 1
11 10 9 8 8 7 9 9 10 10 10 10 10 10 9 9 7 7 6 5 3 2 2 0 2 1 1 -1 2 3 3 3 3 3 1 1 0 1 0 0 0 -2 -1
9 8 7 6 6 7 7 6 5 2 6 6 6 6 7 6 5 4 4 4 2 1 -0 -2 -2 -1 -0 -1 -0 -1 -1 -0 1 -0 -1 -0 -0 -1 -2 -1 -1 -2 -2
5 5 4 4 4 4 5 5 5 4 4 4 5 4 4 3 2 2 2 0 -1 -1 -1 -3 -3 -3 -3 -5 -3 -2 -2 -1 -1 -3 -3 -3 -3 -2 -3 -3 -2 -2 -4
3 3 3 3 3 3 3 3 3 3 2 3 3 2 2 2 1 1 0 -1 -3 -3 -3 -2 -2 -4 -3 -3 -3 -3 -4 -2 -5 -6 -3 -2 -3 -3 -3 -5 -6 -5 -5

GFSGL_sfc_temp_069.txt.gz
Temp
59 59 58 58 59 58 57 55 54 53 49 45 43 43 43 42 43 44 43 42 43 42 42 41 40 40 39 38 38 38 38 39 36 36 40 39 37 36 37 35 38 37 38
58 56 56 57 57 55 55 54 52 47 43 45 42 41 41 41 41 42 41 42 41 39 40 39 38 39 37 37 37 36 37 37 36 35 35 35 34 37 37 35 35 37 36
56 55 55 54 54 53 52 51 47 45 42 39 40 38 38 39 39 40 40 40 41 40 39 38 36 36 34 34 35 35 34 33 35 34 33 34 34 35 34 35 35 35 37
54 53 52 52 53 52 52 49 45 44 39 39 38 38 38 38 38 36 37 39 39 39 39 38 36 35 34 33 33 32 32 32 32 32 32 32 33 34 32 30 31 33 33
53 52 52 52 52 51 49 46 44 41 40 38 37 37 36 36 36 36 37 37 37 36 36 36 36 35 36 35 33 31 31 31 31 30 30 31 31 31 30 32 30 31 32
52 50 50 48 46 44 42 40 39 38 37 36 35 35 35 36 39 40 38 36 35 35 33 33 33 32 35 36 36 36 34 31 30 30 30 30 31 31 31 30 29 27 25
47 44 41 41 40 39 38 37 37 36 35 34 35 35 34 35 38 39 38 35 35 34 34 33 32 32 31 32 34 34 36 37 36 32 30 31 30 32 31 30 29 28 27
42 40 39 39 38 38 37 36 36 36 34 34 34 34 34 33 37 39 37 34 34 34 34 33 32 30 31 31 32 32 32 33 33 33 32 32 32 32 32 30 28 27 28
39 39 38 38 36 36 35 35 36 34 33 33 33 32 32 32 36 38 36 33 33 33 31 32 32 30 31 32 29 28 29 30 35 37 37 37 38 38 36 31 27 26 25
38 38 38 37 35 35 35 34 34 34 32 32 31 31 31 31 36 37 33 33 28 31 30 31 31 32 33 33 30 28 26 28 29 28 29 32 34 32 34 30 28 24 24
35 35 34 35 34 35 34 34 33 31 30 29 29 30 29 32 34 35 33 30 30 28 28 29 31 34 33 34 33 29 30 32 31 30 28 27 27 27 27 27 28 25 22
33 32 32 33 33 33 32 32 32 30 28 27 26 26 28 30 32 34 35 32 33 30 29 31 32 34 35 34 33 34 34 34 30 29 28 28 28 27 25 25 25 24 24
30 29 31 31 32 32 31 30 29 29 28 27 26 25 26 27 30 34 35 35 34 32 33 34 34 34 34 34 35 35 32 32 30 29 28 28 25 24 24 22 23 22 21
29 29 30 30 30 31 32 32 31 30 29 28 27 27 27 27 27 30 32 34 34 34 34 33 33 33 33 32 30 32 31 30 29 28 25 24 23 20 20 21 17 15 12
30 30 31 31 31 31 31 32 31 31 31 29 30 30 28 27 28 31 32 32 32 34 32 31 31 30 30 28 28 27 27 23 23 23 21 20 19 19 17 16 14 11 7
29 30 30 31 31 30 30 30 33 33 33 33 33 33 31 32 32 32 33 35 35 35 27 26 26 27 26 26 24 23 23 19 21 19 17 16 16 15 12 11 11 7 4
30 29 30 29 29 29 29 29 26 29 32 32 34 34 33 33 34 34 34 35 34 33 27 26 26 26 26 25 22 21 19 18 14 14 14 13 12 11 8 7 7 7 3
29 30 30 29 29 29 29 29 28 27 26 25 30 30 31 31 32 32 33 30 25 27 26 24 23 24 23 20 18 16 15 11 11 12 10 7 5 5 4 3 4 -0 -0
26 25 26 26 26 26 27 27 28 27 25 24 25 25 27 29 29 28 27 25 24 20 18 19 18 17 16 15 14 12 12 10 9 6 4 2 1 0 -1 0 1 1 -1
20 20 23 23 23 23 23 23 23 24 23 24 24 21 20 22 21 16 15 16 16 15 14 13 12 11 11 11 10 7 5 3 2 1 2 1 0 -0 -1 -4 -4 -3 -4
18 18 19 19 19 20 20 20 21 22 21 20 14 17 19 19 15 13 12 12 11 10 8 9 7 6 6 4 4 3 2 5 4 3 2 -2 -3 -5 -4 -1 -4 -5 -6
16 15 15 14 14 14 14 15 16 16 16 14 13 14 17 13 12 11 9 8 6 5 5 4 4 3 1 1 2 2 2 1 2 1 -2 -5 -6 -6 -6 -5 -5 -5 -6
15 13 12 12 12 13 12 12 12 12 11 11 11 10 10 9 7 6 5 4 2 1 0 -0 0 -1 -0 -1 1 2 2 1 0 -1 -4 -6 -8 -7 -7 -7 -7 -9 -9
11 11 9 7 8 8 8 8 7 5 7 6 6 6 6 5 4 3 1 2 1 -1 -2 -4 -4 -3 -2 -1 -1 -1 -2 -3 -3 -5 -6 -7 -7 -7 -9 -8 -8 -8 -8
7 6 6 5 5 6 7 6 5 4 4 4 4 4 3 2 1 1 0 -1 -4 -4 -3 -4 -4 -2 -3 -5 -4 -3 -1 1 -4 -4 -8 -9 -9 -11 -11 -11 -10 -8 -8
6 5 5 5 5 4 4 4 4 3 2 2 2 2 1 0 -0 -1 -2 -4 -5 -5 -6 -5 -4 -4 -4 -3 -3 -3 -2 1 -4 -3 -6 -6 -7 -6 -9 -11 -14 -13 -13

GFSGL_sfc_temp_072.txt.gz
Temp
51 51 50 50 50 51 50 49 48 46 45 44 43 44 43 43 44 45 43 42 43 40 39 39 37 36 36 36 32 33 33 34 31 30 33 33 34 34 34 32 33 32 32
50 50 49 49 49 49 48 48 46 45 41 41 40 41 41 41 41 42 40 41 40 38 38 37 36 37 34 35 33 33 34 34 33 29 30 31 32 33 33 31 33 35 33
49 48 47 47 47 47 47 46 44 41 38 36 36 38 39 39 39 40 41 40 40 39 38 37 36 35 33 33 33 32 32 33 32 31 29 31 32 32 30 31 31 31 34
48 47 46 46 47 46 46 44 41 38 35 34 35 37 38 38 39 37 37 37 37 38 37 37 36 36 34 33 32 31 31 30 30 29 29 30 30 31 30 28 27 29 29
46 46 47 46 46 45 42 40 37 36 34 34 34 34 35 36 37 36 37 36 35 34 34 34 35 34 36 36 33 31 31 29 28 27 28 29 29 29 28 28 27 28 28
47 46 45 42 41 40 39 37 35 34 33 33 33 34 34 35 39 39 38 35 36 35 33 33 32 32 36 38 37 37 34 30 27 27 27 28 29 30 30 29 27 25 22
41 38 37 37 37 37 36 35 33 33 32 32 32 32 34 34 38 39 39 35 35 35 34 32 30 32 33 33 37 37 36 37 34 30 28 30 30 31 30 28 28 26 25
38 35 33 35 35 33 33 33 31 31 31 31 31 32 33 33 39 39 37 34 34 33 33 31 31 30 31 31 31 30 30 30 31 34 31 31 32 32 31 29 27 25 25
37 35 33 32 32 32 31 30 29 30 28 32 33 30 32 32 38 39 36 33 32 32 31 30 31 30 33 34 29 28 28 29 34 37 36 36 35 36 34 26 21 19 24
34 35 34 31 30 30 30 29 28 28 31 31 31 31 31 31 37 38 36 33 30 28 29 30 31 32 35 35 28 27 25 27 29 27 30 32 35 33 36 30 23 20 19
30 30 29 29 27 27 27 27 28 30 29 29 29 29 29 31 34 37 37 32 30 28 29 29 32 35 35 36 33 28 28 30 29 27 26 26 27 27 27 26 26 22 17
26 26 25 24 27 28 30 30 30 29 28 27 27 26 28 31 33 36 34 33 32 28 28 30 32 35 35 36 34 33 34 33 29 27 26 25 25 25 25 23 23 23 23
27 23 23 23 25 25 25 28 28 28 27 26 26 25 26 27 30 34 34 34 33 29 30 30 33 34 35 36 36 35 32 32 30 27 26 26 25 24 23 21 21 20 18
27 26 24 24 25 25 26 26 26 27 26 26 26 25 25 26 27 30 32 32 32 31 32 32 33 34 35 33 31 33 32 30 29 28 25 23 22 19 17 18 12 11 5
27 28 29 29 29 28 28 26 24 24 28 27 28 28 26 25 27 31 32 32 32 32 32 31 31 30 30 30 27 27 26 24 23 21 20 18 18 18 14 11 10 4 1
25 28 29 29 27 23 24 29 33 32 33 33 33 31 30 31 32 32 33 34 34 35 29 28 28 29 28 26 24 23 22 21 20 17 12 11 11 10 9 7 5 -0 -2
29 28 27 25 24 25 26 27 25 29 33 34 34 34 33 33 33 33 34 34 34 34 27 27 25 23 22 23 23 21 19 17 14 14 13 8 8 10 7 4 6 3 -4
28 28 28 27 26 26 25 23 23 23 22 22 30 30 32 32 33 33 34 33 28 26 24 22 21 22 21 20 18 15 12 8 7 7 5 4 3 3 1 1 5 -5 -7
23 23 24 25 25 25 26 26 26 23 22 21 21 23 26 29 28 28 27 23 20 17 17 17 17 14 12 10 6 7 7 6 7 4 1 -1 -0 -1 -5 2 -0 -3 -6
19 22 22 22 22 22 22 22 21 20 20 20 16 16 15 17 12 12 14 14 13 11 9 7 6 7 6 6 5 5 5 1 1 -0 -2 -1 -3 -0 0 -9 -10 -9 -12
17 17 18 17 17 17 17 18 18 18 14 12 11 16 22 13 10 8 6 5 3 2 0 1 -1 -1 -1 1 3 2 0 -0 -1 -2 -4 -4 -3 -7 -2 -5 -9 -12 -13
14 14 13 12 13 13 13 13 13 13 12 9 8 13 16 9 6 3 2 -1 -4 -5 -6 -5 -6 -6 -7 -6 -7 -7 -7 -6 -8 -3 -3 -4 -5 -8 -11 -10 -11 -12 -14
13 11 11 10 11 10 8 7 8 8 6 4 4 4 2 -1 -2 -3 -5 -7 -8 -8 -10 -11 -11 -11 -12 -12 -11 -9 -8 -5 -4 -5 -5 -6 -7 -8 -11 -11 -13 -13 -14
9 8 7 6 6 6 5 4 4 3 0 -2 -5 -5 -4 -7 -8 -7 -8 -10 -11 -14 -15 -15 -15 -14 -15 -15 -15 -14 -12 -11 -12 -6 -4 -5 -6 -5 -8 -11 -10 -9 -7
5 4 3 2 2 1 1 -1 -2 -5 -7 -5 -7 -6 -9 -9 -10 -12 -13 -13 -14 -14 -13 -14 -14 -13 -12 -12 -14 -14 -12 1 -10 -10 -11 -9 -9 -8 -9 -9 -11 -9 -8
3 3 2 2 1 -1 -1 -1 -4 -6 -7 -7 -9 -10 -10 -10 -11 -12 -13 -14 -14 -14 -15 -15 -14 -11 -12 -10 -10 -8 -6 1 -3 -4 -9 -9 -10 -8 -10 -10 -9 -9 -11

GFSGL_sfc_temp_078.txt.gz
Temp
48 48 47 47 48 48 49 49 49 47 46 46 47 48 48 49 50 49 50 49 46 46 46 45 44 45 43 41 40 38 37 37 37 31 34 33 34 34 36 36 36 36 35
48 47 47 47 46 46 47 47 46 45 43 45 43 45 46 47 47 47 47 47 45 44 44 43 43 44 43 41 40 38 37 36 34 29 30 30 30 35 35 33 34 35 34
46 46 45 45 45 45 45 45 44 44 42 40 41 41 43 44 44 45 46 46 45 45 44 43 43 42 38 39 37 38 36 34 32 31 29 30 30 33 31 31 32 32 34
45 45 44 45 45 44 44 44 43 42 41 38 39 39 39 41 41 41 41 43 42 42 43 42 41 40 39 36 34 33 32 30 30 29 28 30 30 30 32 31 30 30 32
44 43 45 45 43 43 41 40 39 39 39 38 36 37 35 35 36 37 37 39 39 39 36 37 38 37 37 36 34 33 32 31 30 29 27 29 29 27 30 29 30 30 28
41 40 41 39 38 38 38 38 37 37 36 35 34 35 33 35 38 40 39 37 36 36 35 34 33 33 35 37 37 36 35 32 31 28 28 31 29 30 30 28 27 25 24
34 35 35 35 35 37 36 36 36 35 34 33 33 32 32 33 39 40 39 35 35 36 35 33 31 32 32 33 35 36 35 36 34 31 29 28 27 29 29 27 28 27 26
34 33 33 33 33 33 32 32 33 33 31 31 31 30 30 31 38 39 39 35 34 34 34 33 32 30 31 32 32 31 30 31 33 32 31 30 31 31 31 31 29 27 27
34 33 33 32 32 31 30 30 28 27 25 25 28 29 30 32 37 39 38 33 33 32 32 32 32 31 33 34 31 29 29 30 34 33 33 34 34 34 33 29 25 24 23
33 32 32 31 29 28 29 28 25 26 31 31 32 32 32 33 36 38 37 32 30 30 30 31 31 32 34 34 31 29 28 29 30 30 31 33 33 32 34 30 28 24 24
30 30 28 28 27 27 27 30 31 31 30 30 29 29 30 31 31 38 38 32 31 29 29 28 30 34 34 35 33 31 31 31 31 29 28 28 29 29 29 29 29 28 23
28 27 26 25 26 27 28 30 30 30 29 28 28 27 27 29 32 36 37 34 33 28 28 29 30 34 35 35 33 34 35 31 29 27 26 25 26 26 27 27 27 26 26
24 23 21 22 23 23 30 29 28 28 27 26 26 26 26 27 29 34 36 35 34 30 30 30 32 34 35 36 34 34 32 29 28 26 25 26 27 27 26 24 23 22 20
20 26 25 20 21 20 22 27 28 27 26 26 26 26 25 26 27 30 32 32 32 30 31 31 32 33 35 33 32 33 32 31 30 27 27 26 25 24 22 21 18 17 16
24 26 28 28 23 21 22 20 22 24 25 25 26 25 24 23 26 31 31 30 28 28 27 27 30 30 30 29 29 30 30 30 29 27 24 22 21 21 19 18 17 14 12
25 27 27 27 26 25 26 25 32 31 32 32 31 28 25 29 31 32 33 33 33 33 27 25 25 25 25 26 26 25 26 26 25 24 21 20 19 19 17 15 13 10 10
25 28 27 25 25 24 25 25 23 28 33 34 33 33 32 32 33 33 34 34 34 33 25 26 26 27 26 26 26 24 22 21 21 21 20 18 17 16 14 11 11 10 8
26 27 25 22 24 25 24 23 22 22 22 21 27 31 33 33 33 33 34 31 25 26 23 23 22 22 21 20 19 18 16 15 14 14 13 12 10 8 9 8 9 5 5
20 19 19 21 24 25 24 22 21 21 19 18 19 22 20 27 27 28 28 20 20 18 18 17 16 16 15 12 9 6 6 6 3 3 1 1 4 5 1 5 6 4 -3
17 22 23 21 22 22 22 21 19 18 17 16 16 15 15 16 14 12 12 13 13 11 10 9 7 5 2 -0 -1 -2 -1 -1 -2 -3 -2 -1 1 2 -1 -7 -6 -7 -7
15 17 19 19 18 19 19 18 17 16 15 13 16 20 20 12 8 8 7 5 5 4 3 2 -1 -3 -5 -7 -7 -6 -6 -5 -7 -7 -7 -7 -12 -13 -13 -7 -10 -8 -6
15 15 15 15 15 15 14 15 14 13 12 11 9 11 15 8 6 5 2 -1 -5 -5 -7 -7 -9 -11 -12 -11 -12 -12 -13 -14 -18 -18 -16 -17 -18 -17 -16 -12 -7 -7 -10
13 12 12 11 11 11 10 11 10 10 8 7 6 6 4 2 1 1 -2 -4 -4 -4 -6 -7 -8 -10 -16 -19 -19 -16 -14 -15 -16 -19 -16 -18 -18 -17 -16 -14 -14 -13 -10
9 9 8 8 8 8 7 6 5 5 4 3 2 1 1 -3 -5 -4 -6 -6 -4 -8 -9 -14 -16 -17 -18 -20 -23 -24 -23 -21 -23 -20 -18 -17 -17 -16 -16 -15 -11 -9 -8
7 6 6 5 5 5 4 4 3 1 -0 0 -4 -5 -8 -7 -6 -6 -6 -6 -12 -15 -14 -16 -17 -18 -18 -18 -19 -21 -21 -9 -17 -18 -22 -19 -18 -20 -19 -16 -11 -11 -8
5 4 4 4 3 2 1 -0 -3 -4 -5 -3 -3 -4 -5 -7 -8 -11 -13 -15 -14 -15 -17 -19 -20 -20 -19 -17 -17 -12 -11 -3 -10 -11 -20 -19 -19 -20 -19 -15 -12 -10 -7

GFSGL_sfc_temp_081.txt.gz
Temp
47 46 46 46 46 46 46 46 46 46 45 45 45 46 46 47 47 49 51 52 50 49 49 47 46 48 47 44 41 42 41 41 40 39 33 33 33 34 36 36 36 35 36
46 46 46 46 46 45 45 45 45 45 44 45 44 45 46 48 48 48 48 49 48 46 46 45 45 45 44 45 42 39 39 40 40 39 29 30 31 34 34 32 33 35 34
44 44 44 44 44 44 44 44 44 43 43 41 41 42 45 46 46 47 47 47 47 47 46 44 44 44 42 43 41 40 38 38 36 32 28 29 29 31 29 30 30 30 34
42 42 42 43 43 43 43 43 42 42 41 40 39 40 41 43 42 43 42 44 45 45 45 44 44 43 42 42 39 38 36 33 33 32 29 28 28 28 29 27 26 30 31
40 40 41 40 40 40 39 38 38 37 38 38 37 36 37 39 40 40 39 41 41 41 41 40 40 40 39 42 37 35 33 33 32 32 28 27 26 26 26 28 30 27 27
36 35 36 35 34 35 35 35 35 36 35 35 35 35 34 36 39 40 40 38 37 37 38 36 36 34 36 39 39 39 36 34 32 31 29 28 27 27 28 28 27 26 24
32 33 32 33 33 34 33 33 34 34 34 34 33 33 33 33 39 40 39 35 35 35 36 35 33 33 33 34 38 39 38 39 38 33 30 30 28 28 29 27 28 28 28
32 31 31 31 31 32 32 31 32 31 31 31 31 30 30 31 38 39 39 34 34 34 35 34 34 32 32 33 33 33 33 34 34 32 32 30 30 30 32 31 29 28 27
32 31 31 30 29 29 30 30 29 27 27 27 27 26 29 33 37 38 37 33 33 33 33 33 33 32 33 36 32 31 30 30 34 34 34 34 35 35 32 29 27 26 23
30 30 30 29 28 28 30 30 31 28 31 31 32 32 32 32 36 37 37 33 32 31 30 31 31 32 34 36 31 30 28 29 30 31 32 33 34 34 34 31 28 25 24
27 27 27 27 26 27 28 30 31 31 31 31 30 30 30 30 31 36 37 32 31 29 29 29 30 34 34 35 33 30 30 30 32 30 30 30 29 30 31 30 29 29 25
24 24 24 23 24 26 23 29 31 30 30 30 28 29 28 29 31 34 36 37 34 29 28 29 30 33 34 35 32 33 34 32 30 28 28 27 27 28 28 27 28 27 27
26 23 24 28 23 21 21 28 29 29 28 28 27 27 27 28 29 33 34 35 33 30 30 30 32 33 34 35 34 34 31 30 28 27 26 26 27 27 27 24 23 22 22
25 26 26 28 29 28 22 22 25 27 27 26 26 26 26 26 27 29 32 32 32 30 30 30 31 32 33 33 32 33 31 29 28 27 27 26 26 24 22 22 19 19 16
24 26 28 29 28 28 27 21 18 20 26 24 26 25 21 20 23 32 31 28 24 27 25 28 30 29 30 30 30 30 30 30 29 28 25 22 22 22 20 20 18 16 15
20 24 28 29 28 26 25 26 32 33 33 32 32 27 24 29 31 33 33 33 33 33 22 22 26 26 25 25 26 26 26 27 25 24 22 21 20 19 17 16 16 14 13
13 18 23 26 24 19 18 20 21 26 31 31 33 33 32 32 32 33 34 33 33 31 22 24 25 25 23 24 24 25 23 21 22 22 21 20 19 18 16 14 13 12 10
12 17 24 24 20 19 16 18 19 22 21 21 25 28 32 33 33 34 33 29 26 25 24 23 23 22 21 21 21 19 18 17 17 17 16 14 13 12 10 9 10 7 5
13 18 20 17 21 22 20 19 20 20 19 19 20 22 21 27 27 27 26 20 18 16 16 15 15 13 13 13 13 12 12 10 9 8 7 7 7 6 3 5 6 7 4
13 17 20 17 19 22 21 19 19 18 17 17 15 13 15 16 14 12 12 13 12 11 10 9 7 6 6 5 4 3 3 3 2 2 0 -0 0 1 -1 -1 1 2 -8
12 13 17 16 18 19 20 19 18 17 15 13 16 20 19 11 8 7 6 5 5 5 4 3 2 1 -0 -1 -1 -0 -2 -2 -6 -6 -8 -9 -9 -7 -6 -8 -14 -15 -14
11 13 12 12 16 16 16 16 15 14 13 12 10 13 15 9 7 5 2 0 -1 -2 -3 -3 -4 -8 -9 -8 -9 -8 -10 -11 -15 -17 -17 -18 -19 -20 -19 -15 -14 -12 -13
12 13 10 11 12 13 12 12 12 11 9 9 8 7 6 4 3 1 -2 -4 -4 -5 -8 -11 -12 -13 -16 -18 -18 -14 -11 -13 -15 -21 -18 -21 -21 -20 -20 -16 -14 -12 -12
10 10 9 9 9 9 9 8 7 7 6 4 3 3 2 -0 -1 -1 -3 -7 -8 -11 -9 -11 -12 -12 -14 -18 -21 -25 -24 -23 -25 -22 -21 -20 -20 -20 -19 -19 -16 -13 -10
7 7 7 7 7 6 6 5 4 3 3 2 0 -1 -3 -3 -3 -6 -10 -11 -12 -11 -11 -12 -13 -15 -17 -19 -21 -23 -21 -11 -20 -22 -26 -22 -21 -23 -23 -21 -20 -17 -14
5 5 4 4 4 4 3 3 1 1 -0 -1 -3 -4 -5 -7 -9 -12 -15 -15 -13 -14 -16 -19 -20 -21 -21 -20 -19 -16 -13 -4 -12 -13 -22 -21 -22 -24 -24 -22 -21 -18 -15

GFSGL_sfc_temp_084.txt.gz
Temp
44 43 44 44 44 44 44 44 44 45 45 44 44 45 46 46 47 50 52 53 51 49 49 47 47 49 48 48 46 44 44 43 40 45 36 35 34 35 35 35 35 35 35
43 43 43 44 43 43 44 44 44 44 44 44 43 43 44 44 45 45 47 49 49 49 49 48 48 47 46 47 46 42 43 43 41 40 37 30 32 34 33 32 33 34 33
42 42 43 43 42 42 42 42 42 42 41 41 40 40 42 43 46 47 48 48 48 48 49 46 46 45 43 44 44 42 41 41 40 39 39 30 30 31 30 31 31 32 32
38 38 38 39 39 39 39 39 39 39 38 38 38 38 38 39 42 43 42 45 46 46 47 46 45 43 43 43 42 42 40 38 37 36 32 28 29 29 30 28 28 30 29
36 36 36 36 36 35 35 34 34 35 35 35 35 35 35 36 38 40 39 41 42 42 42 41 41 41 40 43 41 40 38 36 34 34 33 28 27 27 27 28 28 27 28
34 33 33 33 33 32 33 33 33 33 33 34 34 33 33 34 38 40 41 39 37 38 38 38 37 35 37 39 41 42 39 35 34 34 34 30 31 29 29 27 27 25 23
31 31 31 31 31 32 32 32 32 32 32 32 31 31 31 32 38 39 39 37 36 36 36 35 35 34 34 35 37 40 40 40 40 36 34 31 30 29 29 27 27 27 26
30 29 29 30 29 29 29 29 30 30 30 30 30 30 29 30 37 39 38 36 35 35 35 35 34 35 34 33 33 33 34 35 36 36 33 32 32 31 30 30 28 28 27
31 30 30 29 28 28 27 31 31 31 27 29 29 29 28 30 37 38 37 34 33 34 34 33 34 33 35 36 33 32 31 30 34 35 34 34 34 33 32 30 27 27 24
29 29 28 27 25 25 27 29 29 26 30 30 29 29 29 31 35 37 36 33 33 33 31 31 32 33 35 36 33 31 29 29 30 31 31 33 33 33 34 31 29 27 24
25 25 24 25 23 23 24 24 26 25 28 24 28 28 26 30 30 35 36 33 33 31 30 29 30 34 35 35 35 31 30 31 32 31 30 30 30 31 30 30 30 29 25
25 27 27 22 27 25 19 22 26 30 29 30 29 28 27 29 31 33 35 36 35 30 29 29 30 33 34 35 33 33 34 31 30 29 28 27 27 28 28 29 29 28 28
19 23 27 28 29 30 28 26 24 23 28 27 27 27 26 24 24 33 34 35 33 30 30 30 32 33 34 34 34 34 31 30 28 27 27 26 27 27 27 24 23 22 21
14 19 25 27 29 30 30 28 25 19 19 23 21 22 21 21 22 25 31 32 32 30 30 29 31 32 33 33 32 31 30 30 29 27 27 26 26 25 23 22 20 20 17
13 18 21 25 29 29 29 28 27 23 25 23 23 20 19 16 20 31 30 28 25 28 24 26 29 30 30 30 30 30 30 29 28 27 26 24 24 23 22 21 19 18 16
11 16 18 20 23 27 27 26 31 33 33 34 34 29 20 29 33 33 33 33 32 32 26 26 25 27 27 27 27 27 27 27 26 26 24 23 23 22 19 18 17 15 13
6 11 14 18 24 25 23 16 18 21 30 30 31 33 32 32 32 33 34 33 33 30 23 26 26 26 25 25 24 23 21 20 21 22 21 21 20 19 17 15 14 13 11
4 9 12 17 22 24 21 15 16 14 15 20 25 27 31 33 33 34 33 29 22 22 21 20 19 20 19 19 19 19 18 17 17 16 15 15 15 13 11 12 12 9 8
6 10 13 16 20 21 19 16 16 17 14 18 20 22 21 26 26 26 25 18 16 14 14 12 13 13 12 12 12 12 11 9 9 9 8 9 9 8 6 8 9 8 6
6 9 14 16 18 18 16 17 16 14 14 17 17 16 16 16 13 11 11 12 11 10 9 7 7 6 6 6 6 6 6 6 5 5 3 2 2 4 2 0 1 -0 -1
8 10 11 15 14 15 18 19 17 15 15 14 15 19 19 11 8 7 5 4 4 4 4 3 2 1 0 1 2 2 -0 -1 -4 -3 -5 -8 -9 -8 -10 -6 -13 -15 -14
8 9 10 11 13 16 16 17 15 14 14 12 10 11 14 8 6 4 2 -0 -2 -2 -3 -2 -4 -5 -6 -5 -7 -5 -7 -10 -15 -18 -18 -19 -20 -21 -19 -16 -15 -16 -18
8 9 8 9 13 14 13 13 12 11 10 9 8 7 5 4 3 0 -2 -3 -3 -4 -5 -6 -7 -13 -15 -16 -18 -14 -12 -15 -17 -22 -19 -21 -22 -22 -22 -19 -19 -18 -16
6 7 7 8 10 10 10 8 8 8 6 5 4 4 3 2 1 -1 -2 -3 -4 -9 -7 -9 -11 -14 -17 -21 -24 -26 -25 -24 -26 -23 -21 -21 -23 -22 -22 -22 -20 -19 -16
5 6 6 7 7 7 6 6 5 4 4 4 3 2 1 1 -1 -4 -6 -5 -7 -8 -12 -14 -17 -18 -19 -21 -22 -24 -23 -15 -25 -24 -28 -23 -23 -25 -25 -23 -23 -21 -18
4 4 4 4 4 4 4 3 3 3 2 2 1 -0 -1 -2 -3 -4 -6 -7 -6 -12 -16 -19 -19 -19 -21 -21 -22 -17 -13 -4 -14 -15 -23 -21 -22 -26 -26 -24 -25 -21 -20

GFSGL_sfc_temp_087.txt.gz
Temp
44 44 45 46 46 47 47 47 47 47 47 47 47 47 48 49 50 51 53 53 52 52 50 49 49 50 49 49 48 47 46 46 43 47 47 40 36 36 37 37 38 38 40
43 43 43 43 43 43 43 44 44 44 44 45 44 44 45 46 47 47 47 49 49 49 50 48 48 48 47 49 48 46 45 45 43 42 45 36 35 35 36 35 35 36 37
41 42 42 42 42 41 41 41 41 41 41 41 41 42 43 43 45 46 46 47 48 48 48 48 48 48 46 46 46 45 44 43 43 42 42 32 33 33 32 32 33 33 34
39 39 38 38 38 39 39 39 38 38 38 38 39 38 38 39 39 41 42 45 46 46 47 47 47 45 45 45 43 43 42 41 40 40 40 38 31 30 32 30 29 31 31
37 37 36 36 36 36 35 35 35 35 36 36 36 37 37 37 37 38 39 40 40 41 42 43 44 43 40 43 42 41 40 39 39 38 37 32 29 28 28 29 29 29 30
35 34 34 33 33 33 33 33 33 34 34 34 34 34 34 35 38 39 39 38 37 37 38 39 38 36 38 39 41 42 42 37 36 37 37 35 34 31 30 28 28 26 24
33 32 31 31 31 32 31 31 32 32 32 32 33 33 33 34 37 39 39 36 36 37 36 36 35 35 35 36 38 39 39 40 41 38 35 35 33 31 30 28 28 28 27
31 30 29 30 29 29 29 29 31 31 30 31 32 32 32 33 37 38 38 36 36 36 36 35 35 35 35 34 34 34 34 35 36 37 35 34 34 32 32 31 30 29 28
31 31 30 29 27 28 27 28 29 30 31 30 31 31 30 31 35 37 37 35 34 34 35 35 34 34 35 37 34 33 33 33 35 38 37 36 36 35 33 31 28 27 25
29 28 27 27 25 25 26 26 27 27 29 30 30 31 29 29 33 36 36 34 32 33 34 33 33 34 35 36 33 32 31 30 31 32 32 34 34 33 34 32 31 28 26
25 26 27 28 25 26 26 27 26 25 28 28 29 30 29 29 29 34 36 33 32 32 33 32 32 34 35 36 36 32 32 31 32 32 31 31 31 32 32 32 32 30 28
21 21 22 26 29 29 30 29 29 27 27 27 26 28 28 28 29 33 35 36 36 32 31 31 31 33 35 35 34 33 34 33 32 31 30 30 29 30 30 31 30 29 30
15 15 17 22 25 28 30 30 31 30 28 25 25 25 26 28 27 31 32 34 34 31 31 32 34 34 34 33 34 34 31 31 30 29 28 28 29 29 27 25 24 23 22
11 15 18 19 22 24 29 29 29 29 28 26 27 27 27 24 25 26 31 31 30 30 30 29 32 33 34 33 32 32 31 31 30 29 28 27 28 27 25 25 23 23 21
11 15 17 19 19 21 25 29 29 29 29 28 29 29 28 24 26 32 31 29 28 30 25 27 30 31 31 31 31 30 30 30 29 29 28 26 26 25 23 23 22 21 20
10 14 15 15 17 20 24 27 31 31 34 33 33 32 32 30 33 34 33 33 33 33 25 26 27 28 28 28 28 27 26 26 27 27 27 26 25 24 21 21 20 20 18
4 9 11 13 15 17 22 25 22 25 31 31 30 31 33 32 32 33 33 33 32 29 23 22 22 23 23 23 23 22 21 21 23 23 23 22 22 21 20 19 18 17 16
1 5 8 11 13 16 20 23 21 19 18 19 25 27 28 30 31 33 31 27 21 20 19 18 18 18 18 18 19 19 18 18 18 18 17 17 17 18 17 17 16 15 14
3 7 9 11 13 15 19 21 20 18 17 15 17 22 20 25 24 24 24 19 16 14 14 12 13 13 13 14 14 13 13 12 13 12 12 12 13 14 12 13 12 10 9
3 5 9 10 12 15 17 19 18 18 17 17 17 17 18 17 13 11 11 12 11 10 10 9 8 8 8 10 10 11 10 9 9 8 7 7 8 10 8 7 7 7 6
3 6 7 9 10 14 16 19 18 18 16 15 14 19 18 11 9 7 6 6 6 6 6 6 4 4 5 5 6 6 4 4 2 3 3 2 2 2 0 3 0 -1 -1
3 6 7 8 10 13 15 17 17 16 14 13 10 13 14 9 7 5 4 2 1 1 1 2 0 -1 -1 -0 1 2 1 -2 -3 -4 -4 -6 -5 -5 -4 -3 -2 -3 -4
4 5 7 7 10 12 13 14 14 13 11 10 9 8 7 6 4 3 1 -0 0 -0 -1 0 -0 -3 -5 -5 -5 -3 -2 -3 -4 -7 -6 -7 -7 -6 -5 -3 -5 -5 -4
2 3 5 6 8 9 10 10 9 9 8 7 6 6 5 4 3 2 1 -0 -1 -3 -3 -3 -3 -3 -6 -8 -11 -13 -13 -13 -14 -12 -10 -7 -8 -10 -8 -8 -7 -8 -5
1 2 3 4 5 7 7 7 7 6 6 6 5 4 3 3 2 1 -0 -1 -2 -2 -3 -4 -6 -8 -10 -15 -15 -16 -16 -7 -15 -18 -15 -11 -10 -13 -13 -10 -10 -9 -8
0 2 2 3 4 4 5 5 4 4 4 3 3 3 2 2 1 0 -1 -2 -2 -3 -5 -7 -9 -13 -14 -13 -14 -14 -14 -5 -11 -15 -14 -10 -11 -12 -13 -12 -15 -9 -9

GFSGL_sfc_temp_090.txt.gz
Temp
53 53 54 53 53 54 53 53 52 53 53 53 53 53 54 55 56 56 56 56 55 54 55 52 51 52 52 51 50 49 48 47 44 49 52 48 41 40 40 40 42 42 41
51 51 51 51 51 50 50 49 48 48 49 49 49 49 50 50 51 51 51 52 52 51 52 51 51 50 49 50 50 48 47 48 45 44 47 47 38 39 41 39 38 38 38
50 50 50 49 48 48 47 47 47 47 47 47 47 46 46 46 47 48 49 49 49 49 49 48 48 48 46 47 47 47 47 46 46 44 44 47 37 35 34 34 34 34 35
48 48 46 45 45 46 46 45 45 45 45 45 45 44 43 43 44 43 43 44 45 45 46 45 46 45 45 45 44 45 45 44 43 42 42 42 38 32 33 32 31 33 33
47 46 44 43 43 42 41 40 41 41 42 41 40 42 43 43 42 41 40 40 39 40 41 42 42 42 39 41 42 43 41 40 41 40 39 40 34 29 30 31 31 32 31
43 41 41 39 38 38 38 37 38 38 39 39 39 39 39 39 39 39 39 39 38 37 37 38 39 36 38 39 40 41 41 38 36 37 39 38 38 34 33 31 30 27 27
39 37 36 36 36 36 36 36 36 37 37 36 37 38 38 39 38 39 38 39 39 38 38 37 37 37 35 37 38 39 39 39 40 38 36 37 36 35 33 30 30 31 32
37 36 35 35 34 34 34 34 35 36 35 35 36 36 36 37 38 38 37 38 39 39 39 39 38 37 37 35 35 34 35 35 35 35 35 35 36 34 34 33 32 31 31
36 35 34 32 30 31 30 32 32 32 32 33 34 33 33 34 37 37 37 36 36 35 37 38 37 36 36 37 34 33 33 34 36 37 37 38 38 37 34 32 30 28 28
33 32 33 32 30 29 30 30 30 31 31 32 32 33 33 33 35 36 36 35 33 34 35 35 35 36 36 36 33 32 32 33 32 32 32 33 34 34 34 33 32 29 27
30 30 30 30 30 31 31 32 31 31 31 32 31 32 32 33 33 34 35 34 33 33 33 34 35 35 35 36 37 33 33 33 33 32 32 32 32 32 32 33 33 32 31
27 26 26 26 28 30 30 31 32 32 32 32 31 31 33 33 33 33 34 35 35 32 32 34 33 35 36 36 35 35 35 34 33 32 32 31 31 31 31 30 29 28 29
22 21 23 24 25 27 28 29 30 32 32 32 31 30 31 33 33 33 33 35 34 33 34 34 34 35 34 34 34 34 32 32 32 31 31 30 30 28 28 26 25 24 22
19 21 23 23 25 26 28 30 30 30 30 31 31 30 31 32 33 34 33 34 33 33 33 33 33 33 34 33 33 33 33 32 32 31 30 29 29 29 26 27 25 25 23
18 20 22 24 23 24 26 27 28 30 31 30 31 31 30 31 33 33 33 33 33 33 31 32 32 33 32 32 32 32 32 32 31 31 30 28 27 26 25 25 25 24 22
16 20 21 19 22 23 24 26 31 32 33 33 34 32 31 34 34 34 34 34 34 33 31 30 30 30 29 29 29 29 27 27 28 29 28 28 26 25 23 23 23 23 21
10 13 16 17 19 20 21 22 23 29 32 32 33 32 31 31 33 34 33 31 30 31 28 27 26 26 26 26 25 25 24 24 25 25 25 24 24 23 23 22 22 22 19
7 9 12 16 17 18 19 20 22 23 24 27 30 29 28 29 29 31 32 29 26 23 22 22 21 22 22 22 22 22 22 22 21 22 21 21 22 22 22 21 20 19 18
10 13 14 15 16 16 17 19 21 23 24 26 26 26 24 25 24 24 25 25 21 19 18 17 18 18 18 19 19 18 18 17 18 18 18 17 18 20 18 18 15 13 15
10 9 10 12 14 15 17 19 20 23 24 24 23 23 23 21 20 17 18 18 17 16 15 15 14 15 15 16 16 16 15 15 15 14 14 14 15 16 14 14 14 14 13
9 10 10 11 14 15 16 17 20 22 23 22 21 22 20 19 16 14 13 13 13 13 12 12 11 10 11 11 12 12 11 11 10 10 11 10 10 10 9 10 9 8 8
9 10 11 11 13 14 15 17 19 22 22 19 17 17 16 14 12 11 10 8 7 8 8 9 8 7 6 7 9 10 9 8 7 7 6 4 6 6 7 6 7 6 6
9 9 10 12 13 13 15 17 18 19 18 17 15 13 12 11 10 9 7 7 7 6 6 7 6 4 3 3 3 4 7 6 5 3 4 4 4 5 6 6 4 4 5
8 9 10 10 11 12 13 14 14 13 14 13 12 11 10 9 8 7 7 6 6 5 4 4 4 3 2 1 1 -0 -1 -1 -2 -1 0 3 3 0 3 2 3 1 3
7 7 8 8 8 9 10 11 11 10 10 10 9 8 8 7 7 6 6 5 4 4 3 2 2 1 -0 -2 -2 -3 -4 -0 -5 -6 -3 -0 1 -1 -1 1 0 1 0
5 6 6 6 6 7 7 8 8 8 7 7 7 7 6 6 6 6 5 4 3 3 2 2 1 -1 -2 -3 -3 -4 -7 -3 -5 -10 -3 0 -1 -1 -2 -2 -4 -0 -1

GFSGL_sfc_temp_093.txt.gz
Temp
56 56 55 54 55 55 54 53 52 53 52 52 52 52 53 53 54 53 53 53 53 53 54 53 53 54 53 52 52 51 50 49 46 50 52 52 44 43 42 42 43 42 43
54 54 53 53 53 52 51 51 50 49 50 50 50 50 50 50 50 49 49 50 50 49 50 50 50 50 49 50 50 49 49 49 46 44 49 48 46 42 43 40 40 40 39
53 52 51 50 50 50 49 49 49 49 49 49 49 47 47 47 47 47 47 46 47 47 47 46 46 46 44 45 46 46 47 47 47 44 44 47 48 36 35 35 35 36 36
51 50 47 46 47 47 47 46 45 46 46 45 45 44 44 44 44 43 42 43 43 43 43 43 43 42 42 42 42 42 42 42 43 42 43 43 43 35 33 34 34 34 35
49 48 46 45 45 43 42 41 41 40 41 41 39 40 41 42 42 39 38 39 39 39 40 40 40 39 37 39 39 39 39 38 39 39 39 40 40 34 32 34 33 35 32
45 42 41 40 38 38 38 37 38 38 39 38 38 38 38 39 40 40 39 37 37 37 38 39 39 38 39 39 40 40 39 36 35 35 36 36 37 38 38 34 33 29 29
39 37 36 36 36 36 36 36 36 37 37 36 37 37 37 37 39 39 38 36 36 37 37 38 37 38 37 38 38 38 38 38 39 36 34 35 34 36 35 34 32 30 31
37 36 35 35 34 34 34 34 35 35 34 34 34 35 35 35 38 38 37 36 36 36 36 36 36 36 36 35 35 34 34 35 35 35 34 34 34 34 34 35 33 32 31
37 36 35 34 32 32 30 32 33 32 32 33 33 33 32 33 36 37 36 34 34 34 35 35 35 35 37 37 34 33 33 34 36 38 38 37 37 37 37 32 31 29 28
34 33 33 33 30 30 32 31 33 32 32 33 33 34 33 32 35 36 35 33 32 33 34 35 35 36 37 37 33 32 31 32 33 33 33 34 34 33 34 32 32 29 27
31 31 30 30 28 30 31 32 32 32 32 32 32 34 34 33 33 35 36 33 32 32 33 33 34 36 36 37 37 33 33 34 33 32 32 32 32 32 32 32 31 30 29
28 27 27 26 28 29 28 29 30 31 32 32 33 34 35 34 35 36 36 36 36 32 32 33 33 35 36 37 35 36 35 33 32 32 32 31 29 27 26 26 25 25 25
22 21 23 25 26 27 27 27 29 30 30 31 31 32 33 34 35 36 36 35 36 33 33 34 35 35 35 34 35 35 32 32 32 31 29 28 27 27 27 26 26 24 22
20 22 23 24 25 26 28 29 28 29 29 30 30 31 32 32 32 34 33 33 33 34 34 33 34 35 35 34 32 33 32 32 31 30 29 29 29 27 26 27 25 24 21
19 21 23 25 25 24 26 27 27 28 29 28 29 30 29 29 31 34 34 32 33 33 32 32 32 32 31 31 30 29 30 30 30 30 29 28 27 25 24 26 25 24 21
17 21 22 20 22 23 23 24 29 30 32 33 34 33 32 33 34 34 35 35 34 34 30 28 28 28 27 27 27 27 26 25 26 27 27 26 25 24 23 23 24 22 20
12 15 17 18 20 20 21 21 20 25 29 31 33 34 34 33 33 32 33 32 30 32 28 26 25 25 25 24 24 23 22 23 24 23 23 24 24 23 23 22 22 21 18
8 10 13 16 18 18 19 19 20 19 19 22 29 32 32 32 30 30 30 30 27 25 22 21 19 20 21 21 21 21 21 21 21 20 20 20 21 21 21 19 19 18 16
10 13 15 16 16 16 17 17 19 20 20 21 25 29 28 29 28 26 26 26 25 22 20 18 16 17 19 19 18 18 16 15 16 16 16 16 17 18 16 15 13 12 14
11 11 11 12 13 15 16 17 17 19 20 21 24 25 25 23 22 22 20 21 21 19 18 16 16 15 15 15 15 15 15 14 13 13 12 12 12 13 12 10 9 9 7
11 12 11 12 13 15 15 15 16 17 18 21 23 22 24 19 20 17 16 15 16 15 14 13 12 11 10 10 11 10 9 10 8 7 7 6 5 4 4 5 2 -1 -1
10 11 12 12 12 13 14 15 15 17 19 21 21 18 18 16 15 13 12 10 9 9 10 10 9 7 6 6 6 8 7 4 3 2 1 -1 1 0 0 -0 -1 -2 -4
11 11 11 12 13 13 14 15 16 16 16 17 16 15 13 13 12 11 9 8 8 8 8 8 8 5 4 4 3 2 2 1 -1 -3 -1 -1 -3 -4 -3 -4 -6 -6 -6
10 10 10 10 11 10 12 12 13 13 12 13 13 12 11 11 10 8 8 8 7 7 6 6 5 3 3 2 2 1 -1 -4 -6 -7 -8 -5 -6 -8 -6 -9 -7 -9 -7
8 8 8 8 8 8 9 10 10 10 10 10 10 10 9 9 9 8 8 7 6 6 6 5 4 3 2 1 -0 -2 -3 -1 -9 -8 -11 -10 -10 -12 -12 -10 -10 -8 -9
6 6 6 7 6 7 6 6 7 8 8 8 8 8 8 8 8 8 7 6 6 5 5 5 4 3 2 1 -0 -0 -3 -1 -9 -9 -12 -10 -11 -11 -12 -13 -14 -11 -10

GFSGL_sfc_temp_096.txt.gz
Temp
47 46 46 46 46 46 45 44 44 44 44 44 44 44 44 44 44 43 43 44 43 43 44 44 44 45 45 47 48 48 48 49 45 49 51 52 50 44 44 43 44 45 45
47 46 46 45 44 43 43 43 43 43 43 43 43 43 43 42 41 41 40 40 40 40 41 41 42 44 41 44 45 44 44 46 44 42 46 47 47 48 48 43 43 42 41
45 44 43 42 42 42 41 42 41 41 41 40 40 39 39 39 39 40 39 38 39 39 39 38 38 39 39 40 41 41 42 44 43 41 41 44 45 46 42 37 37 39 38
43 42 40 40 40 39 39 38 38 38 38 37 37 36 36 36 37 37 35 36 36 37 38 37 37 37 38 38 37 36 38 37 38 38 38 39 40 41 33 34 37 35 37
42 40 38 38 37 37 35 35 34 33 35 34 33 33 34 35 37 35 34 34 33 34 35 35 35 36 38 38 37 36 35 34 35 35 35 36 36 37 37 38 34 37 36
38 36 36 35 34 33 33 33 32 32 32 32 32 32 32 35 39 40 38 33 33 32 32 33 33 37 38 39 39 39 38 34 33 33 33 33 33 34 36 35 35 34 32
33 33 32 33 32 32 31 31 31 31 31 30 30 30 30 30 37 38 38 33 32 32 33 35 35 35 35 35 36 38 36 37 38 35 32 33 32 33 33 32 32 33 33
33 31 31 31 29 30 29 28 29 29 29 28 29 29 29 31 36 37 37 33 31 31 32 34 34 34 35 34 34 34 34 34 34 34 34 34 34 34 33 33 32 32 30
32 31 31 29 26 27 24 26 27 26 26 25 28 25 26 32 35 36 36 33 33 33 34 35 34 33 35 38 34 32 32 34 37 38 38 38 37 36 35 32 30 28 26
31 31 30 28 24 23 25 24 25 23 29 29 32 33 32 34 36 36 35 33 31 32 33 34 34 36 36 36 33 32 30 32 33 33 32 33 33 32 33 31 30 27 25
28 27 26 26 22 22 23 23 21 22 26 22 27 28 33 30 28 37 37 34 33 32 33 33 33 35 36 37 37 32 33 34 32 31 31 27 27 26 26 25 25 25 26
24 23 20 17 21 22 15 16 17 18 18 21 22 26 26 27 34 37 37 37 36 32 31 32 32 35 36 37 35 36 36 33 31 28 24 25 24 23 24 23 23 23 23
17 13 13 14 16 16 13 14 16 15 16 21 23 25 28 30 33 37 36 37 35 32 33 34 35 35 36 34 35 35 31 28 26 24 23 23 25 26 27 25 24 24 23
10 12 14 13 13 14 18 19 13 13 17 20 22 24 26 28 31 32 32 33 32 33 34 32 33 34 36 34 30 29 29 29 26 24 24 25 26 25 23 25 22 22 21
11 14 13 14 11 13 16 15 17 17 19 20 25 26 26 27 30 33 33 32 32 33 32 30 29 28 28 27 20 21 22 23 25 26 26 25 24 23 22 23 23 22 19
11 13 12 11 11 14 15 17 25 28 30 31 32 30 29 33 34 35 34 35 34 34 23 26 26 26 26 25 15 15 16 19 22 22 22 23 22 21 21 20 20 18 15
7 7 7 10 9 8 9 11 14 19 26 27 29 30 32 33 34 34 33 33 33 32 24 23 24 23 23 18 14 15 16 18 18 19 18 18 20 19 19 19 18 17 14
-3 5 1 3 4 4 5 7 9 12 12 16 24 26 29 32 33 32 31 30 25 21 22 20 17 18 15 13 13 13 15 15 15 14 15 16 17 16 15 14 14 12 10
0 1 1 2 2 4 5 9 11 13 14 16 18 22 24 30 30 30 30 21 20 17 18 18 17 16 16 13 12 11 10 9 10 10 10 10 11 10 9 9 9 11 9
-4 2 2 -1 -0 1 5 8 11 11 12 13 15 17 19 13 11 13 11 13 16 15 17 16 15 14 12 12 9 8 7 7 7 6 6 5 6 6 6 3 3 3 1
-4 -3 2 -2 -2 1 1 5 10 11 12 12 14 19 26 14 12 6 8 10 10 12 12 12 11 10 9 9 6 3 2 3 2 1 0 -1 -1 -1 -3 -0 -3 -5 -5
-5 -4 -3 -3 -2 1 3 5 7 9 12 13 15 13 21 9 10 7 6 7 7 9 9 9 8 6 5 4 3 4 2 1 -1 -1 -1 -1 -3 -5 -5 -6 -6 -8 -12
-3 -3 -4 -4 -3 1 -0 -1 4 3 6 2 10 8 3 4 7 6 5 7 8 7 7 7 7 6 5 4 2 1 1 0 -3 -3 -4 -6 -7 -8 -12 -13 -14 -14 -14
-6 -5 -4 -5 -5 -5 -5 -3 0 2 -0 0 1 1 1 2 4 6 8 7 7 7 6 6 6 5 4 2 0 -2 -2 -1 -5 -5 -9 -8 -9 -11 -14 -16 -15 -15 -13
-7 -6 -6 -6 -8 -7 -7 -7 -5 -6 -6 -2 -3 -2 -1 2 3 4 6 6 6 6 6 6 5 5 4 3 2 1 -0 1 -6 -5 -11 -10 -11 -14 -18 -18 -17 -16 -15
-7 -8 -8 -8 -8 -9 -9 -8 -8 -6 -5 -4 -4 -4 -2 0 1 5 6 6 5 5 5 5 5 5 4 3 3 3 2 3 -3 -3 -7 -7 -10 -17 -20 -19 -19 -17 -16

GFSGL_sfc_temp_099.txt.gz
Temp
46 45 45 44 44 43 42 41 41 41 41 41 41 41 41 41 41 40 39 39 38 38 38 38 39 40 40 40 40 41 43 43 39 42 45 46 46 46 46 47 46 46 47
44 44 43 43 42 41 40 39 39 39 39 39 39 39 39 39 38 38 37 36 36 36 37 37 37 40 36 37 39 40 40 42 39 37 40 41 42 44 44 43 44 45 43
43 42 41 39 39 38 38 38 38 37 37 37 37 37 37 36 36 37 36 35 35 35 35 35 35 35 33 36 38 37 37 38 37 35 35 39 40 41 40 41 41 41 40
41 39 38 37 37 36 36 36 35 36 35 35 35 34 34 34 35 34 34 33 33 34 34 34 33 33 35 36 36 35 35 34 34 34 34 35 36 38 38 36 36 39 39
39 37 36 36 35 34 33 34 33 33 33 33 32 32 32 33 34 33 33 32 31 31 31 31 33 36 37 37 36 35 34 33 33 33 32 33 33 34 33 35 33 35 35
36 34 34 33 32 32 32 32 32 32 31 31 31 30 30 32 36 38 37 34 33 30 29 34 35 35 36 38 38 38 37 33 32 31 32 31 32 33 33 32 32 30 29
33 32 32 32 32 31 31 31 31 31 30 30 29 29 29 29 36 36 36 35 33 31 31 33 34 35 35 35 36 37 36 37 37 33 30 31 31 33 32 31 31 30 30
32 31 31 31 31 31 30 29 29 29 29 28 28 28 27 29 36 36 36 34 33 33 33 33 33 33 35 34 34 34 33 34 34 34 32 33 33 33 32 31 31 32 31
32 31 31 30 28 27 24 25 27 26 24 24 27 23 26 27 36 37 37 33 33 33 34 34 33 33 35 36 33 31 32 33 36 37 37 37 36 35 33 28 26 26 22
32 31 30 29 26 23 25 24 24 22 26 26 26 24 24 25 34 37 37 33 32 33 33 34 34 34 35 36 33 32 30 31 29 31 31 32 28 26 29 23 23 23 21
29 28 27 27 24 24 22 23 20 17 20 14 20 22 22 25 27 36 39 33 32 31 31 32 33 34 35 37 37 32 32 34 31 30 26 19 19 20 23 22 23 22 21
27 26 24 20 22 22 14 13 12 11 13 15 16 19 21 24 29 34 38 38 37 32 31 32 32 35 36 37 35 36 36 33 25 16 14 16 17 20 22 23 23 22 23
24 21 17 16 17 16 10 11 13 10 11 14 17 18 21 23 23 33 35 36 36 33 33 34 36 36 35 34 34 33 30 29 15 13 13 17 21 23 24 23 23 23 22
19 20 19 15 12 11 16 17 9 8 9 12 12 22 24 25 26 31 32 32 32 33 33 33 32 35 34 32 28 27 26 22 25 26 19 20 22 20 21 23 22 22 20
19 18 14 12 8 10 13 11 14 14 14 7 11 17 21 24 25 32 33 31 32 31 31 29 24 27 27 27 22 17 20 21 22 22 21 21 21 20 20 20 20 18 15
16 14 11 10 9 11 10 10 21 25 28 29 29 27 22 30 32 33 34 35 34 34 29 27 23 24 23 23 21 19 18 18 20 20 19 18 17 18 18 18 17 14 12
10 9 7 10 8 7 5 4 4 12 23 25 26 27 28 29 31 33 33 33 33 32 25 25 24 21 20 19 18 19 18 18 18 16 14 14 16 16 15 15 16 14 11
3 7 3 2 1 0 1 1 1 1 3 6 18 23 26 28 30 31 31 30 15 16 15 21 22 18 17 17 17 17 16 15 14 12 11 10 9 11 10 8 11 8 8
4 1 -0 -2 -1 1 0 1 1 2 3 6 7 15 16 24 27 26 25 12 15 15 13 15 17 17 17 16 16 15 13 12 8 6 6 6 6 6 5 5 7 8 7
-5 1 -1 -4 -3 -3 -1 0 2 1 1 2 4 9 12 10 3 0 -0 2 2 8 12 10 11 13 12 12 12 12 10 8 3 3 1 1 2 3 4 1 1 1 -2
-4 -5 -1 -5 -5 -5 -4 -2 -0 0 1 -0 4 11 22 16 2 -3 -3 -3 -1 1 5 7 7 9 9 9 9 9 8 6 1 0 -1 -2 -3 -1 -3 1 -5 -5 -6
-2 -2 -3 -2 -2 -2 -3 -1 -1 -1 1 3 5 4 17 0 -2 -3 -3 -4 -2 2 5 5 5 5 6 6 5 7 6 4 1 -0 -1 -1 -3 -3 -4 -3 -5 -9 -14
-1 -1 -3 -4 -5 -4 -5 -8 -7 -6 -6 -5 -4 -1 -4 -6 -5 -5 -4 -6 -1 1 3 5 7 6 6 5 5 4 4 3 1 -0 1 -3 -2 -4 -5 -7 -13 -14 -14
-3 -4 -5 -8 -8 -9 -9 -9 -9 -6 -7 -8 -10 -7 -5 -6 -8 -5 -3 -4 -1 1 3 4 5 4 4 3 3 2 1 1 -0 -1 -2 -1 -2 -5 -6 -12 -16 -17 -15
-9 -8 -8 -8 -10 -9 -10 -11 -10 -13 -12 -10 -8 -10 -9 -8 -7 -7 -4 -2 1 2 4 5 5 5 4 4 4 3 2 5 0 -2 -4 -3 -3 -5 -7 -13 -17 -16 -15
-8 -7 -7 -8 -10 -12 -13 -11 -12 -12 -12 -9 -9 -8 -7 -6 -6 -5 -2 3 4 4 4 6 5 5 5 4 4 5 4 5 2 0 -4 -4 -5 -6 -10 -16 -18 -16 -13

GFSGL_sfc_temp_102.txt.gz
Temp
45 45 44 43 42 42 41 40 40 39 39 39 39 38 38 38 38 37 37 36 35 35 35 35 35 36 35 35 35 36 36 37 35 38 40 41 40 39 41 42 42 42 43
43 43 42 42 41 40 38 38 38 37 37 37 37 37 37 36 36 35 34 34 33 33 33 33 33 36 33 34 36 38 37 38 35 32 36 37 37 39 40 39 41 42 41
42 41 40 39 38 37 36 37 36 35 35 35 35 35 34 34 34 34 34 33 32 32 32 31 31 31 34 36 36 36 36 37 36 33 32 36 36 37 37 37 38 38 40
40 39 37 36 37 36 35 34 34 34 34 33 33 32 32 32 32 33 33 32 32 32 32 31 31 34 34 34 34 34 35 34 34 32 32 33 34 36 35 33 32 36 35
38 37 36 35 35 33 32 32 32 32 32 32 32 31 31 32 33 33 33 32 33 31 30 32 35 35 36 37 35 34 33 32 32 31 31 32 32 32 31 33 31 33 34
37 35 34 33 32 31 31 32 32 32 31 32 31 31 30 32 37 37 36 33 34 32 30 32 34 35 35 37 38 38 37 33 31 30 30 30 31 31 32 32 30 28 27
33 32 32 31 31 32 32 32 31 31 31 30 30 29 29 29 36 36 36 34 33 33 33 33 33 34 35 35 36 37 36 37 38 34 30 30 30 32 31 29 28 27 28
32 32 31 32 31 31 30 30 30 30 30 29 29 28 28 30 35 37 37 34 34 34 34 34 33 33 33 33 33 33 33 33 33 33 32 32 32 32 30 28 26 25 28
32 32 32 31 29 28 27 27 28 27 25 24 27 24 23 26 34 37 35 33 31 30 32 34 34 32 35 36 33 31 32 32 34 36 37 37 35 33 32 21 19 19 22
33 33 31 29 28 27 28 27 26 25 26 26 26 24 23 20 30 35 35 28 27 28 30 32 35 36 37 37 33 32 29 30 31 31 31 29 26 24 28 17 20 15 17
31 30 28 28 26 26 26 25 23 22 22 16 19 19 17 20 23 34 36 29 28 32 32 32 34 36 36 37 37 31 31 34 31 28 19 16 17 18 20 21 21 19 14
30 28 26 25 27 25 24 21 20 18 15 13 12 14 18 20 28 32 35 36 36 31 31 32 32 35 36 37 35 36 36 32 26 14 11 14 20 21 22 21 20 20 22
28 25 24 24 24 23 21 20 18 14 14 13 14 11 14 19 19 31 34 35 35 32 33 34 36 35 35 34 33 33 28 25 27 19 20 21 20 20 21 21 20 20 20
25 23 22 22 21 21 22 21 15 12 9 11 9 9 11 17 19 21 25 30 31 32 32 30 30 34 34 34 27 26 25 20 21 24 25 18 18 17 17 19 18 19 15
24 22 21 21 20 18 18 17 17 13 14 8 7 9 9 14 23 31 31 30 30 31 32 23 16 18 20 23 20 19 16 18 19 20 18 18 18 18 17 19 18 15 12
21 21 21 19 17 17 16 16 21 25 27 28 28 22 13 27 30 32 33 34 33 34 27 24 24 18 23 22 19 17 18 18 19 18 16 16 13 14 16 17 15 11 9
23 19 17 17 15 13 12 12 7 11 22 23 25 25 26 27 29 31 32 32 30 29 16 11 15 20 22 21 16 16 17 19 18 17 13 12 15 14 14 14 14 13 9
17 16 15 14 13 9 8 8 7 6 2 2 15 20 24 25 27 29 28 22 9 11 2 6 13 17 14 13 14 14 15 16 16 14 12 9 8 8 8 7 8 6 5
12 9 8 7 7 8 7 6 3 1 -1 -2 -1 12 12 22 24 23 22 1 -1 -0 2 5 6 7 7 8 11 12 12 12 12 9 5 5 5 5 3 2 3 5 5
8 9 7 5 2 1 2 2 1 1 -0 -1 0 1 2 5 1 -5 -6 -7 -8 -7 -4 -1 1 0 1 5 8 8 8 8 6 3 3 2 3 3 5 0 -0 2 -2
5 4 3 -0 -1 -1 0 0 1 -2 -2 -3 -0 4 20 5 -3 -8 -8 -8 -8 -8 -7 -6 -3 -2 0 2 5 6 5 6 3 2 1 1 1 3 2 4 1 -3 -5
4 3 1 1 -1 0 -2 -1 -1 -3 -5 -4 -2 -1 15 -3 -7 -8 -8 -9 -9 -8 -6 -5 -4 -0 1 3 4 5 6 4 0 0 0 -0 -1 1 -0 -0 -2 -3 -4
3 1 1 -5 -3 -4 -7 -9 -8 -8 -8 -9 -8 -6 -8 -9 -10 -10 -9 -9 -10 -8 -6 -4 -2 -1 2 5 5 4 3 4 3 -1 -1 -1 -1 -3 -5 -3 -4 -8 -6
3 3 1 -2 -4 -6 -5 -9 -11 -8 -10 -10 -13 -12 -9 -11 -12 -11 -9 -8 -10 -9 -8 -6 -4 -2 -1 3 5 4 3 2 1 0 0 -0 0 -2 -3 -5 -3 -4 -3
-1 -0 0 -1 -4 -5 -7 -10 -8 -10 -10 -9 -11 -12 -12 -13 -12 -12 -11 -10 -8 -6 -4 -4 -3 -1 1 2 5 5 4 6 6 2 -1 -2 -1 -2 -2 -3 -4 -5 -6
-2 -3 -4 -7 -8 -8 -6 -4 -3 -2 -3 -5 -4 -8 -11 -12 -10 -10 -9 -9 -6 -4 -4 -4 -2 0 1 4 5 6 7 8 6 4 0 -1 -2 -2 -4 -5 -5 -6 -6

GFSGL_sfc_temp_105.txt.gz
Temp
43 44 44 44 46 44 42 41 40 39 39 38 38 37 37 36 36 35 35 34 34 33 33 33 32 33 32 32 33 33 33 34 32 34 36 39 39 39 39 40 41 40 41
42 42 42 42 42 41 40 38 37 37 36 36 36 35 35 35 34 34 33 33 32 31 31 31 30 33 34 34 34 35 36 37 34 31 35 36 36 38 38 35 37 39 36
41 41 40 39 39 38 37 36 36 35 34 35 35 34 33 33 33 32 32 32 31 30 30 30 29 33 31 31 34 35 35 36 35 32 31 35 35 36 34 34 34 34 37
39 39 38 37 37 37 35 35 34 34 33 33 32 32 32 32 32 32 32 31 30 30 31 31 33 34 33 33 33 33 34 32 33 33 32 33 33 34 32 32 31 33 32
39 38 37 35 35 33 33 33 32 32 32 32 30 30 31 32 32 32 32 32 31 31 32 33 34 34 35 36 34 33 33 32 32 29 29 30 31 31 30 32 30 30 30
37 35 34 34 33 33 32 31 31 31 30 31 30 30 29 32 37 37 34 31 31 31 31 32 33 33 35 37 38 38 36 32 30 29 30 30 31 31 32 29 28 26 24
35 33 33 33 33 32 31 31 31 31 31 30 30 30 29 30 37 36 36 32 31 31 31 32 32 34 34 33 36 37 36 37 38 34 30 30 29 30 28 27 26 24 23
34 33 32 32 31 30 30 30 30 30 30 29 29 29 30 31 36 37 37 32 31 31 31 31 33 34 34 33 34 32 33 33 33 33 32 32 32 31 29 27 23 17 21
34 33 32 32 30 29 29 28 29 28 26 26 28 27 27 28 33 35 36 30 31 30 31 30 32 33 36 37 33 30 31 32 34 37 37 37 35 32 31 14 17 10 13
35 34 33 32 31 30 29 28 26 25 27 28 28 27 25 22 30 34 35 28 22 27 28 30 32 35 37 38 32 32 30 30 31 31 31 30 26 24 28 16 20 15 7
35 32 30 30 29 29 28 26 25 25 26 25 25 24 24 22 24 34 35 29 26 24 24 25 28 36 37 37 37 32 31 33 31 27 26 18 16 16 19 19 19 19 11
32 31 29 28 28 27 26 25 24 24 24 23 23 22 23 23 26 31 34 35 34 22 22 26 27 35 37 37 36 36 36 32 27 24 17 17 22 24 22 18 20 21 21
30 28 27 26 26 25 25 23 23 23 23 22 22 21 19 22 21 30 31 33 34 27 27 31 35 36 35 33 34 35 30 25 22 25 26 25 22 19 19 16 15 19 20
30 27 25 25 24 24 24 24 23 21 21 21 20 19 18 19 19 21 23 22 27 28 29 29 30 33 33 32 26 28 21 17 15 15 18 19 18 16 15 15 14 17 16
29 26 25 24 23 22 22 22 22 21 22 20 18 17 15 15 20 28 26 23 21 25 27 16 16 15 15 20 18 19 17 14 14 15 14 14 16 15 14 14 14 13 12
25 25 24 23 22 21 20 18 23 25 27 29 29 22 18 26 29 31 32 33 33 32 23 19 11 11 15 18 17 18 12 12 12 13 12 12 14 12 12 14 14 11 9
28 24 22 21 21 19 19 18 15 17 24 26 26 25 26 27 28 29 31 30 27 21 3 1 3 8 13 16 16 16 12 12 10 10 10 9 9 9 13 12 14 13 9
26 24 23 22 20 18 17 17 16 16 14 12 18 21 24 25 27 28 26 17 2 2 -5 -4 -2 4 8 10 10 11 9 10 14 14 12 10 4 5 9 9 11 8 6
23 22 21 19 17 16 14 12 11 11 10 8 3 11 11 21 24 22 19 -3 -4 -7 -7 -7 -6 -3 0 1 4 5 5 7 9 9 10 8 3 4 7 6 8 9 8
19 17 16 15 11 10 11 10 8 8 7 6 3 3 1 3 0 -4 -8 -11 -12 -10 -11 -10 -8 -9 -7 -6 -3 -1 0 3 4 6 7 6 5 4 8 5 5 6 0
14 12 11 10 10 10 9 9 8 6 6 3 4 5 15 4 -1 -7 -10 -11 -10 -12 -11 -12 -11 -11 -10 -8 -6 -4 -3 0 2 4 4 2 1 1 2 5 4 1 -2
10 8 7 8 6 5 4 4 4 5 4 3 2 1 18 -4 -8 -8 -10 -10 -10 -12 -12 -10 -11 -11 -10 -9 -8 -7 -5 -4 -1 2 4 2 -0 -1 -0 3 3 2 0
9 7 4 -2 2 0 2 1 1 0 -2 -3 -3 -3 -8 -9 -10 -10 -9 -11 -13 -12 -12 -12 -10 -9 -10 -9 -8 -6 -7 -6 -1 -0 2 2 -0 0 1 1 2 -0 -3
8 7 7 5 3 3 2 -2 -4 -4 -4 -5 -8 -9 -6 -8 -9 -8 -10 -13 -14 -14 -14 -11 -8 -6 -7 -7 -9 -9 -7 -5 -0 0 2 1 1 2 1 -1 0 0 -0
8 8 7 5 6 4 3 -2 -3 -4 -6 -5 -6 -7 -6 -4 -4 -4 -7 -12 -15 -14 -9 -8 -7 -6 -4 -4 -4 -6 -5 4 5 4 2 1 -0 0 0 -0 -0 -1 -2
8 8 8 7 4 2 -1 -3 -3 -4 -4 -4 -3 -3 -3 -2 -1 -4 -10 -13 -10 -9 -9 -8 -7 -5 -4 -3 -3 -0 0 7 6 6 4 1 -0 -1 -0 -1 -2 -2 -2

GFSGL_sfc_temp_108.txt.gz
Temp
48 46 48 48 48 48 47 46 44 43 39 38 38 37 37 36 36 34 34 33 33 32 32 31 31 31 30 31 31 31 31 31 30 33 34 36 36 36 36 36 36 36 36
45 45 44 45 45 44 43 40 42 38 37 37 36 36 35 34 34 34 32 32 31 31 31 30 29 33 30 30 31 31 31 33 33 30 34 33 33 34 33 32 35 37 34
44 44 43 42 42 41 38 38 37 36 35 34 35 34 34 33 32 32 32 31 30 30 29 29 30 31 30 30 30 30 32 36 34 32 31 32 32 32 34 33 33 32 35
42 42 41 40 40 38 37 36 36 35 34 33 33 33 33 32 32 32 32 30 30 30 30 31 32 31 31 31 31 29 32 32 32 31 31 31 33 35 33 30 29 31 30
41 41 39 37 36 36 35 34 33 33 33 33 32 31 31 32 32 32 32 31 31 30 31 32 33 33 35 36 33 32 33 31 31 30 30 31 31 30 29 31 28 29 28
40 39 36 35 34 34 33 33 33 32 32 31 31 31 30 32 38 36 33 31 31 31 30 31 32 32 34 37 37 37 36 32 30 30 30 29 30 30 31 27 27 24 22
36 34 34 34 34 33 33 32 32 31 30 30 30 30 30 32 37 37 35 32 31 31 31 31 32 32 31 33 35 36 35 37 38 34 30 29 30 30 28 24 25 22 19
35 34 32 33 33 31 31 31 30 30 29 29 29 29 30 31 38 37 36 32 31 31 31 31 31 31 32 32 32 33 34 33 33 33 31 32 32 31 28 23 19 12 17
34 34 34 33 31 31 30 29 29 28 27 27 28 27 28 29 36 37 36 32 32 32 32 31 30 29 35 38 34 31 28 32 35 37 37 37 36 34 31 12 13 16 9
36 35 34 33 32 31 31 29 27 28 29 29 28 26 27 27 33 35 35 31 28 29 29 30 31 32 36 37 30 24 22 23 30 29 30 31 27 23 29 17 18 16 8
36 34 32 32 32 31 30 28 27 27 27 25 25 24 25 26 28 34 36 32 29 26 26 26 29 34 36 37 37 30 24 31 30 27 26 22 18 16 18 19 20 18 10
34 33 32 31 31 30 29 27 27 26 24 23 23 23 24 25 27 32 35 35 34 25 25 27 27 33 36 37 33 35 37 33 25 26 26 27 25 24 20 17 17 21 20
33 32 31 30 29 29 27 25 25 25 25 23 24 24 24 24 25 31 33 33 34 28 28 29 34 35 34 32 33 33 29 20 18 14 21 27 28 21 16 15 13 15 19
33 30 28 28 26 26 27 26 25 24 24 24 24 24 23 23 23 24 24 23 27 29 30 26 29 32 30 28 20 23 22 25 22 16 13 15 15 13 13 14 12 12 8
30 28 28 28 27 25 26 25 25 25 28 26 25 24 22 21 23 26 24 20 20 24 22 16 18 15 13 15 13 11 13 16 17 11 10 11 13 14 14 12 11 6 8
28 28 28 26 25 25 23 21 26 27 28 28 28 24 22 26 29 31 32 33 33 30 13 9 9 10 12 12 10 11 10 12 15 12 8 9 11 15 16 12 8 7 8
30 28 27 26 25 23 21 21 19 22 28 30 30 30 29 26 30 31 31 32 27 20 6 3 4 4 5 9 8 8 11 11 12 10 10 11 12 13 12 12 10 11 8
31 29 28 26 25 23 23 23 22 19 17 17 26 26 28 29 29 30 29 21 8 6 -0 -1 -1 -2 -1 0 1 3 5 5 7 9 9 9 8 7 9 8 9 4 4
27 27 28 26 25 24 23 21 20 19 19 15 11 19 22 26 28 27 24 6 5 -1 -5 -7 -8 -8 -6 -6 -5 -4 -2 1 3 2 5 4 4 5 9 8 7 8 6
27 27 25 24 21 20 19 18 17 16 16 15 13 14 10 9 11 4 -4 -6 -7 -4 -6 -10 -11 -13 -12 -11 -10 -9 -8 -6 -3 -2 1 1 3 4 7 6 6 3 3
24 22 22 20 19 19 17 17 16 15 14 13 13 12 14 9 9 3 -1 -6 -3 -5 -6 -9 -11 -14 -14 -14 -14 -12 -11 -7 -6 -5 -3 0 2 0 2 5 5 4 1
19 17 17 18 17 15 16 13 12 12 12 10 7 4 22 6 1 1 -2 -5 -6 -8 -9 -10 -10 -10 -10 -11 -11 -12 -11 -10 -11 -8 -5 -1 -1 1 2 3 4 4 3
15 14 13 12 12 11 6 7 8 9 8 7 4 5 -1 2 1 -1 -2 -6 -10 -11 -13 -12 -9 -9 -11 -11 -9 -6 -8 -9 -9 -8 -7 -2 -0 -0 1 1 3 3 2
13 13 13 11 9 8 8 7 7 6 5 3 2 1 3 -1 -4 -4 -7 -11 -14 -15 -16 -12 -10 -7 -9 -10 -12 -12 -9 -8 -12 -7 -5 -5 -1 0 -0 -0 1 2 2
13 12 12 10 9 9 7 7 4 4 5 6 2 1 -2 -5 -7 -9 -10 -12 -12 -9 -5 -6 -6 -7 -5 -5 -7 -9 -9 1 -4 -5 -4 -2 -4 -2 0 -0 0 1 1
11 11 11 11 10 10 9 8 7 5 5 3 2 0 -1 -4 -3 -6 -6 -6 -4 -2 -4 -4 -3 -4 -7 -6 -5 -3 -3 3 -1 -1 1 -0 -2 -4 -0 -1 -1 -1 -1

GFSGL_sfc_temp_111.txt.gz
Temp
49 50 51 53 53 52 51 49 48 46 45 44 43 42 41 40 40 40 39 38 37 37 37 37 36 37 37 37 37 37 36 36 33 37 39 40 38 38 39 41 40 40 40
47 47 47 47 48 48 48 47 45 43 44 42 41 40 39 39 39 38 38 37 37 36 35 35 35 35 35 36 36 36 36 37 35 31 36 36 36 39 39 37 38 39 37
45 46 44 44 46 46 44 43 43 43 41 40 39 39 38 37 37 37 37 36 35 35 35 34 34 35 34 34 35 35 35 36 36 33 33 36 37 38 36 37 36 36 37
43 44 42 42 44 43 42 41 40 41 39 38 38 37 37 36 36 35 35 34 33 33 34 34 34 34 34 34 34 34 35 34 34 33 33 34 35 36 36 33 32 34 33
42 43 41 41 41 39 38 38 37 38 38 37 36 35 35 35 35 35 35 34 33 33 33 34 35 34 36 37 35 34 34 33 33 32 32 33 33 33 32 32 30 31 32
41 41 39 37 37 36 36 35 36 35 35 35 34 34 33 34 38 37 35 34 33 32 32 33 34 33 36 37 37 37 37 34 32 32 32 31 31 32 33 30 29 27 25
39 36 36 36 35 36 35 35 34 34 34 33 33 33 33 35 38 37 36 34 33 33 33 33 33 33 33 34 36 37 36 37 38 35 31 31 31 32 30 27 27 25 25
35 35 35 35 35 34 34 34 33 33 33 32 32 33 33 34 38 38 35 33 33 33 33 33 33 33 34 33 33 33 34 34 34 34 34 33 33 33 31 28 25 22 24
35 35 36 36 34 33 32 32 32 32 31 31 32 31 32 33 38 38 35 33 32 33 33 33 33 33 34 36 32 30 31 32 35 37 38 37 37 34 33 26 24 22 22
36 36 36 35 35 34 34 32 31 33 31 31 30 31 30 32 37 38 36 33 31 31 32 32 31 33 35 37 31 31 31 32 30 32 32 32 30 27 30 26 25 21 20
36 35 34 35 35 35 33 31 31 30 30 29 29 28 28 29 32 37 37 32 32 31 30 30 31 34 36 36 37 32 32 33 33 32 31 29 29 26 27 26 25 24 20
34 34 33 33 33 32 32 30 30 30 29 27 26 25 26 27 29 35 37 37 34 31 29 30 31 34 35 36 36 36 36 34 30 28 28 27 30 29 28 27 25 24 25
33 33 32 32 32 32 31 29 28 28 28 26 26 26 25 26 27 33 35 35 36 30 31 31 33 34 36 34 32 33 28 28 28 25 25 25 28 29 26 24 23 20 23
32 32 31 31 29 30 31 30 30 28 28 26 27 27 26 25 26 27 29 32 32 33 32 31 31 32 31 30 24 27 25 25 26 27 24 23 23 23 23 24 22 22 20
31 29 29 30 29 28 29 29 30 30 32 29 29 29 26 25 26 28 28 26 26 28 26 24 25 23 23 22 21 19 20 20 21 22 21 20 20 20 21 22 20 18 19
27 27 29 29 29 28 27 25 30 30 33 33 33 30 26 29 31 31 32 32 32 33 24 21 20 19 19 18 17 17 18 16 19 19 18 18 18 18 18 19 19 17 17
28 27 29 28 28 26 26 25 23 26 30 30 31 31 30 29 31 32 33 33 34 29 20 16 17 17 15 14 14 14 14 16 14 15 16 16 16 16 16 17 18 17 16
25 26 28 29 28 27 27 27 27 23 22 24 31 30 30 30 31 32 32 32 23 17 14 15 13 11 10 10 11 10 11 11 12 14 13 12 11 12 13 15 15 13 14
28 28 28 29 28 28 28 26 26 25 25 24 19 28 28 31 31 31 32 20 19 14 10 8 8 7 7 7 6 5 5 8 9 9 9 8 8 9 10 11 12 10 10
23 23 26 26 26 26 26 25 24 25 24 21 19 21 17 21 23 24 24 13 11 11 7 6 4 3 3 3 3 3 4 4 6 6 6 6 7 7 8 8 9 9 9
20 22 24 26 25 26 25 25 24 24 23 21 20 20 20 19 20 19 14 8 8 8 7 4 2 1 -0 -1 -1 -0 0 4 2 3 3 4 4 4 5 7 7 6 6
17 19 23 24 24 24 24 25 24 23 22 20 18 16 26 17 16 13 10 8 5 4 3 3 1 0 -1 -1 -1 -0 -0 1 0 1 2 1 2 3 3 5 5 6 6
14 13 17 18 18 17 14 15 17 18 18 17 15 13 18 18 12 10 8 4 2 -0 -2 -3 -1 -2 -3 -4 -2 1 1 -0 1 -0 1 1 0 2 2 3 3 3 5
9 9 15 13 15 14 14 14 14 13 12 11 8 11 12 10 9 8 5 2 -0 -3 -3 -4 -3 -1 -1 -3 -3 -4 -2 -1 -3 -2 -2 -1 -1 -1 1 1 2 2 3
6 8 13 15 15 14 14 13 11 10 9 9 7 8 8 8 7 6 5 2 1 -1 -3 -4 -3 -1 -0 0 -1 -4 -6 0 -2 -4 -3 -2 -2 -3 -2 0 1 2 2
6 8 10 10 12 13 12 11 11 10 9 9 9 9 8 7 6 5 3 1 -0 0 0 -0 -0 0 1 1 0 -1 -3 1 -2 -1 -0 -0 -0 -2 -1 -1 -1 1 1

GFSGL_sfc_temp_114.txt.gz
Temp
60 62 63 65 63 60 58 55 54 52 51 52 53 48 47 47 50 50 48 47 46 44 45 44 43 44 43 43 43 43 42 43 40 44 44 45 43 42 44 44 43 43 43
58 59 59 62 60 57 59 56 53 49 52 47 50 47 48 48 48 47 45 46 45 43 43 42 41 41 41 41 42 41 42 42 40 37 40 41 41 42 41 40 41 43 41
55 56 56 56 56 55 53 53 51 47 48 44 48 46 46 46 46 46 45 44 44 43 42 42 40 40 38 39 41 40 41 41 41 38 37 40 40 40 39 40 39 39 41
52 54 53 53 52 52 50 48 47 46 44 42 45 44 44 45 45 43 43 42 41 41 40 40 39 39 38 39 39 38 38 37 37 37 37 37 38 39 39 36 35 38 37
49 50 50 48 49 46 44 42 40 43 41 44 41 43 43 43 41 40 40 40 39 38 38 37 38 37 37 39 39 37 37 36 36 35 36 37 36 35 34 35 33 35 36
49 47 46 44 40 39 38 37 37 38 38 40 39 40 40 38 39 39 40 38 38 36 35 36 36 34 36 37 37 37 38 35 32 34 35 33 33 34 35 33 31 29 30
44 41 40 40 39 38 36 36 36 36 38 37 39 39 38 38 39 39 38 38 37 37 36 35 34 34 35 37 37 37 36 37 38 37 33 33 32 33 32 31 31 29 30
41 39 38 38 37 37 36 36 35 37 36 36 37 38 38 37 39 38 36 37 37 37 36 35 34 34 36 35 35 34 35 36 36 36 36 35 35 35 33 32 30 28 30
41 39 38 38 36 36 35 36 36 35 35 36 36 35 35 36 38 38 36 35 34 34 35 35 35 35 36 36 34 32 33 33 37 38 38 38 37 35 34 32 28 26 27
41 40 39 38 36 36 37 35 35 36 35 36 34 35 34 34 38 38 36 35 32 33 33 33 32 34 36 36 33 32 31 33 33 32 33 35 35 32 32 31 30 25 27
39 38 37 38 36 37 36 36 34 34 34 33 33 33 33 34 36 38 37 34 34 32 32 32 33 35 36 36 37 33 33 34 33 33 33 33 33 31 31 30 30 29 26
37 36 35 35 36 35 34 33 34 34 33 32 32 31 32 32 35 38 38 36 36 33 32 33 34 35 36 36 35 36 37 36 33 32 31 31 32 33 32 31 31 29 30
34 34 34 34 34 34 34 33 33 33 34 32 32 32 31 31 32 36 38 38 36 33 34 34 34 35 35 35 37 36 32 31 31 30 29 29 31 33 30 30 30 28 26
33 33 33 33 33 33 35 35 34 33 34 33 32 32 31 30 31 33 34 35 35 34 33 33 34 34 34 33 30 31 30 30 29 29 30 30 31 28 28 30 27 28 26
33 33 33 34 32 33 34 35 35 36 36 34 34 33 31 30 31 33 33 32 32 33 32 30 29 29 28 29 28 27 27 26 25 27 27 27 26 26 26 27 26 25 22
32 32 33 34 33 34 34 33 36 36 36 37 37 35 33 36 36 34 34 34 33 32 29 27 27 28 27 28 26 25 24 22 24 25 25 24 23 24 24 25 24 23 22
32 32 33 32 32 32 32 32 29 30 35 35 35 35 34 33 34 34 34 33 32 33 28 27 27 27 26 25 24 22 22 23 21 21 22 23 23 22 20 21 23 22 21
31 31 33 33 33 32 32 32 32 30 27 28 32 32 33 33 34 34 34 32 30 32 29 26 25 25 24 22 21 20 20 19 18 19 20 20 19 19 19 19 21 19 19
32 33 32 33 33 32 32 32 32 30 31 31 29 31 31 33 33 33 33 29 28 27 24 23 24 22 20 19 18 17 16 17 17 17 17 17 17 16 16 17 17 14 14
30 27 29 32 31 31 31 31 30 30 30 31 28 30 30 30 28 28 29 29 27 26 25 21 20 18 17 15 15 14 13 13 13 14 15 15 15 14 14 14 14 14 14
28 29 28 29 30 30 30 30 30 30 30 30 30 31 29 28 28 28 27 28 25 24 21 20 17 15 13 12 12 12 11 14 13 13 13 13 12 11 12 14 13 11 11
25 27 28 28 29 28 28 29 29 29 29 30 31 28 31 26 26 26 27 26 24 23 21 18 15 13 12 11 10 11 10 10 11 10 11 10 10 10 10 10 10 11 10
20 22 24 25 25 25 25 26 26 27 28 28 27 21 22 24 22 22 23 22 18 16 14 13 13 10 10 9 10 11 10 10 10 10 10 9 8 10 9 9 9 8 9
17 18 19 20 21 20 21 21 22 20 22 21 20 18 18 20 22 18 18 17 15 13 11 9 10 10 8 7 7 7 8 9 9 8 8 8 8 7 8 7 7 7 7
14 15 15 17 18 19 19 20 20 20 19 18 17 16 16 17 17 16 16 14 11 10 8 7 7 7 8 7 7 6 6 7 6 5 5 5 5 5 5 5 6 6 6
11 11 12 13 14 15 16 17 17 18 16 16 16 15 15 14 14 13 13 11 9 8 7 6 6 6 7 7 7 7 5 5 4 4 4 5 4 4 4 3 3 4 5

GFSGL_sfc_temp_117.txt.gz
Temp
67 68 68 68 68 67 65 65 61 59 58 56 54 52 52 50 52 50 49 48 46 45 45 44 44 44 43 42 43 43 41 42 40 42 43 43 41 41 42 42 42 41 41
63 62 63 66 64 61 61 59 56 54 53 53 51 50 50 49 50 49 47 47 45 42 43 42 42 44 42 42 41 41 41 42 40 37 40 39 39 40 39 38 40 42 39
61 60 60 60 61 61 58 55 53 52 50 49 48 48 48 47 47 47 46 46 45 44 42 41 41 40 38 39 40 40 40 42 40 36 35 37 37 37 35 37 37 36 40
57 57 57 56 58 58 58 54 51 50 48 48 46 46 46 47 46 44 44 44 44 43 41 42 40 39 38 38 38 37 38 35 35 34 33 34 34 35 34 32 31 33 33
54 54 55 54 54 52 47 46 44 46 45 44 42 40 40 43 43 42 42 41 40 39 39 39 39 38 39 40 38 36 36 35 33 32 32 33 33 32 31 32 31 31 32
53 52 52 48 45 42 41 40 39 38 39 39 40 40 40 40 42 42 41 39 38 36 35 35 37 34 37 38 39 40 39 34 31 32 33 32 32 31 32 31 31 29 25
47 44 42 41 40 39 38 37 37 38 38 38 38 39 38 38 41 41 40 38 37 36 35 34 34 35 34 35 37 37 37 38 38 35 32 32 30 31 29 31 31 29 28
43 41 39 39 38 37 36 36 37 37 37 37 38 38 39 38 40 40 38 37 37 36 36 35 34 33 34 34 34 33 34 34 34 35 34 33 33 32 31 31 30 28 29
42 41 39 38 36 36 35 36 36 35 35 36 36 36 36 36 39 38 37 36 35 35 35 35 34 34 35 36 33 32 32 33 37 38 38 38 38 38 35 29 28 27 26
42 41 40 38 36 35 36 36 36 35 34 34 33 34 34 35 39 38 37 35 33 33 33 33 33 34 36 36 33 32 30 31 32 31 31 34 36 33 35 29 29 26 26
40 38 36 36 35 36 36 35 34 34 33 33 33 33 33 34 36 38 38 35 34 33 32 32 33 36 36 37 36 32 32 33 34 32 32 32 31 29 30 31 30 29 26
36 35 34 34 34 34 34 33 33 33 33 33 33 32 33 33 35 38 38 37 37 33 33 33 33 36 36 36 35 37 37 36 33 32 31 31 31 31 33 31 30 29 29
33 32 33 33 33 33 33 33 33 33 33 33 32 32 31 32 34 38 38 38 37 34 34 35 35 36 36 36 36 37 34 33 31 30 29 30 31 32 29 27 29 29 28
32 33 33 33 33 33 34 34 34 33 33 34 33 33 32 31 32 34 35 36 35 35 34 34 34 34 34 34 32 35 32 31 30 29 28 31 30 28 27 28 27 27 26
32 32 33 33 33 33 33 34 34 35 36 34 35 35 33 31 32 35 35 34 34 34 32 31 30 30 30 30 30 30 29 27 25 25 25 26 27 26 26 27 26 24 22
32 32 33 33 33 33 33 33 37 37 37 38 39 37 35 38 38 36 36 36 36 36 30 29 28 29 28 28 28 27 26 25 25 25 24 24 25 24 24 25 24 22 21
31 32 33 30 32 32 32 32 31 33 35 36 37 38 38 37 37 36 35 36 36 35 29 29 28 28 28 28 28 27 25 24 24 23 22 22 23 23 22 21 21 22 21
29 30 31 32 32 33 32 32 32 31 30 30 35 36 37 36 35 35 35 35 31 32 30 29 28 28 29 28 27 25 23 21 18 19 19 20 20 20 20 19 20 19 19
29 32 32 32 33 31 31 31 31 31 31 31 31 32 33 35 34 35 35 32 30 29 29 29 29 28 28 27 25 22 21 20 18 18 18 18 17 17 16 16 18 15 12
30 29 27 31 32 32 31 31 30 30 30 30 31 31 31 30 29 30 32 32 30 30 31 30 29 27 26 23 21 19 17 16 15 15 16 16 15 15 14 12 11 11 9
26 28 29 29 30 30 30 30 30 30 29 29 30 32 33 29 29 30 31 31 31 31 30 29 26 24 22 20 18 16 15 15 13 14 14 14 14 12 11 12 11 7 5
23 25 27 27 28 28 29 29 29 29 28 28 29 31 34 31 30 31 32 31 32 31 30 27 24 21 19 17 16 15 14 13 14 13 12 12 11 10 10 9 6 5 3
20 20 22 23 24 24 24 25 26 26 27 27 28 28 23 27 29 28 26 26 25 22 21 21 20 16 15 16 15 15 13 12 13 12 11 10 9 9 7 6 4 1 5
17 17 18 18 20 20 20 21 22 21 21 21 23 23 22 22 24 25 24 25 23 20 18 16 16 15 13 12 12 13 14 13 13 12 12 10 9 8 9 6 4 3 4
14 14 14 15 15 16 18 19 19 20 20 19 19 20 20 20 20 21 22 21 19 17 15 13 13 13 12 10 10 9 10 12 10 10 9 10 9 7 6 7 6 5 4
10 11 11 11 12 13 14 14 15 16 16 17 16 16 16 16 16 17 17 17 14 13 12 10 9 9 10 10 9 10 9 11 8 8 7 7 6 6 5 4 4 3 4

GFSGL_sfc_temp_120.txt.gz
Temp
58 59 61 64 65 65 65 64 62 60 58 58 56 53 52 51 51 50 47 45 44 42 42 41 39 39 38 37 38 38 37 38 36 36 39 37 36 35 37 37 37 36 35
55 56 56 58 59 59 59 59 58 56 54 54 52 51 50 50 49 48 47 45 44 41 41 39 39 41 37 38 37 37 37 39 37 34 36 33 34 35 34 33 37 39 34
54 53 53 54 55 56 56 54 54 52 51 50 50 49 48 48 48 47 47 45 43 43 41 39 38 38 36 35 36 36 37 39 37 34 31 32 33 32 30 31 32 31 36
51 51 50 50 52 53 54 53 51 50 48 47 48 48 47 47 47 45 44 44 42 41 39 38 38 38 36 36 36 35 36 33 33 30 30 30 28 29 28 27 26 26 27
48 48 48 48 49 49 47 45 44 45 45 44 43 42 42 44 44 41 41 42 39 37 36 37 37 37 38 39 37 34 34 32 32 31 31 28 27 27 28 28 27 25 27
46 46 46 45 43 41 40 39 39 38 39 38 38 39 40 42 43 43 42 40 38 37 35 34 36 35 38 40 40 39 38 34 32 31 31 31 31 29 27 27 27 27 21
43 41 40 39 38 38 37 36 36 37 37 37 37 37 38 38 41 41 40 39 37 36 35 34 33 34 34 34 39 39 39 40 38 34 31 30 28 29 27 24 29 29 27
38 38 37 37 36 35 34 36 36 36 36 36 36 37 37 36 41 40 38 37 36 35 34 34 34 32 33 34 34 33 33 34 35 35 31 31 31 31 30 28 26 26 28
37 37 36 35 33 33 33 35 35 34 34 34 34 34 35 34 40 39 37 35 34 35 34 33 33 33 35 37 32 31 31 32 37 38 37 38 38 38 34 25 25 25 24
36 36 36 35 32 32 32 32 31 34 34 34 33 34 34 34 38 38 38 36 34 33 32 32 32 34 36 37 32 31 29 31 31 29 30 34 37 35 38 28 23 20 25
36 34 32 32 30 31 30 29 30 30 33 33 33 33 34 35 36 39 38 35 35 32 31 31 33 37 37 37 36 32 32 32 33 29 28 28 29 27 28 28 27 28 26
30 30 29 28 30 31 28 29 32 33 33 32 32 31 32 33 35 38 39 38 37 33 31 32 33 37 37 37 36 35 36 34 31 29 27 28 28 30 28 30 29 29 29
29 25 29 29 31 31 27 31 32 32 32 31 32 31 31 32 34 38 38 38 38 33 33 34 35 36 37 37 37 37 33 32 30 29 29 29 29 28 28 28 28 29 28
32 30 28 28 26 26 29 30 32 32 32 32 32 32 32 31 33 34 35 36 35 34 35 34 35 35 36 35 32 35 33 32 31 31 30 28 27 26 27 27 25 26 25
27 28 29 29 27 27 28 28 28 29 33 33 34 34 33 30 32 35 35 33 34 34 32 31 31 31 30 31 30 31 31 30 29 29 26 25 25 25 25 26 26 24 22
26 25 25 25 25 25 25 27 35 36 37 38 38 35 31 37 38 36 37 37 37 36 31 30 29 29 29 29 29 29 29 29 28 27 25 25 25 24 24 24 24 22 20
21 24 24 24 24 24 24 24 24 29 36 36 37 37 38 35 38 37 37 37 37 37 31 30 29 29 29 29 29 28 27 28 27 25 25 24 24 23 22 22 22 21 19
26 26 21 22 24 24 23 23 22 22 21 22 30 35 35 37 37 38 37 36 32 34 33 31 30 30 30 29 28 28 28 25 23 24 23 23 22 22 20 20 19 17 18
24 28 28 29 29 28 27 25 25 25 22 22 20 28 27 35 37 36 36 32 30 31 32 32 32 31 30 29 29 28 27 23 23 21 20 20 20 20 19 18 17 16 15
27 28 28 28 29 29 25 23 24 24 24 28 24 21 19 22 28 30 31 32 31 30 31 31 31 31 31 30 28 26 24 22 20 19 19 19 19 18 17 14 15 12 9
23 25 26 27 28 27 27 26 20 19 21 23 18 19 33 28 26 26 29 30 31 31 31 32 32 32 31 29 26 23 22 21 20 19 18 17 16 15 15 14 12 10 6
9 9 11 17 20 24 23 19 21 22 24 26 27 26 32 28 28 27 28 30 31 32 32 32 31 28 26 23 22 20 19 18 17 16 16 15 14 13 13 11 11 10 6
8 7 7 8 9 17 20 20 21 22 22 22 15 19 15 13 21 25 26 24 24 25 24 24 25 23 23 22 22 21 19 18 18 17 16 14 13 12 12 10 10 9 8
1 2 4 3 3 5 7 15 18 19 19 20 16 11 13 13 11 15 20 23 24 24 24 23 22 22 19 18 18 18 19 18 17 16 16 14 12 11 10 10 9 9 8
-1 -0 -2 -1 -2 0 3 3 5 6 11 9 10 6 4 4 6 8 11 16 18 18 16 14 17 17 17 15 15 14 15 16 14 14 14 12 11 10 10 9 9 8 8
-4 -4 -6 -6 -5 -4 -3 0 2 3 4 6 6 8 8 7 6 5 5 8 12 10 9 6 7 10 11 13 12 12 13 15 12 12 12 12 10 9 9 8 8 7 7

GFSGL_sfc_temp_123.txt.gz
Temp
57 58 59 60 61 61 64 63 63 61 61 61 61 60 57 55 54 54 52 50 50 46 44 44 41 41 39 38 38 38 38 39 36 36 37 38 37 37 36 35 36 35 34
53 54 55 56 57 58 61 61 59 60 57 58 57 56 54 53 52 52 50 49 49 46 43 42 40 41 38 38 37 37 37 38 37 33 35 35 35 36 33 34 36 37 33
51 51 51 52 54 55 56 57 57 56 54 52 52 52 51 51 50 50 50 48 48 47 44 41 41 39 37 36 35 36 36 39 37 34 32 33 33 33 32 32 31 30 35
49 49 48 49 50 51 52 52 53 53 52 50 50 50 49 48 48 47 46 46 46 44 43 42 40 40 38 36 36 35 36 33 32 31 29 30 31 32 31 27 26 25 28
47 47 47 47 47 47 47 47 46 47 48 47 45 44 44 45 44 42 41 43 41 40 39 39 39 38 38 39 38 35 35 33 32 30 30 30 30 30 29 27 27 26 26
45 44 44 43 42 42 41 40 40 41 42 41 40 41 40 42 43 43 43 41 40 38 36 37 37 36 38 39 40 40 38 34 32 31 32 32 32 31 29 29 27 25 23
41 40 39 38 38 37 36 36 37 37 36 37 38 38 38 39 42 42 41 41 39 38 37 36 37 36 35 37 39 40 39 40 39 36 33 32 31 31 29 24 27 26 25
38 38 37 37 36 36 35 35 35 35 37 37 37 37 37 37 41 41 39 37 37 37 37 37 36 34 36 35 35 34 34 35 36 35 33 32 32 32 32 29 27 24 27
37 37 36 35 32 33 31 32 36 35 34 35 34 35 35 35 40 40 38 35 35 35 35 36 36 34 35 38 34 33 32 32 37 38 37 38 38 37 34 27 23 21 20
36 36 36 35 30 30 31 29 29 33 33 33 34 34 34 34 39 40 38 35 34 34 34 34 33 35 36 38 33 32 29 31 31 30 33 35 37 36 37 30 26 22 19
34 33 30 31 28 29 28 28 28 32 33 33 32 32 33 34 35 39 39 35 35 34 33 32 33 36 36 38 36 32 33 33 33 31 30 30 30 29 30 30 29 27 24
28 28 27 28 30 30 24 26 32 33 33 32 32 31 31 32 35 39 39 38 38 34 33 33 33 36 37 38 37 35 37 33 31 30 29 29 29 29 29 29 28 29 30
27 28 30 30 31 31 24 27 32 32 32 31 30 31 30 31 32 37 39 39 38 33 34 34 35 36 37 37 38 37 34 31 30 29 29 30 31 31 29 26 27 27 29
26 27 23 23 26 28 26 26 26 30 31 31 31 31 30 30 32 33 34 36 35 35 34 34 34 35 36 35 33 36 33 32 31 30 30 31 30 26 27 27 26 26 25
23 23 28 26 22 23 24 24 26 25 28 27 29 32 31 30 32 35 35 34 34 34 33 32 31 31 31 32 32 33 33 32 31 31 30 29 28 27 27 27 26 26 24
25 23 22 22 21 22 21 23 33 35 37 37 37 34 28 35 38 37 37 37 37 37 31 30 30 30 30 30 31 30 31 31 31 31 30 29 27 26 26 25 26 24 22
22 20 20 22 22 20 20 21 21 27 34 36 36 37 37 36 37 38 37 37 38 37 32 31 30 30 30 30 31 30 30 31 32 30 29 28 27 26 25 24 24 23 22
30 29 28 29 30 29 26 25 22 16 18 21 28 33 35 36 36 37 38 37 32 34 33 32 31 31 30 30 30 30 31 30 29 28 27 27 26 25 24 23 23 22 21
27 26 26 27 28 28 27 17 17 16 16 17 17 26 24 33 35 35 37 32 31 31 32 32 33 31 31 31 31 31 31 30 29 28 26 25 25 24 23 23 23 21 20
26 27 28 28 27 27 25 27 14 14 13 12 13 17 20 19 27 23 22 31 31 31 31 30 32 32 31 31 31 31 30 29 27 26 25 24 23 23 22 22 21 19 18
13 10 18 21 21 22 13 17 15 17 23 18 18 21 32 27 27 25 28 25 24 28 31 31 30 31 32 31 31 30 29 28 26 24 23 22 22 20 21 22 20 19 18
0 0 2 2 4 8 12 18 11 17 20 19 20 13 25 13 15 20 23 24 26 27 28 30 31 32 32 31 31 29 27 25 24 23 22 21 20 19 19 18 17 16 15
1 1 1 1 -1 2 1 2 7 14 14 17 19 13 11 8 7 10 15 17 19 20 22 24 24 25 24 24 25 26 24 24 24 22 20 19 18 18 17 16 15 14 12
-0 -2 -2 -3 -3 -2 -1 0 0 4 6 7 7 7 7 9 7 8 9 12 14 15 16 16 18 18 19 19 16 18 21 22 22 21 20 18 17 16 15 14 13 13 12
1 -1 -6 -5 -7 -6 -5 -3 -3 -5 -3 -2 -0 1 5 3 5 5 6 8 9 10 10 11 12 13 13 14 15 15 16 18 18 16 17 17 15 14 13 13 12 11 11
-2 -3 -6 -8 -8 -10 -9 -5 -3 -6 -5 -2 -1 -3 -1 3 4 5 5 5 6 7 5 6 5 4 4 7 9 11 13 15 14 14 15 14 12 12 12 11 10 10 9

GFSGL_sfc_temp_126.txt.gz
Temp
58 62 63 63 63 64 64 63 63 63 62 62 61 61 61 61 59 58 58 58 54 56 50 51 50 45 45 42 41 41 41 41 37 34 36 36 35 36 37 36 37 36 36
56 56 58 59 57 59 61 63 61 60 58 61 61 61 61 60 58 57 56 54 54 53 51 49 48 45 42 41 40 41 42 39 37 32 33 33 34 36 36 34 36 38 34
50 50 50 51 52 54 54 55 56 56 58 56 58 58 57 56 55 54 55 53 52 52 50 47 47 43 41 40 39 40 39 39 35 33 31 33 33 34 32 33 34 33 34
47 47 47 47 48 49 50 50 51 51 53 52 52 51 51 51 51 50 49 50 50 49 48 46 45 43 42 40 39 38 37 34 32 32 29 30 31 31 30 30 30 29 28
46 46 46 45 45 45 45 44 46 45 46 46 45 45 45 45 44 44 43 45 44 43 41 41 42 40 39 42 40 36 36 35 32 29 30 30 30 29 31 30 30 28 29
45 44 43 43 41 41 40 39 39 40 42 42 41 41 42 42 43 42 43 43 41 39 38 38 38 35 38 40 40 40 40 37 34 33 30 32 32 31 31 30 29 26 25
41 40 39 39 39 38 37 37 38 37 37 37 38 39 40 40 42 42 41 41 40 40 38 36 35 36 36 38 39 40 40 41 41 37 34 32 32 32 32 29 29 28 25
38 38 37 37 36 36 36 36 35 34 35 35 37 38 38 37 41 41 40 39 38 38 37 36 36 35 36 35 35 34 34 35 36 36 34 32 32 33 34 32 30 27 25
37 37 36 35 31 33 30 30 34 33 34 35 34 34 34 36 39 40 39 35 35 35 35 35 36 35 36 38 35 34 33 33 38 38 37 38 39 37 34 29 25 22 20
36 36 35 34 29 28 30 28 28 33 33 33 33 33 33 34 38 39 39 33 33 33 32 33 33 35 37 38 34 34 31 33 32 30 32 36 37 36 36 32 28 23 16
33 32 29 29 27 28 27 27 27 32 32 33 32 33 33 33 34 39 40 33 33 32 33 32 33 36 37 38 36 33 34 34 33 30 31 31 31 32 33 31 30 28 20
28 29 30 31 31 32 23 29 33 33 33 32 32 32 32 32 34 36 39 40 37 33 32 32 32 36 36 37 36 35 37 34 31 30 29 29 30 31 32 31 30 30 31
30 30 30 31 31 32 25 33 32 32 32 31 30 31 32 31 32 36 38 39 39 34 32 34 35 36 36 36 37 37 34 31 30 29 28 29 31 32 30 28 28 29 29
29 27 24 25 27 27 25 25 23 27 26 29 30 30 30 29 31 31 33 34 34 35 34 33 34 35 35 35 33 36 33 32 30 30 29 31 29 28 29 30 28 28 27
26 27 28 24 21 22 23 22 24 22 25 22 24 25 26 26 26 32 31 32 33 34 32 31 31 30 30 32 32 33 33 32 31 31 30 29 29 29 29 29 28 27 25
25 23 23 23 22 22 22 23 33 34 36 37 37 31 23 33 37 37 38 37 37 37 32 30 30 30 29 30 31 31 32 32 32 32 31 31 30 29 29 28 28 26 25
24 23 23 27 28 28 28 28 21 24 32 34 35 35 36 36 36 36 37 38 38 37 32 31 30 30 30 29 30 30 30 31 33 32 31 31 31 30 28 27 26 26 25
29 29 29 29 29 24 17 16 14 20 22 16 26 32 33 34 35 36 36 34 28 32 31 32 32 31 31 30 30 30 31 31 30 31 31 31 31 29 28 27 26 25 25
26 26 27 28 28 27 27 16 14 19 19 12 10 23 20 32 34 34 34 27 29 29 30 31 32 32 32 30 30 30 30 30 30 30 30 30 30 28 27 27 26 25 24
24 26 23 17 14 14 14 13 12 18 15 9 13 18 23 22 21 20 21 19 27 29 29 30 31 31 31 32 31 30 30 30 30 30 30 30 29 28 26 25 25 24 23
8 8 14 13 9 9 6 5 6 6 9 10 12 12 27 11 9 9 21 22 23 24 24 25 27 28 28 29 31 31 31 30 30 30 29 28 27 25 25 25 24 23 23
5 3 6 3 3 7 4 3 4 6 5 6 7 7 21 5 5 5 5 6 9 12 15 19 20 22 23 23 23 23 24 26 28 27 26 25 24 23 23 22 22 21 21
6 4 2 -0 -0 2 1 -2 -1 -0 2 3 4 6 2 -0 2 2 3 4 8 9 8 7 12 14 16 17 17 18 18 20 22 22 23 22 21 20 21 20 20 19 18
7 7 7 5 4 -0 1 -3 -4 -3 -2 -2 -5 -5 -1 -1 1 3 2 4 5 5 7 5 9 8 9 10 11 13 14 15 17 18 18 19 19 19 18 18 17 17 16
5 5 5 4 3 0 -5 -5 -6 -9 -8 -7 -6 -5 -4 -2 2 1 2 2 4 3 5 5 6 5 4 3 4 4 5 9 11 14 14 14 15 14 14 14 14 13 14
4 3 2 2 1 0 -3 -5 -6 -6 -6 -5 -4 -4 -5 -5 -3 -2 -0 -1 1 2 1 2 2 1 -0 1 0 5 7 12 13 11 12 12 10 7 8 10 11 11 10

GFSGL_sfc_temp_129.txt.gz
Temp
59 60 60 61 61 61 61 61 60 59 58 58 58 59 60 61 62 60 60 59 58 58 58 56 56 57 51 49 47 48 45 44 46 35 38 37 35 36 37 35 36 36 37
57 58 57 58 57 56 57 58 57 59 59 61 61 60 61 61 61 60 59 58 57 56 56 53 54 51 50 49 47 45 45 42 38 34 33 33 34 36 35 34 35 37 35
51 52 52 53 53 54 55 55 57 58 58 57 59 59 59 59 58 56 56 55 53 54 54 51 51 49 46 43 43 43 41 40 38 34 32 33 33 35 32 33 32 32 35
46 47 47 47 48 48 49 50 50 51 52 53 54 53 52 52 51 50 50 51 51 51 49 48 48 45 46 43 42 42 40 37 35 34 33 32 31 30 32 31 29 29 31
45 45 45 45 45 45 44 44 47 47 48 48 48 45 45 46 45 45 45 45 45 45 43 43 43 42 40 42 41 39 37 36 35 34 32 31 30 30 31 32 31 30 30
45 44 43 43 41 40 39 39 39 41 42 41 41 40 39 40 42 43 43 43 42 41 40 40 39 36 38 40 41 41 40 37 34 34 32 32 32 32 33 31 31 27 27
42 40 39 39 39 38 38 38 37 37 36 36 38 39 39 41 42 42 40 39 40 40 39 37 36 36 35 36 39 40 39 41 41 37 34 33 33 33 33 30 30 28 28
39 38 37 37 37 36 36 36 35 35 35 35 37 38 38 38 40 41 40 39 38 38 38 37 36 35 35 35 35 34 34 35 35 35 33 33 33 33 35 33 32 27 27
37 37 36 36 31 32 29 30 33 33 35 35 35 34 34 35 39 39 39 36 35 35 35 35 35 35 36 38 34 33 32 32 37 37 37 35 37 38 34 30 26 26 20
36 36 35 33 30 29 30 29 27 32 33 33 33 33 33 33 37 39 38 33 33 33 32 33 33 35 37 38 34 33 32 32 32 32 32 35 36 36 36 34 30 27 22
33 31 30 30 29 28 28 27 32 33 33 33 33 33 33 33 33 38 39 33 33 33 32 32 32 36 37 38 37 33 34 33 34 32 32 31 31 31 32 31 31 31 26
30 31 31 32 32 31 29 33 33 33 33 33 33 32 32 32 34 36 38 39 37 33 32 32 32 36 37 38 37 36 37 33 31 31 30 30 30 30 32 32 30 31 31
31 31 32 31 32 32 34 33 32 33 32 30 31 29 24 27 31 36 36 37 38 34 33 33 36 36 37 37 38 37 33 32 30 30 28 29 30 33 30 27 30 30 29
29 27 28 29 30 29 26 31 31 30 26 29 28 28 30 24 25 26 28 29 31 34 35 33 34 35 35 35 32 34 34 32 31 30 30 30 27 26 27 30 28 28 27
29 29 28 24 22 23 23 22 23 22 25 22 20 21 28 29 24 34 32 30 32 33 32 31 30 30 30 30 31 31 32 31 31 31 29 26 27 28 28 29 28 27 26
26 24 22 23 21 22 24 23 35 35 36 36 35 29 22 33 36 36 37 38 38 38 32 30 29 29 29 28 28 31 31 32 32 32 31 31 29 29 28 29 29 28 27
27 24 25 26 28 27 22 23 23 22 34 34 34 34 35 35 36 36 37 37 37 34 30 32 30 30 30 29 29 29 29 30 32 31 31 31 30 30 29 29 29 27 27
28 29 29 28 23 22 24 23 24 23 20 15 25 31 33 34 35 34 34 31 28 32 30 30 30 31 31 30 30 29 27 28 29 30 31 31 31 30 29 29 28 27 26
28 28 26 23 28 23 15 19 21 21 20 17 9 21 19 29 29 29 29 13 19 24 28 28 29 30 30 31 31 30 30 29 30 29 29 29 30 30 29 29 29 28 27
27 28 24 16 14 14 12 12 18 18 9 7 9 8 8 11 8 9 19 13 16 18 19 18 20 23 24 25 26 28 29 30 30 30 30 31 29 29 29 28 28 27 26
11 9 14 11 9 10 5 9 5 6 6 4 7 9 23 2 -1 -1 2 6 6 6 9 11 14 15 17 20 20 20 20 21 22 25 28 29 30 28 28 26 26 25 24
5 5 14 11 8 8 3 5 5 6 8 6 4 6 18 1 -2 -2 -2 -0 1 1 1 2 5 4 5 11 13 13 14 15 17 19 20 21 22 21 20 20 21 22 22
7 12 12 10 9 8 6 1 3 1 3 1 -1 2 1 -3 -4 -2 -4 -4 -3 -3 -2 -3 -2 1 1 2 4 7 9 10 12 14 14 15 17 19 20 20 20 19 18
11 11 10 9 9 9 9 9 6 2 2 2 -0 -2 -1 -4 -4 -3 -1 -1 -3 -4 -4 -5 -4 0 -1 -2 0 3 5 5 7 9 9 11 12 14 15 16 17 15 16
8 8 8 8 7 7 6 5 4 -1 -4 -3 -1 -3 -4 -4 -5 -7 -8 -8 -7 -7 -2 -1 -1 -2 -2 -3 -2 -2 -1 3 2 4 8 9 9 8 11 12 13 12 12
6 6 6 5 5 4 3 4 3 2 1 1 -1 -5 -6 -5 -7 -9 -7 -7 -5 -5 -4 -4 -4 -2 -3 -2 -3 1 4 10 10 12 11 9 9 9 7 9 7 6 6